<?xml version="1.0" encoding="UTF-8" standalone="no" ?>
<gpx xmlns="http://www.topografix.com/GPX/1/1" xmlns:xsi="http://www.w3.org/2001/XMLSchema-instance" xsi:schemaLocation="http://www.topografix.com/GPX/1/1 http://www.topografix.com/GPX/1/1/gpx.xsd" version="1.1" creator="VisuGPX - https://www.visugpx.com">
  <metadata>
    <name>06 - D+  Mandelieu </name>
    <desc><![CDATA[06 - D+  Mandelieu : oeufs de bouc - petite et grande Grue - pont Sarrazin 
2022-11-20]]></desc>
  </metadata>
  <trk>
    <name><![CDATA[Mandelieu - oeufs de bouc - petite et grande Grue - pont Sarrazin - 2022-11-20-01]]></name>
    <trkseg>
      <trkpt lat="43.52489" lon="6.9124">
        <ele>28.8</ele>
        <time>2022-11-20T08:25:39Z</time>
      </trkpt>
      <trkpt lat="43.52489" lon="6.9124">
        <ele>28.8</ele>
        <time>2022-11-20T08:25:40Z</time>
      </trkpt>
      <trkpt lat="43.52494" lon="6.91229">
        <ele>28.1</ele>
        <time>2022-11-20T08:28:00Z</time>
      </trkpt>
      <trkpt lat="43.52492" lon="6.91217">
        <ele>28.4</ele>
        <time>2022-11-20T08:28:09Z</time>
      </trkpt>
      <trkpt lat="43.5249" lon="6.91203">
        <ele>28.2</ele>
        <time>2022-11-20T08:28:18Z</time>
      </trkpt>
      <trkpt lat="43.52488" lon="6.91191">
        <ele>28</ele>
        <time>2022-11-20T08:28:27Z</time>
      </trkpt>
      <trkpt lat="43.52484" lon="6.91178">
        <ele>27.7</ele>
        <time>2022-11-20T08:28:36Z</time>
      </trkpt>
      <trkpt lat="43.52481" lon="6.91166">
        <ele>27.4</ele>
        <time>2022-11-20T08:28:46Z</time>
      </trkpt>
      <trkpt lat="43.52477" lon="6.91155">
        <ele>27.4</ele>
        <time>2022-11-20T08:28:55Z</time>
      </trkpt>
      <trkpt lat="43.52473" lon="6.91143">
        <ele>27.3</ele>
        <time>2022-11-20T08:29:03Z</time>
      </trkpt>
      <trkpt lat="43.5247" lon="6.91131">
        <ele>27.2</ele>
        <time>2022-11-20T08:29:11Z</time>
      </trkpt>
      <trkpt lat="43.52465" lon="6.9112">
        <ele>26.7</ele>
        <time>2022-11-20T08:29:18Z</time>
      </trkpt>
      <trkpt lat="43.52459" lon="6.91111">
        <ele>26.7</ele>
        <time>2022-11-20T08:30:09Z</time>
      </trkpt>
      <trkpt lat="43.52453" lon="6.911">
        <ele>26.8</ele>
        <time>2022-11-20T08:30:21Z</time>
      </trkpt>
      <trkpt lat="43.52446" lon="6.91091">
        <ele>26.5</ele>
        <time>2022-11-20T08:31:25Z</time>
      </trkpt>
      <trkpt lat="43.52444" lon="6.91078">
        <ele>26.2</ele>
        <time>2022-11-20T08:31:40Z</time>
      </trkpt>
      <trkpt lat="43.5244" lon="6.91066">
        <ele>26.1</ele>
        <time>2022-11-20T08:31:54Z</time>
      </trkpt>
      <trkpt lat="43.52435" lon="6.91056">
        <ele>25.9</ele>
        <time>2022-11-20T08:32:03Z</time>
      </trkpt>
      <trkpt lat="43.52427" lon="6.91047">
        <ele>25.9</ele>
        <time>2022-11-20T08:32:12Z</time>
      </trkpt>
      <trkpt lat="43.52419" lon="6.9104">
        <ele>25.8</ele>
        <time>2022-11-20T08:32:19Z</time>
      </trkpt>
      <trkpt lat="43.52409" lon="6.91036">
        <ele>25.7</ele>
        <time>2022-11-20T08:32:26Z</time>
      </trkpt>
      <trkpt lat="43.524" lon="6.91034">
        <ele>25.7</ele>
        <time>2022-11-20T08:32:33Z</time>
      </trkpt>
      <trkpt lat="43.5239" lon="6.91031">
        <ele>25.5</ele>
        <time>2022-11-20T08:32:42Z</time>
      </trkpt>
      <trkpt lat="43.52381" lon="6.91025">
        <ele>25.5</ele>
        <time>2022-11-20T08:32:50Z</time>
      </trkpt>
      <trkpt lat="43.52374" lon="6.91016">
        <ele>25.3</ele>
        <time>2022-11-20T08:32:58Z</time>
      </trkpt>
      <trkpt lat="43.52368" lon="6.91007">
        <ele>25.2</ele>
        <time>2022-11-20T08:33:07Z</time>
      </trkpt>
      <trkpt lat="43.52361" lon="6.90997">
        <ele>25.2</ele>
        <time>2022-11-20T08:33:15Z</time>
      </trkpt>
      <trkpt lat="43.52354" lon="6.90987">
        <ele>25.7</ele>
        <time>2022-11-20T08:33:24Z</time>
      </trkpt>
      <trkpt lat="43.52347" lon="6.90978">
        <ele>25.6</ele>
        <time>2022-11-20T08:33:35Z</time>
      </trkpt>
      <trkpt lat="43.5234" lon="6.9097">
        <ele>25.6</ele>
        <time>2022-11-20T08:33:44Z</time>
      </trkpt>
      <trkpt lat="43.52332" lon="6.90962">
        <ele>25.5</ele>
        <time>2022-11-20T08:33:53Z</time>
      </trkpt>
      <trkpt lat="43.52324" lon="6.90954">
        <ele>25.7</ele>
        <time>2022-11-20T08:34:02Z</time>
      </trkpt>
      <trkpt lat="43.52316" lon="6.90947">
        <ele>25.7</ele>
        <time>2022-11-20T08:34:10Z</time>
      </trkpt>
      <trkpt lat="43.52307" lon="6.90942">
        <ele>25.9</ele>
        <time>2022-11-20T08:34:18Z</time>
      </trkpt>
      <trkpt lat="43.52299" lon="6.90938">
        <ele>26.1</ele>
        <time>2022-11-20T08:34:28Z</time>
      </trkpt>
      <trkpt lat="43.5229" lon="6.90934">
        <ele>25.9</ele>
        <time>2022-11-20T08:34:38Z</time>
      </trkpt>
      <trkpt lat="43.5228" lon="6.90933">
        <ele>25.8</ele>
        <time>2022-11-20T08:34:45Z</time>
      </trkpt>
      <trkpt lat="43.52271" lon="6.90932">
        <ele>26.2</ele>
        <time>2022-11-20T08:34:53Z</time>
      </trkpt>
      <trkpt lat="43.5226" lon="6.90931">
        <ele>26.4</ele>
        <time>2022-11-20T08:35:01Z</time>
      </trkpt>
      <trkpt lat="43.52251" lon="6.90932">
        <ele>26.4</ele>
        <time>2022-11-20T08:35:08Z</time>
      </trkpt>
      <trkpt lat="43.52241" lon="6.9093">
        <ele>26.5</ele>
        <time>2022-11-20T08:35:16Z</time>
      </trkpt>
      <trkpt lat="43.52232" lon="6.90931">
        <ele>26.7</ele>
        <time>2022-11-20T08:35:23Z</time>
      </trkpt>
      <trkpt lat="43.52222" lon="6.90929">
        <ele>26.9</ele>
        <time>2022-11-20T08:35:33Z</time>
      </trkpt>
      <trkpt lat="43.52212" lon="6.90932">
        <ele>27.1</ele>
        <time>2022-11-20T08:35:43Z</time>
      </trkpt>
      <trkpt lat="43.52203" lon="6.90933">
        <ele>27.3</ele>
        <time>2022-11-20T08:35:51Z</time>
      </trkpt>
      <trkpt lat="43.52192" lon="6.90932">
        <ele>27.4</ele>
        <time>2022-11-20T08:35:58Z</time>
      </trkpt>
      <trkpt lat="43.52183" lon="6.90931">
        <ele>27.2</ele>
        <time>2022-11-20T08:36:07Z</time>
      </trkpt>
      <trkpt lat="43.52174" lon="6.90927">
        <ele>27.4</ele>
        <time>2022-11-20T08:36:14Z</time>
      </trkpt>
      <trkpt lat="43.52166" lon="6.90923">
        <ele>27.7</ele>
        <time>2022-11-20T08:36:25Z</time>
      </trkpt>
      <trkpt lat="43.52156" lon="6.90921">
        <ele>27.5</ele>
        <time>2022-11-20T08:36:33Z</time>
      </trkpt>
      <trkpt lat="43.52147" lon="6.9092">
        <ele>27.5</ele>
        <time>2022-11-20T08:36:39Z</time>
      </trkpt>
      <trkpt lat="43.52138" lon="6.90919">
        <ele>27.3</ele>
        <time>2022-11-20T08:36:44Z</time>
      </trkpt>
      <trkpt lat="43.52129" lon="6.9092">
        <ele>27.4</ele>
        <time>2022-11-20T08:36:51Z</time>
      </trkpt>
      <trkpt lat="43.52119" lon="6.90919">
        <ele>27.8</ele>
        <time>2022-11-20T08:36:58Z</time>
      </trkpt>
      <trkpt lat="43.52109" lon="6.9092">
        <ele>27.8</ele>
        <time>2022-11-20T08:37:05Z</time>
      </trkpt>
      <trkpt lat="43.52099" lon="6.9092">
        <ele>27.5</ele>
        <time>2022-11-20T08:37:13Z</time>
      </trkpt>
      <trkpt lat="43.5209" lon="6.90922">
        <ele>27.6</ele>
        <time>2022-11-20T08:37:20Z</time>
      </trkpt>
      <trkpt lat="43.52081" lon="6.90923">
        <ele>27.7</ele>
        <time>2022-11-20T08:37:26Z</time>
      </trkpt>
      <trkpt lat="43.52071" lon="6.90925">
        <ele>27.7</ele>
        <time>2022-11-20T08:37:33Z</time>
      </trkpt>
      <trkpt lat="43.52062" lon="6.90927">
        <ele>27.5</ele>
        <time>2022-11-20T08:37:40Z</time>
      </trkpt>
      <trkpt lat="43.52052" lon="6.90931">
        <ele>27.4</ele>
        <time>2022-11-20T08:37:47Z</time>
      </trkpt>
      <trkpt lat="43.52044" lon="6.90933">
        <ele>27.5</ele>
        <time>2022-11-20T08:37:55Z</time>
      </trkpt>
      <trkpt lat="43.52034" lon="6.90934">
        <ele>27.4</ele>
        <time>2022-11-20T08:38:04Z</time>
      </trkpt>
      <trkpt lat="43.52024" lon="6.90933">
        <ele>27.8</ele>
        <time>2022-11-20T08:38:11Z</time>
      </trkpt>
      <trkpt lat="43.52015" lon="6.90931">
        <ele>28.3</ele>
        <time>2022-11-20T08:38:19Z</time>
      </trkpt>
      <trkpt lat="43.52006" lon="6.90931">
        <ele>28.1</ele>
        <time>2022-11-20T08:38:27Z</time>
      </trkpt>
      <trkpt lat="43.51996" lon="6.90928">
        <ele>28.2</ele>
        <time>2022-11-20T08:38:35Z</time>
      </trkpt>
      <trkpt lat="43.51988" lon="6.90924">
        <ele>28</ele>
        <time>2022-11-20T08:38:43Z</time>
      </trkpt>
      <trkpt lat="43.5198" lon="6.90916">
        <ele>28.2</ele>
        <time>2022-11-20T08:38:51Z</time>
      </trkpt>
      <trkpt lat="43.51973" lon="6.90905">
        <ele>28</ele>
        <time>2022-11-20T08:39:00Z</time>
      </trkpt>
      <trkpt lat="43.51966" lon="6.90897">
        <ele>28</ele>
        <time>2022-11-20T08:39:08Z</time>
      </trkpt>
      <trkpt lat="43.51958" lon="6.90889">
        <ele>28</ele>
        <time>2022-11-20T08:39:15Z</time>
      </trkpt>
      <trkpt lat="43.51951" lon="6.90881">
        <ele>28.2</ele>
        <time>2022-11-20T08:39:22Z</time>
      </trkpt>
      <trkpt lat="43.51944" lon="6.90872">
        <ele>28.1</ele>
        <time>2022-11-20T08:39:29Z</time>
      </trkpt>
      <trkpt lat="43.51937" lon="6.90864">
        <ele>28.8</ele>
        <time>2022-11-20T08:39:36Z</time>
      </trkpt>
      <trkpt lat="43.51929" lon="6.90855">
        <ele>29.2</ele>
        <time>2022-11-20T08:39:44Z</time>
      </trkpt>
      <trkpt lat="43.51921" lon="6.90848">
        <ele>29.6</ele>
        <time>2022-11-20T08:39:51Z</time>
      </trkpt>
      <trkpt lat="43.51914" lon="6.90839">
        <ele>30.1</ele>
        <time>2022-11-20T08:40:00Z</time>
      </trkpt>
      <trkpt lat="43.51904" lon="6.90834">
        <ele>30.3</ele>
        <time>2022-11-20T08:40:06Z</time>
      </trkpt>
      <trkpt lat="43.51895" lon="6.90828">
        <ele>30</ele>
        <time>2022-11-20T08:40:13Z</time>
      </trkpt>
      <trkpt lat="43.51888" lon="6.9082">
        <ele>30.1</ele>
        <time>2022-11-20T08:40:21Z</time>
      </trkpt>
      <trkpt lat="43.51881" lon="6.90812">
        <ele>30.2</ele>
        <time>2022-11-20T08:40:30Z</time>
      </trkpt>
      <trkpt lat="43.51873" lon="6.90803">
        <ele>30.4</ele>
        <time>2022-11-20T08:40:38Z</time>
      </trkpt>
      <trkpt lat="43.51866" lon="6.90795">
        <ele>30.5</ele>
        <time>2022-11-20T08:40:46Z</time>
      </trkpt>
      <trkpt lat="43.51858" lon="6.90787">
        <ele>30.7</ele>
        <time>2022-11-20T08:40:54Z</time>
      </trkpt>
      <trkpt lat="43.5185" lon="6.9078">
        <ele>31</ele>
        <time>2022-11-20T08:41:05Z</time>
      </trkpt>
      <trkpt lat="43.51841" lon="6.90773">
        <ele>31.3</ele>
        <time>2022-11-20T08:41:15Z</time>
      </trkpt>
      <trkpt lat="43.51833" lon="6.90767">
        <ele>30.9</ele>
        <time>2022-11-20T08:42:09Z</time>
      </trkpt>
      <trkpt lat="43.51824" lon="6.9076">
        <ele>30.9</ele>
        <time>2022-11-20T08:42:18Z</time>
      </trkpt>
      <trkpt lat="43.51815" lon="6.90756">
        <ele>30.9</ele>
        <time>2022-11-20T08:42:29Z</time>
      </trkpt>
      <trkpt lat="43.51806" lon="6.90753">
        <ele>31.2</ele>
        <time>2022-11-20T08:42:43Z</time>
      </trkpt>
      <trkpt lat="43.51797" lon="6.90752">
        <ele>31.4</ele>
        <time>2022-11-20T08:42:56Z</time>
      </trkpt>
      <trkpt lat="43.51788" lon="6.90753">
        <ele>31.7</ele>
        <time>2022-11-20T08:43:05Z</time>
      </trkpt>
      <trkpt lat="43.51778" lon="6.90753">
        <ele>32</ele>
        <time>2022-11-20T08:43:14Z</time>
      </trkpt>
      <trkpt lat="43.51769" lon="6.90755">
        <ele>32.2</ele>
        <time>2022-11-20T08:43:21Z</time>
      </trkpt>
      <trkpt lat="43.51761" lon="6.90759">
        <ele>32.3</ele>
        <time>2022-11-20T08:43:29Z</time>
      </trkpt>
      <trkpt lat="43.51755" lon="6.90769">
        <ele>33</ele>
        <time>2022-11-20T08:43:38Z</time>
      </trkpt>
      <trkpt lat="43.5175" lon="6.90781">
        <ele>34.7</ele>
        <time>2022-11-20T08:44:05Z</time>
      </trkpt>
      <trkpt lat="43.51744" lon="6.90791">
        <ele>35.7</ele>
        <time>2022-11-20T08:44:14Z</time>
      </trkpt>
      <trkpt lat="43.51736" lon="6.90798">
        <ele>36</ele>
        <time>2022-11-20T08:44:20Z</time>
      </trkpt>
      <trkpt lat="43.51727" lon="6.90804">
        <ele>36.8</ele>
        <time>2022-11-20T08:44:28Z</time>
      </trkpt>
      <trkpt lat="43.51718" lon="6.90808">
        <ele>37.8</ele>
        <time>2022-11-20T08:44:36Z</time>
      </trkpt>
      <trkpt lat="43.5171" lon="6.90803">
        <ele>38.3</ele>
        <time>2022-11-20T08:44:44Z</time>
      </trkpt>
      <trkpt lat="43.51705" lon="6.90793">
        <ele>38.6</ele>
        <time>2022-11-20T08:44:53Z</time>
      </trkpt>
      <trkpt lat="43.51698" lon="6.90783">
        <ele>39.2</ele>
        <time>2022-11-20T08:45:01Z</time>
      </trkpt>
      <trkpt lat="43.5169" lon="6.90775">
        <ele>39.7</ele>
        <time>2022-11-20T08:45:09Z</time>
      </trkpt>
      <trkpt lat="43.5168" lon="6.90771">
        <ele>40.1</ele>
        <time>2022-11-20T08:45:15Z</time>
      </trkpt>
      <trkpt lat="43.51672" lon="6.90767">
        <ele>40.4</ele>
        <time>2022-11-20T08:45:21Z</time>
      </trkpt>
      <trkpt lat="43.51662" lon="6.90761">
        <ele>40.8</ele>
        <time>2022-11-20T08:45:28Z</time>
      </trkpt>
      <trkpt lat="43.51654" lon="6.90756">
        <ele>41.1</ele>
        <time>2022-11-20T08:45:35Z</time>
      </trkpt>
      <trkpt lat="43.51646" lon="6.90748">
        <ele>41</ele>
        <time>2022-11-20T08:45:43Z</time>
      </trkpt>
      <trkpt lat="43.51637" lon="6.90742">
        <ele>41.3</ele>
        <time>2022-11-20T08:45:50Z</time>
      </trkpt>
      <trkpt lat="43.51628" lon="6.90738">
        <ele>41.5</ele>
        <time>2022-11-20T08:45:58Z</time>
      </trkpt>
      <trkpt lat="43.51619" lon="6.90734">
        <ele>41.4</ele>
        <time>2022-11-20T08:46:06Z</time>
      </trkpt>
      <trkpt lat="43.51609" lon="6.90728">
        <ele>41.4</ele>
        <time>2022-11-20T08:46:14Z</time>
      </trkpt>
      <trkpt lat="43.51602" lon="6.90721">
        <ele>41.7</ele>
        <time>2022-11-20T08:46:23Z</time>
      </trkpt>
      <trkpt lat="43.51594" lon="6.90713">
        <ele>41.7</ele>
        <time>2022-11-20T08:46:30Z</time>
      </trkpt>
      <trkpt lat="43.51584" lon="6.90707">
        <ele>42.1</ele>
        <time>2022-11-20T08:46:37Z</time>
      </trkpt>
      <trkpt lat="43.51575" lon="6.907">
        <ele>42.2</ele>
        <time>2022-11-20T08:46:44Z</time>
      </trkpt>
      <trkpt lat="43.51568" lon="6.90692">
        <ele>42.3</ele>
        <time>2022-11-20T08:46:51Z</time>
      </trkpt>
      <trkpt lat="43.51558" lon="6.90691">
        <ele>42.5</ele>
        <time>2022-11-20T08:47:09Z</time>
      </trkpt>
      <trkpt lat="43.51559" lon="6.90677">
        <ele>41.8</ele>
        <time>2022-11-20T08:50:12Z</time>
      </trkpt>
      <trkpt lat="43.51554" lon="6.90667">
        <ele>42</ele>
        <time>2022-11-20T08:50:19Z</time>
      </trkpt>
      <trkpt lat="43.51551" lon="6.90655">
        <ele>42.3</ele>
        <time>2022-11-20T08:50:28Z</time>
      </trkpt>
      <trkpt lat="43.51547" lon="6.90642">
        <ele>42.5</ele>
        <time>2022-11-20T08:50:37Z</time>
      </trkpt>
      <trkpt lat="43.5154" lon="6.90632">
        <ele>42.7</ele>
        <time>2022-11-20T08:50:45Z</time>
      </trkpt>
      <trkpt lat="43.51536" lon="6.90619">
        <ele>43</ele>
        <time>2022-11-20T08:50:54Z</time>
      </trkpt>
      <trkpt lat="43.51529" lon="6.9061">
        <ele>43.3</ele>
        <time>2022-11-20T08:51:02Z</time>
      </trkpt>
      <trkpt lat="43.51524" lon="6.906">
        <ele>43.6</ele>
        <time>2022-11-20T08:51:10Z</time>
      </trkpt>
      <trkpt lat="43.51517" lon="6.9059">
        <ele>44.5</ele>
        <time>2022-11-20T08:51:18Z</time>
      </trkpt>
      <trkpt lat="43.51509" lon="6.90582">
        <ele>44.9</ele>
        <time>2022-11-20T08:51:28Z</time>
      </trkpt>
      <trkpt lat="43.51503" lon="6.90572">
        <ele>45.4</ele>
        <time>2022-11-20T08:51:38Z</time>
      </trkpt>
      <trkpt lat="43.51497" lon="6.90561">
        <ele>45.3</ele>
        <time>2022-11-20T08:51:46Z</time>
      </trkpt>
      <trkpt lat="43.51493" lon="6.90551">
        <ele>45.3</ele>
        <time>2022-11-20T08:51:53Z</time>
      </trkpt>
      <trkpt lat="43.51488" lon="6.90539">
        <ele>45.6</ele>
        <time>2022-11-20T08:52:01Z</time>
      </trkpt>
      <trkpt lat="43.51483" lon="6.90528">
        <ele>45.6</ele>
        <time>2022-11-20T08:52:09Z</time>
      </trkpt>
      <trkpt lat="43.51478" lon="6.90515">
        <ele>45.9</ele>
        <time>2022-11-20T08:52:15Z</time>
      </trkpt>
      <trkpt lat="43.51473" lon="6.90505">
        <ele>45.7</ele>
        <time>2022-11-20T08:52:23Z</time>
      </trkpt>
      <trkpt lat="43.51467" lon="6.90493">
        <ele>45.6</ele>
        <time>2022-11-20T08:52:31Z</time>
      </trkpt>
      <trkpt lat="43.51463" lon="6.90482">
        <ele>46</ele>
        <time>2022-11-20T08:52:39Z</time>
      </trkpt>
      <trkpt lat="43.51454" lon="6.90474">
        <ele>46.4</ele>
        <time>2022-11-20T08:52:47Z</time>
      </trkpt>
      <trkpt lat="43.51449" lon="6.90463">
        <ele>46.8</ele>
        <time>2022-11-20T08:52:55Z</time>
      </trkpt>
      <trkpt lat="43.51442" lon="6.90453">
        <ele>47.4</ele>
        <time>2022-11-20T08:53:03Z</time>
      </trkpt>
      <trkpt lat="43.51437" lon="6.90442">
        <ele>48</ele>
        <time>2022-11-20T08:53:11Z</time>
      </trkpt>
      <trkpt lat="43.51438" lon="6.90429">
        <ele>49</ele>
        <time>2022-11-20T08:53:20Z</time>
      </trkpt>
      <trkpt lat="43.51437" lon="6.90416">
        <ele>49.4</ele>
        <time>2022-11-20T08:53:29Z</time>
      </trkpt>
      <trkpt lat="43.51434" lon="6.90402">
        <ele>49.6</ele>
        <time>2022-11-20T08:53:36Z</time>
      </trkpt>
      <trkpt lat="43.5143" lon="6.90389">
        <ele>49.6</ele>
        <time>2022-11-20T08:53:43Z</time>
      </trkpt>
      <trkpt lat="43.51426" lon="6.90376">
        <ele>49.9</ele>
        <time>2022-11-20T08:53:52Z</time>
      </trkpt>
      <trkpt lat="43.51423" lon="6.90363">
        <ele>49.9</ele>
        <time>2022-11-20T08:54:00Z</time>
      </trkpt>
      <trkpt lat="43.51419" lon="6.9035">
        <ele>49.7</ele>
        <time>2022-11-20T08:54:09Z</time>
      </trkpt>
      <trkpt lat="43.51414" lon="6.9034">
        <ele>49.8</ele>
        <time>2022-11-20T08:54:17Z</time>
      </trkpt>
      <trkpt lat="43.51408" lon="6.90329">
        <ele>50.2</ele>
        <time>2022-11-20T08:54:25Z</time>
      </trkpt>
      <trkpt lat="43.51401" lon="6.9032">
        <ele>50.4</ele>
        <time>2022-11-20T08:54:34Z</time>
      </trkpt>
      <trkpt lat="43.51394" lon="6.90311">
        <ele>50.5</ele>
        <time>2022-11-20T08:54:42Z</time>
      </trkpt>
      <trkpt lat="43.51386" lon="6.90302">
        <ele>50.7</ele>
        <time>2022-11-20T08:54:51Z</time>
      </trkpt>
      <trkpt lat="43.51379" lon="6.90294">
        <ele>50.8</ele>
        <time>2022-11-20T08:54:58Z</time>
      </trkpt>
      <trkpt lat="43.51372" lon="6.90284">
        <ele>51.5</ele>
        <time>2022-11-20T08:55:09Z</time>
      </trkpt>
      <trkpt lat="43.51367" lon="6.90273">
        <ele>52.2</ele>
        <time>2022-11-20T08:55:19Z</time>
      </trkpt>
      <trkpt lat="43.5136" lon="6.90265">
        <ele>53.3</ele>
        <time>2022-11-20T08:55:29Z</time>
      </trkpt>
      <trkpt lat="43.51357" lon="6.90253">
        <ele>54.2</ele>
        <time>2022-11-20T08:55:38Z</time>
      </trkpt>
      <trkpt lat="43.51353" lon="6.9024">
        <ele>54.8</ele>
        <time>2022-11-20T08:55:48Z</time>
      </trkpt>
      <trkpt lat="43.51355" lon="6.90227">
        <ele>55.6</ele>
        <time>2022-11-20T08:55:59Z</time>
      </trkpt>
      <trkpt lat="43.51355" lon="6.90213">
        <ele>56.3</ele>
        <time>2022-11-20T08:56:09Z</time>
      </trkpt>
      <trkpt lat="43.51354" lon="6.902">
        <ele>56.5</ele>
        <time>2022-11-20T08:56:22Z</time>
      </trkpt>
      <trkpt lat="43.51348" lon="6.9019">
        <ele>57</ele>
        <time>2022-11-20T08:56:36Z</time>
      </trkpt>
      <trkpt lat="43.5134" lon="6.90181">
        <ele>58.1</ele>
        <time>2022-11-20T08:56:45Z</time>
      </trkpt>
      <trkpt lat="43.51334" lon="6.90172">
        <ele>59.5</ele>
        <time>2022-11-20T08:56:55Z</time>
      </trkpt>
      <trkpt lat="43.51329" lon="6.90161">
        <ele>61</ele>
        <time>2022-11-20T08:57:07Z</time>
      </trkpt>
      <trkpt lat="43.51323" lon="6.90151">
        <ele>63.1</ele>
        <time>2022-11-20T08:57:18Z</time>
      </trkpt>
      <trkpt lat="43.51314" lon="6.90144">
        <ele>65.6</ele>
        <time>2022-11-20T08:57:31Z</time>
      </trkpt>
      <trkpt lat="43.51306" lon="6.90142">
        <ele>67.6</ele>
        <time>2022-11-20T08:57:42Z</time>
      </trkpt>
      <trkpt lat="43.51297" lon="6.90136">
        <ele>70.9</ele>
        <time>2022-11-20T08:57:57Z</time>
      </trkpt>
      <trkpt lat="43.51291" lon="6.90126">
        <ele>72.5</ele>
        <time>2022-11-20T08:58:09Z</time>
      </trkpt>
      <trkpt lat="43.51291" lon="6.90113">
        <ele>74.5</ele>
        <time>2022-11-20T08:58:22Z</time>
      </trkpt>
      <trkpt lat="43.51288" lon="6.90101">
        <ele>75.3</ele>
        <time>2022-11-20T08:58:29Z</time>
      </trkpt>
      <trkpt lat="43.51287" lon="6.90088">
        <ele>76.3</ele>
        <time>2022-11-20T08:58:38Z</time>
      </trkpt>
      <trkpt lat="43.51291" lon="6.90076">
        <ele>78</ele>
        <time>2022-11-20T08:58:51Z</time>
      </trkpt>
      <trkpt lat="43.51297" lon="6.90067">
        <ele>79.7</ele>
        <time>2022-11-20T08:59:03Z</time>
      </trkpt>
      <trkpt lat="43.513" lon="6.90055">
        <ele>80.5</ele>
        <time>2022-11-20T08:59:13Z</time>
      </trkpt>
      <trkpt lat="43.51293" lon="6.90047">
        <ele>81.8</ele>
        <time>2022-11-20T09:01:02Z</time>
      </trkpt>
      <trkpt lat="43.51285" lon="6.90041">
        <ele>81.8</ele>
        <time>2022-11-20T09:01:06Z</time>
      </trkpt>
      <trkpt lat="43.51275" lon="6.90039">
        <ele>83.8</ele>
        <time>2022-11-20T09:01:19Z</time>
      </trkpt>
      <trkpt lat="43.51265" lon="6.90036">
        <ele>84.8</ele>
        <time>2022-11-20T09:01:28Z</time>
      </trkpt>
      <trkpt lat="43.51255" lon="6.90035">
        <ele>85.5</ele>
        <time>2022-11-20T09:01:41Z</time>
      </trkpt>
      <trkpt lat="43.51246" lon="6.90037">
        <ele>85.1</ele>
        <time>2022-11-20T09:01:50Z</time>
      </trkpt>
      <trkpt lat="43.51238" lon="6.9003">
        <ele>84.6</ele>
        <time>2022-11-20T09:01:57Z</time>
      </trkpt>
      <trkpt lat="43.51228" lon="6.90028">
        <ele>84</ele>
        <time>2022-11-20T09:02:06Z</time>
      </trkpt>
      <trkpt lat="43.51218" lon="6.90027">
        <ele>83.7</ele>
        <time>2022-11-20T09:02:17Z</time>
      </trkpt>
      <trkpt lat="43.51209" lon="6.90027">
        <ele>82.3</ele>
        <time>2022-11-20T09:02:30Z</time>
      </trkpt>
      <trkpt lat="43.51201" lon="6.90022">
        <ele>81.4</ele>
        <time>2022-11-20T09:02:39Z</time>
      </trkpt>
      <trkpt lat="43.51192" lon="6.90019">
        <ele>80.3</ele>
        <time>2022-11-20T09:02:51Z</time>
      </trkpt>
      <trkpt lat="43.51184" lon="6.90012">
        <ele>78.9</ele>
        <time>2022-11-20T09:03:00Z</time>
      </trkpt>
      <trkpt lat="43.51176" lon="6.90005">
        <ele>77.5</ele>
        <time>2022-11-20T09:03:09Z</time>
      </trkpt>
      <trkpt lat="43.51171" lon="6.89994">
        <ele>76.8</ele>
        <time>2022-11-20T09:03:19Z</time>
      </trkpt>
      <trkpt lat="43.51164" lon="6.89985">
        <ele>76.7</ele>
        <time>2022-11-20T09:03:26Z</time>
      </trkpt>
      <trkpt lat="43.51156" lon="6.89976">
        <ele>76.8</ele>
        <time>2022-11-20T09:03:34Z</time>
      </trkpt>
      <trkpt lat="43.5115" lon="6.89968">
        <ele>77.2</ele>
        <time>2022-11-20T09:03:42Z</time>
      </trkpt>
      <trkpt lat="43.51143" lon="6.89959">
        <ele>77.5</ele>
        <time>2022-11-20T09:03:50Z</time>
      </trkpt>
      <trkpt lat="43.51135" lon="6.89951">
        <ele>77.8</ele>
        <time>2022-11-20T09:04:01Z</time>
      </trkpt>
      <trkpt lat="43.51127" lon="6.89944">
        <ele>77.8</ele>
        <time>2022-11-20T09:04:11Z</time>
      </trkpt>
      <trkpt lat="43.51118" lon="6.89941">
        <ele>78.1</ele>
        <time>2022-11-20T09:04:20Z</time>
      </trkpt>
      <trkpt lat="43.5111" lon="6.89934">
        <ele>78.3</ele>
        <time>2022-11-20T09:04:28Z</time>
      </trkpt>
      <trkpt lat="43.51104" lon="6.89925">
        <ele>79.7</ele>
        <time>2022-11-20T09:04:37Z</time>
      </trkpt>
      <trkpt lat="43.51095" lon="6.89923">
        <ele>80.9</ele>
        <time>2022-11-20T09:04:46Z</time>
      </trkpt>
      <trkpt lat="43.51087" lon="6.89915">
        <ele>82.6</ele>
        <time>2022-11-20T09:04:59Z</time>
      </trkpt>
      <trkpt lat="43.51078" lon="6.89919">
        <ele>83.9</ele>
        <time>2022-11-20T09:05:08Z</time>
      </trkpt>
      <trkpt lat="43.51078" lon="6.89932">
        <ele>85.2</ele>
        <time>2022-11-20T09:05:23Z</time>
      </trkpt>
      <trkpt lat="43.51077" lon="6.89945">
        <ele>86.5</ele>
        <time>2022-11-20T09:05:33Z</time>
      </trkpt>
      <trkpt lat="43.51075" lon="6.89957">
        <ele>88.7</ele>
        <time>2022-11-20T09:05:47Z</time>
      </trkpt>
      <trkpt lat="43.51065" lon="6.89955">
        <ele>89.5</ele>
        <time>2022-11-20T09:07:16Z</time>
      </trkpt>
      <trkpt lat="43.51061" lon="6.89943">
        <ele>90.3</ele>
        <time>2022-11-20T09:07:24Z</time>
      </trkpt>
      <trkpt lat="43.51053" lon="6.89936">
        <ele>91</ele>
        <time>2022-11-20T09:07:33Z</time>
      </trkpt>
      <trkpt lat="43.51046" lon="6.89928">
        <ele>91.8</ele>
        <time>2022-11-20T09:07:43Z</time>
      </trkpt>
      <trkpt lat="43.51039" lon="6.89919">
        <ele>92.5</ele>
        <time>2022-11-20T09:07:54Z</time>
      </trkpt>
      <trkpt lat="43.51033" lon="6.89909">
        <ele>92.9</ele>
        <time>2022-11-20T09:08:04Z</time>
      </trkpt>
      <trkpt lat="43.5103" lon="6.89895">
        <ele>93.9</ele>
        <time>2022-11-20T09:08:18Z</time>
      </trkpt>
      <trkpt lat="43.51024" lon="6.89884">
        <ele>95.3</ele>
        <time>2022-11-20T09:08:35Z</time>
      </trkpt>
      <trkpt lat="43.51019" lon="6.89874">
        <ele>97</ele>
        <time>2022-11-20T09:08:49Z</time>
      </trkpt>
      <trkpt lat="43.51011" lon="6.89866">
        <ele>98.4</ele>
        <time>2022-11-20T09:08:59Z</time>
      </trkpt>
      <trkpt lat="43.51003" lon="6.89857">
        <ele>99.5</ele>
        <time>2022-11-20T09:09:09Z</time>
      </trkpt>
      <trkpt lat="43.50996" lon="6.89848">
        <ele>101.1</ele>
        <time>2022-11-20T09:09:20Z</time>
      </trkpt>
      <trkpt lat="43.5099" lon="6.89837">
        <ele>102.9</ele>
        <time>2022-11-20T09:09:30Z</time>
      </trkpt>
      <trkpt lat="43.50988" lon="6.89824">
        <ele>104.4</ele>
        <time>2022-11-20T09:09:40Z</time>
      </trkpt>
      <trkpt lat="43.50982" lon="6.89814">
        <ele>106.6</ele>
        <time>2022-11-20T09:09:50Z</time>
      </trkpt>
      <trkpt lat="43.50978" lon="6.89803">
        <ele>108.8</ele>
        <time>2022-11-20T09:10:01Z</time>
      </trkpt>
      <trkpt lat="43.50973" lon="6.89792">
        <ele>110.1</ele>
        <time>2022-11-20T09:10:12Z</time>
      </trkpt>
      <trkpt lat="43.50969" lon="6.89781">
        <ele>110.8</ele>
        <time>2022-11-20T09:10:21Z</time>
      </trkpt>
      <trkpt lat="43.50965" lon="6.89768">
        <ele>111.1</ele>
        <time>2022-11-20T09:10:29Z</time>
      </trkpt>
      <trkpt lat="43.50962" lon="6.89756">
        <ele>111.6</ele>
        <time>2022-11-20T09:10:38Z</time>
      </trkpt>
      <trkpt lat="43.50955" lon="6.89747">
        <ele>112.7</ele>
        <time>2022-11-20T09:10:51Z</time>
      </trkpt>
      <trkpt lat="43.50948" lon="6.89738">
        <ele>113.8</ele>
        <time>2022-11-20T09:11:01Z</time>
      </trkpt>
      <trkpt lat="43.50941" lon="6.8973">
        <ele>114.6</ele>
        <time>2022-11-20T09:11:07Z</time>
      </trkpt>
      <trkpt lat="43.50936" lon="6.89719">
        <ele>115.9</ele>
        <time>2022-11-20T09:11:16Z</time>
      </trkpt>
      <trkpt lat="43.50932" lon="6.89708">
        <ele>117.1</ele>
        <time>2022-11-20T09:11:25Z</time>
      </trkpt>
      <trkpt lat="43.50925" lon="6.89699">
        <ele>118.7</ele>
        <time>2022-11-20T09:11:37Z</time>
      </trkpt>
      <trkpt lat="43.50919" lon="6.89689">
        <ele>120.5</ele>
        <time>2022-11-20T09:11:47Z</time>
      </trkpt>
      <trkpt lat="43.50915" lon="6.89677">
        <ele>122.4</ele>
        <time>2022-11-20T09:12:01Z</time>
      </trkpt>
      <trkpt lat="43.50906" lon="6.89671">
        <ele>123.1</ele>
        <time>2022-11-20T09:12:17Z</time>
      </trkpt>
      <trkpt lat="43.50895" lon="6.89668">
        <ele>124.4</ele>
        <time>2022-11-20T09:12:28Z</time>
      </trkpt>
      <trkpt lat="43.50886" lon="6.89664">
        <ele>125.4</ele>
        <time>2022-11-20T09:12:41Z</time>
      </trkpt>
      <trkpt lat="43.50877" lon="6.89663">
        <ele>126</ele>
        <time>2022-11-20T09:12:50Z</time>
      </trkpt>
      <trkpt lat="43.50868" lon="6.89662">
        <ele>126.6</ele>
        <time>2022-11-20T09:13:02Z</time>
      </trkpt>
      <trkpt lat="43.50859" lon="6.89657">
        <ele>128.9</ele>
        <time>2022-11-20T09:13:16Z</time>
      </trkpt>
      <trkpt lat="43.50855" lon="6.89646">
        <ele>133.9</ele>
        <time>2022-11-20T09:13:50Z</time>
      </trkpt>
      <trkpt lat="43.50849" lon="6.89635">
        <ele>138.5</ele>
        <time>2022-11-20T09:14:15Z</time>
      </trkpt>
      <trkpt lat="43.50841" lon="6.89641">
        <ele>139</ele>
        <time>2022-11-20T09:14:23Z</time>
      </trkpt>
      <trkpt lat="43.50835" lon="6.8963">
        <ele>140.5</ele>
        <time>2022-11-20T09:14:39Z</time>
      </trkpt>
      <trkpt lat="43.50829" lon="6.8962">
        <ele>143</ele>
        <time>2022-11-20T09:15:36Z</time>
      </trkpt>
      <trkpt lat="43.50821" lon="6.89614">
        <ele>148</ele>
        <time>2022-11-20T09:18:32Z</time>
      </trkpt>
      <trkpt lat="43.50827" lon="6.89623">
        <ele>148.3</ele>
        <time>2022-11-20T09:19:26Z</time>
      </trkpt>
      <trkpt lat="43.50819" lon="6.89626">
        <ele>144.5</ele>
        <time>2022-11-20T09:22:18Z</time>
      </trkpt>
      <trkpt lat="43.50811" lon="6.89634">
        <ele>143.8</ele>
        <time>2022-11-20T09:22:26Z</time>
      </trkpt>
      <trkpt lat="43.5082" lon="6.89638">
        <ele>142</ele>
        <time>2022-11-20T09:22:48Z</time>
      </trkpt>
      <trkpt lat="43.5083" lon="6.8964">
        <ele>139.8</ele>
        <time>2022-11-20T09:23:09Z</time>
      </trkpt>
      <trkpt lat="43.50839" lon="6.89643">
        <ele>138.8</ele>
        <time>2022-11-20T09:23:18Z</time>
      </trkpt>
      <trkpt lat="43.50846" lon="6.89651">
        <ele>134.5</ele>
        <time>2022-11-20T09:23:31Z</time>
      </trkpt>
      <trkpt lat="43.50852" lon="6.8966">
        <ele>129.5</ele>
        <time>2022-11-20T09:23:45Z</time>
      </trkpt>
      <trkpt lat="43.50861" lon="6.89666">
        <ele>127.2</ele>
        <time>2022-11-20T09:23:56Z</time>
      </trkpt>
      <trkpt lat="43.5087" lon="6.89667">
        <ele>125.5</ele>
        <time>2022-11-20T09:24:03Z</time>
      </trkpt>
      <trkpt lat="43.50879" lon="6.89673">
        <ele>124.3</ele>
        <time>2022-11-20T09:24:16Z</time>
      </trkpt>
      <trkpt lat="43.50888" lon="6.89673">
        <ele>123.5</ele>
        <time>2022-11-20T09:24:23Z</time>
      </trkpt>
      <trkpt lat="43.50897" lon="6.89674">
        <ele>122.8</ele>
        <time>2022-11-20T09:24:34Z</time>
      </trkpt>
      <trkpt lat="43.50906" lon="6.89681">
        <ele>121.7</ele>
        <time>2022-11-20T09:24:50Z</time>
      </trkpt>
      <trkpt lat="43.50913" lon="6.8969">
        <ele>120.3</ele>
        <time>2022-11-20T09:25:10Z</time>
      </trkpt>
      <trkpt lat="43.50919" lon="6.89699">
        <ele>118.5</ele>
        <time>2022-11-20T09:25:23Z</time>
      </trkpt>
      <trkpt lat="43.50926" lon="6.89709">
        <ele>116.4</ele>
        <time>2022-11-20T09:25:38Z</time>
      </trkpt>
      <trkpt lat="43.50933" lon="6.89716">
        <ele>115.4</ele>
        <time>2022-11-20T09:25:48Z</time>
      </trkpt>
      <trkpt lat="43.50939" lon="6.89726">
        <ele>114</ele>
        <time>2022-11-20T09:25:58Z</time>
      </trkpt>
      <trkpt lat="43.50946" lon="6.89734">
        <ele>112.8</ele>
        <time>2022-11-20T09:26:06Z</time>
      </trkpt>
      <trkpt lat="43.50952" lon="6.89744">
        <ele>112</ele>
        <time>2022-11-20T09:26:11Z</time>
      </trkpt>
      <trkpt lat="43.50959" lon="6.89755">
        <ele>111</ele>
        <time>2022-11-20T09:26:17Z</time>
      </trkpt>
      <trkpt lat="43.50965" lon="6.89765">
        <ele>110</ele>
        <time>2022-11-20T09:26:27Z</time>
      </trkpt>
      <trkpt lat="43.50969" lon="6.89776">
        <ele>109.4</ele>
        <time>2022-11-20T09:26:35Z</time>
      </trkpt>
      <trkpt lat="43.50973" lon="6.89788">
        <ele>108.7</ele>
        <time>2022-11-20T09:26:43Z</time>
      </trkpt>
      <trkpt lat="43.50976" lon="6.898">
        <ele>107.7</ele>
        <time>2022-11-20T09:26:51Z</time>
      </trkpt>
      <trkpt lat="43.50981" lon="6.8981">
        <ele>106.4</ele>
        <time>2022-11-20T09:26:59Z</time>
      </trkpt>
      <trkpt lat="43.50985" lon="6.89821">
        <ele>104.2</ele>
        <time>2022-11-20T09:27:09Z</time>
      </trkpt>
      <trkpt lat="43.50987" lon="6.89834">
        <ele>101.9</ele>
        <time>2022-11-20T09:27:19Z</time>
      </trkpt>
      <trkpt lat="43.50991" lon="6.89845">
        <ele>100.5</ele>
        <time>2022-11-20T09:27:27Z</time>
      </trkpt>
      <trkpt lat="43.50997" lon="6.89855">
        <ele>98.9</ele>
        <time>2022-11-20T09:27:35Z</time>
      </trkpt>
      <trkpt lat="43.51004" lon="6.89865">
        <ele>98</ele>
        <time>2022-11-20T09:27:43Z</time>
      </trkpt>
      <trkpt lat="43.51012" lon="6.89872">
        <ele>96.6</ele>
        <time>2022-11-20T09:27:53Z</time>
      </trkpt>
      <trkpt lat="43.51018" lon="6.89882">
        <ele>95.1</ele>
        <time>2022-11-20T09:28:02Z</time>
      </trkpt>
      <trkpt lat="43.51023" lon="6.89893">
        <ele>93.8</ele>
        <time>2022-11-20T09:28:12Z</time>
      </trkpt>
      <trkpt lat="43.5103" lon="6.89901">
        <ele>92.5</ele>
        <time>2022-11-20T09:28:21Z</time>
      </trkpt>
      <trkpt lat="43.51034" lon="6.89913">
        <ele>91.4</ele>
        <time>2022-11-20T09:28:31Z</time>
      </trkpt>
      <trkpt lat="43.51041" lon="6.89922">
        <ele>90.5</ele>
        <time>2022-11-20T09:28:46Z</time>
      </trkpt>
      <trkpt lat="43.51048" lon="6.8993">
        <ele>90</ele>
        <time>2022-11-20T09:28:57Z</time>
      </trkpt>
      <trkpt lat="43.51056" lon="6.89938">
        <ele>89.3</ele>
        <time>2022-11-20T09:29:08Z</time>
      </trkpt>
      <trkpt lat="43.5106" lon="6.89949">
        <ele>88.8</ele>
        <time>2022-11-20T09:29:22Z</time>
      </trkpt>
      <trkpt lat="43.51065" lon="6.89961">
        <ele>88.3</ele>
        <time>2022-11-20T09:30:06Z</time>
      </trkpt>
      <trkpt lat="43.51058" lon="6.8997">
        <ele>88.3</ele>
        <time>2022-11-20T09:31:03Z</time>
      </trkpt>
      <trkpt lat="43.51049" lon="6.89971">
        <ele>87.1</ele>
        <time>2022-11-20T09:31:14Z</time>
      </trkpt>
      <trkpt lat="43.5104" lon="6.89972">
        <ele>86.1</ele>
        <time>2022-11-20T09:31:23Z</time>
      </trkpt>
      <trkpt lat="43.51031" lon="6.89968">
        <ele>85</ele>
        <time>2022-11-20T09:31:38Z</time>
      </trkpt>
      <trkpt lat="43.51023" lon="6.89961">
        <ele>83.6</ele>
        <time>2022-11-20T09:31:51Z</time>
      </trkpt>
      <trkpt lat="43.51014" lon="6.89958">
        <ele>83</ele>
        <time>2022-11-20T09:31:58Z</time>
      </trkpt>
      <trkpt lat="43.51008" lon="6.89948">
        <ele>82.6</ele>
        <time>2022-11-20T09:32:07Z</time>
      </trkpt>
      <trkpt lat="43.51001" lon="6.8994">
        <ele>82.7</ele>
        <time>2022-11-20T09:32:14Z</time>
      </trkpt>
      <trkpt lat="43.50993" lon="6.89931">
        <ele>82.7</ele>
        <time>2022-11-20T09:32:24Z</time>
      </trkpt>
      <trkpt lat="43.50984" lon="6.89931">
        <ele>82.5</ele>
        <time>2022-11-20T09:32:36Z</time>
      </trkpt>
      <trkpt lat="43.50977" lon="6.89939">
        <ele>83.3</ele>
        <time>2022-11-20T09:32:49Z</time>
      </trkpt>
      <trkpt lat="43.50974" lon="6.89952">
        <ele>85.6</ele>
        <time>2022-11-20T09:33:05Z</time>
      </trkpt>
      <trkpt lat="43.5097" lon="6.89964">
        <ele>88.7</ele>
        <time>2022-11-20T09:33:20Z</time>
      </trkpt>
      <trkpt lat="43.50965" lon="6.89974">
        <ele>91.3</ele>
        <time>2022-11-20T09:33:35Z</time>
      </trkpt>
      <trkpt lat="43.50959" lon="6.89985">
        <ele>93.4</ele>
        <time>2022-11-20T09:33:49Z</time>
      </trkpt>
      <trkpt lat="43.50953" lon="6.89994">
        <ele>95.5</ele>
        <time>2022-11-20T09:34:02Z</time>
      </trkpt>
      <trkpt lat="43.50946" lon="6.90001">
        <ele>96.8</ele>
        <time>2022-11-20T09:34:15Z</time>
      </trkpt>
      <trkpt lat="43.50937" lon="6.90006">
        <ele>99.3</ele>
        <time>2022-11-20T09:34:37Z</time>
      </trkpt>
      <trkpt lat="43.50928" lon="6.90008">
        <ele>101.2</ele>
        <time>2022-11-20T09:34:52Z</time>
      </trkpt>
      <trkpt lat="43.50918" lon="6.90007">
        <ele>103.7</ele>
        <time>2022-11-20T09:35:06Z</time>
      </trkpt>
      <trkpt lat="43.50909" lon="6.90009">
        <ele>107.4</ele>
        <time>2022-11-20T09:35:26Z</time>
      </trkpt>
      <trkpt lat="43.50899" lon="6.90011">
        <ele>109.5</ele>
        <time>2022-11-20T09:35:37Z</time>
      </trkpt>
      <trkpt lat="43.5089" lon="6.90017">
        <ele>110.8</ele>
        <time>2022-11-20T09:35:47Z</time>
      </trkpt>
      <trkpt lat="43.50882" lon="6.90022">
        <ele>111.3</ele>
        <time>2022-11-20T09:35:58Z</time>
      </trkpt>
      <trkpt lat="43.50875" lon="6.9003">
        <ele>111.8</ele>
        <time>2022-11-20T09:36:09Z</time>
      </trkpt>
      <trkpt lat="43.50866" lon="6.90036">
        <ele>111.9</ele>
        <time>2022-11-20T09:36:17Z</time>
      </trkpt>
      <trkpt lat="43.50857" lon="6.90041">
        <ele>111.8</ele>
        <time>2022-11-20T09:36:27Z</time>
      </trkpt>
      <trkpt lat="43.50849" lon="6.90047">
        <ele>112.2</ele>
        <time>2022-11-20T09:36:34Z</time>
      </trkpt>
      <trkpt lat="43.50841" lon="6.90054">
        <ele>113</ele>
        <time>2022-11-20T09:36:45Z</time>
      </trkpt>
      <trkpt lat="43.50834" lon="6.90062">
        <ele>113.9</ele>
        <time>2022-11-20T09:36:57Z</time>
      </trkpt>
      <trkpt lat="43.50827" lon="6.9007">
        <ele>113.9</ele>
        <time>2022-11-20T09:37:07Z</time>
      </trkpt>
      <trkpt lat="43.5082" lon="6.90079">
        <ele>113</ele>
        <time>2022-11-20T09:37:15Z</time>
      </trkpt>
      <trkpt lat="43.50825" lon="6.90091">
        <ele>113.3</ele>
        <time>2022-11-20T09:37:26Z</time>
      </trkpt>
      <trkpt lat="43.50829" lon="6.90102">
        <ele>114</ele>
        <time>2022-11-20T09:37:38Z</time>
      </trkpt>
      <trkpt lat="43.50839" lon="6.90109">
        <ele>114.5</ele>
        <time>2022-11-20T09:37:48Z</time>
      </trkpt>
      <trkpt lat="43.50847" lon="6.90115">
        <ele>114.5</ele>
        <time>2022-11-20T09:37:58Z</time>
      </trkpt>
      <trkpt lat="43.50858" lon="6.9012">
        <ele>115.1</ele>
        <time>2022-11-20T09:38:07Z</time>
      </trkpt>
      <trkpt lat="43.50864" lon="6.90131">
        <ele>115.1</ele>
        <time>2022-11-20T09:38:17Z</time>
      </trkpt>
      <trkpt lat="43.50873" lon="6.90135">
        <ele>115.3</ele>
        <time>2022-11-20T09:38:24Z</time>
      </trkpt>
      <trkpt lat="43.50881" lon="6.90142">
        <ele>115.5</ele>
        <time>2022-11-20T09:38:33Z</time>
      </trkpt>
      <trkpt lat="43.50887" lon="6.90153">
        <ele>116</ele>
        <time>2022-11-20T09:38:42Z</time>
      </trkpt>
      <trkpt lat="43.50892" lon="6.90165">
        <ele>116.4</ele>
        <time>2022-11-20T09:38:50Z</time>
      </trkpt>
      <trkpt lat="43.50893" lon="6.90177">
        <ele>116.4</ele>
        <time>2022-11-20T09:39:01Z</time>
      </trkpt>
      <trkpt lat="43.50895" lon="6.9019">
        <ele>116.4</ele>
        <time>2022-11-20T09:39:08Z</time>
      </trkpt>
      <trkpt lat="43.50898" lon="6.90202">
        <ele>116.6</ele>
        <time>2022-11-20T09:39:16Z</time>
      </trkpt>
      <trkpt lat="43.50899" lon="6.90216">
        <ele>116.2</ele>
        <time>2022-11-20T09:39:25Z</time>
      </trkpt>
      <trkpt lat="43.50904" lon="6.90228">
        <ele>115.5</ele>
        <time>2022-11-20T09:39:33Z</time>
      </trkpt>
      <trkpt lat="43.50908" lon="6.9024">
        <ele>114.3</ele>
        <time>2022-11-20T09:39:41Z</time>
      </trkpt>
      <trkpt lat="43.50909" lon="6.90253">
        <ele>113.3</ele>
        <time>2022-11-20T09:39:52Z</time>
      </trkpt>
      <trkpt lat="43.5091" lon="6.90266">
        <ele>111.4</ele>
        <time>2022-11-20T09:40:02Z</time>
      </trkpt>
      <trkpt lat="43.50914" lon="6.90278">
        <ele>109.1</ele>
        <time>2022-11-20T09:40:12Z</time>
      </trkpt>
      <trkpt lat="43.50918" lon="6.90289">
        <ele>107.6</ele>
        <time>2022-11-20T09:40:23Z</time>
      </trkpt>
      <trkpt lat="43.5092" lon="6.90301">
        <ele>106.3</ele>
        <time>2022-11-20T09:40:37Z</time>
      </trkpt>
      <trkpt lat="43.50926" lon="6.90312">
        <ele>105.1</ele>
        <time>2022-11-20T09:41:34Z</time>
      </trkpt>
      <trkpt lat="43.50933" lon="6.90321">
        <ele>104.9</ele>
        <time>2022-11-20T09:46:32Z</time>
      </trkpt>
      <trkpt lat="43.50924" lon="6.90326">
        <ele>105</ele>
        <time>2022-11-20T09:46:45Z</time>
      </trkpt>
      <trkpt lat="43.50915" lon="6.90331">
        <ele>105.8</ele>
        <time>2022-11-20T09:46:56Z</time>
      </trkpt>
      <trkpt lat="43.50907" lon="6.90337">
        <ele>106.7</ele>
        <time>2022-11-20T09:47:07Z</time>
      </trkpt>
      <trkpt lat="43.50898" lon="6.90342">
        <ele>108.2</ele>
        <time>2022-11-20T09:47:18Z</time>
      </trkpt>
      <trkpt lat="43.50889" lon="6.90348">
        <ele>110.4</ele>
        <time>2022-11-20T09:47:35Z</time>
      </trkpt>
      <trkpt lat="43.50881" lon="6.90355">
        <ele>112.3</ele>
        <time>2022-11-20T09:47:48Z</time>
      </trkpt>
      <trkpt lat="43.50874" lon="6.90365">
        <ele>114.9</ele>
        <time>2022-11-20T09:48:01Z</time>
      </trkpt>
      <trkpt lat="43.50872" lon="6.90377">
        <ele>115.4</ele>
        <time>2022-11-20T09:48:10Z</time>
      </trkpt>
      <trkpt lat="43.50872" lon="6.9039">
        <ele>115.4</ele>
        <time>2022-11-20T09:48:20Z</time>
      </trkpt>
      <trkpt lat="43.50873" lon="6.90402">
        <ele>115.3</ele>
        <time>2022-11-20T09:48:31Z</time>
      </trkpt>
      <trkpt lat="43.50878" lon="6.90413">
        <ele>115.3</ele>
        <time>2022-11-20T09:49:22Z</time>
      </trkpt>
      <trkpt lat="43.50877" lon="6.90425">
        <ele>115.8</ele>
        <time>2022-11-20T09:49:50Z</time>
      </trkpt>
      <trkpt lat="43.50875" lon="6.90438">
        <ele>116</ele>
        <time>2022-11-20T09:50:08Z</time>
      </trkpt>
      <trkpt lat="43.5087" lon="6.90448">
        <ele>116.4</ele>
        <time>2022-11-20T09:50:18Z</time>
      </trkpt>
      <trkpt lat="43.50866" lon="6.90461">
        <ele>117.1</ele>
        <time>2022-11-20T09:50:30Z</time>
      </trkpt>
      <trkpt lat="43.50863" lon="6.90448">
        <ele>119.8</ele>
        <time>2022-11-20T09:50:49Z</time>
      </trkpt>
      <trkpt lat="43.50862" lon="6.90434">
        <ele>121.3</ele>
        <time>2022-11-20T09:51:00Z</time>
      </trkpt>
      <trkpt lat="43.50861" lon="6.90421">
        <ele>122.7</ele>
        <time>2022-11-20T09:51:11Z</time>
      </trkpt>
      <trkpt lat="43.50857" lon="6.90409">
        <ele>123.8</ele>
        <time>2022-11-20T09:51:23Z</time>
      </trkpt>
      <trkpt lat="43.50849" lon="6.90402">
        <ele>124.4</ele>
        <time>2022-11-20T09:52:21Z</time>
      </trkpt>
      <trkpt lat="43.50852" lon="6.90414">
        <ele>124.3</ele>
        <time>2022-11-20T09:54:24Z</time>
      </trkpt>
      <trkpt lat="43.50857" lon="6.90424">
        <ele>123.3</ele>
        <time>2022-11-20T09:54:46Z</time>
      </trkpt>
      <trkpt lat="43.5086" lon="6.90436">
        <ele>122.1</ele>
        <time>2022-11-20T09:54:56Z</time>
      </trkpt>
      <trkpt lat="43.50861" lon="6.90449">
        <ele>120.6</ele>
        <time>2022-11-20T09:55:19Z</time>
      </trkpt>
      <trkpt lat="43.50861" lon="6.90462">
        <ele>119.3</ele>
        <time>2022-11-20T09:55:30Z</time>
      </trkpt>
      <trkpt lat="43.50858" lon="6.90476">
        <ele>118.9</ele>
        <time>2022-11-20T09:55:40Z</time>
      </trkpt>
      <trkpt lat="43.50861" lon="6.90488">
        <ele>118.2</ele>
        <time>2022-11-20T09:55:50Z</time>
      </trkpt>
      <trkpt lat="43.50869" lon="6.90496">
        <ele>117.2</ele>
        <time>2022-11-20T09:55:59Z</time>
      </trkpt>
      <trkpt lat="43.50875" lon="6.90506">
        <ele>116</ele>
        <time>2022-11-20T09:56:06Z</time>
      </trkpt>
      <trkpt lat="43.50879" lon="6.90517">
        <ele>114.9</ele>
        <time>2022-11-20T09:56:13Z</time>
      </trkpt>
      <trkpt lat="43.50885" lon="6.90527">
        <ele>113.1</ele>
        <time>2022-11-20T09:56:24Z</time>
      </trkpt>
      <trkpt lat="43.50891" lon="6.90538">
        <ele>111.8</ele>
        <time>2022-11-20T09:56:35Z</time>
      </trkpt>
      <trkpt lat="43.50896" lon="6.90549">
        <ele>110.2</ele>
        <time>2022-11-20T09:56:49Z</time>
      </trkpt>
      <trkpt lat="43.50904" lon="6.90557">
        <ele>108.4</ele>
        <time>2022-11-20T09:57:13Z</time>
      </trkpt>
      <trkpt lat="43.50913" lon="6.90561">
        <ele>107.1</ele>
        <time>2022-11-20T09:57:28Z</time>
      </trkpt>
      <trkpt lat="43.50907" lon="6.9057">
        <ele>105.8</ele>
        <time>2022-11-20T09:58:38Z</time>
      </trkpt>
      <trkpt lat="43.509" lon="6.90579">
        <ele>106.4</ele>
        <time>2022-11-20T09:58:46Z</time>
      </trkpt>
      <trkpt lat="43.50893" lon="6.90588">
        <ele>107.6</ele>
        <time>2022-11-20T09:58:56Z</time>
      </trkpt>
      <trkpt lat="43.50886" lon="6.90596">
        <ele>108.8</ele>
        <time>2022-11-20T09:59:06Z</time>
      </trkpt>
      <trkpt lat="43.50884" lon="6.90609">
        <ele>110</ele>
        <time>2022-11-20T09:59:21Z</time>
      </trkpt>
      <trkpt lat="43.50881" lon="6.90623">
        <ele>111</ele>
        <time>2022-11-20T09:59:30Z</time>
      </trkpt>
      <trkpt lat="43.50878" lon="6.90636">
        <ele>112.6</ele>
        <time>2022-11-20T09:59:46Z</time>
      </trkpt>
      <trkpt lat="43.50877" lon="6.90649">
        <ele>113.9</ele>
        <time>2022-11-20T09:59:54Z</time>
      </trkpt>
      <trkpt lat="43.5087" lon="6.90659">
        <ele>114.8</ele>
        <time>2022-11-20T10:00:03Z</time>
      </trkpt>
      <trkpt lat="43.50861" lon="6.90667">
        <ele>115.4</ele>
        <time>2022-11-20T10:00:11Z</time>
      </trkpt>
      <trkpt lat="43.50853" lon="6.90674">
        <ele>116.5</ele>
        <time>2022-11-20T10:00:21Z</time>
      </trkpt>
      <trkpt lat="43.50845" lon="6.90669">
        <ele>118.6</ele>
        <time>2022-11-20T10:00:55Z</time>
      </trkpt>
      <trkpt lat="43.5084" lon="6.90658">
        <ele>120.6</ele>
        <time>2022-11-20T10:01:19Z</time>
      </trkpt>
      <trkpt lat="43.50834" lon="6.90648">
        <ele>123.7</ele>
        <time>2022-11-20T10:01:31Z</time>
      </trkpt>
      <trkpt lat="43.50825" lon="6.90643">
        <ele>126</ele>
        <time>2022-11-20T10:01:42Z</time>
      </trkpt>
      <trkpt lat="43.50818" lon="6.90635">
        <ele>129.3</ele>
        <time>2022-11-20T10:01:59Z</time>
      </trkpt>
      <trkpt lat="43.50819" lon="6.90622">
        <ele>131.6</ele>
        <time>2022-11-20T10:02:11Z</time>
      </trkpt>
      <trkpt lat="43.50816" lon="6.9061">
        <ele>132.4</ele>
        <time>2022-11-20T10:02:20Z</time>
      </trkpt>
      <trkpt lat="43.50816" lon="6.90597">
        <ele>133.7</ele>
        <time>2022-11-20T10:02:31Z</time>
      </trkpt>
      <trkpt lat="43.50815" lon="6.90585">
        <ele>134.8</ele>
        <time>2022-11-20T10:02:41Z</time>
      </trkpt>
      <trkpt lat="43.50815" lon="6.90572">
        <ele>136.4</ele>
        <time>2022-11-20T10:02:52Z</time>
      </trkpt>
      <trkpt lat="43.50815" lon="6.9056">
        <ele>138.7</ele>
        <time>2022-11-20T10:03:07Z</time>
      </trkpt>
      <trkpt lat="43.50812" lon="6.90548">
        <ele>140.8</ele>
        <time>2022-11-20T10:03:22Z</time>
      </trkpt>
      <trkpt lat="43.50807" lon="6.90537">
        <ele>142.7</ele>
        <time>2022-11-20T10:03:36Z</time>
      </trkpt>
      <trkpt lat="43.508" lon="6.90528">
        <ele>145</ele>
        <time>2022-11-20T10:03:51Z</time>
      </trkpt>
      <trkpt lat="43.50792" lon="6.90523">
        <ele>146.6</ele>
        <time>2022-11-20T10:04:24Z</time>
      </trkpt>
      <trkpt lat="43.50782" lon="6.90522">
        <ele>149.8</ele>
        <time>2022-11-20T10:05:00Z</time>
      </trkpt>
      <trkpt lat="43.50773" lon="6.90521">
        <ele>155.8</ele>
        <time>2022-11-20T10:05:37Z</time>
      </trkpt>
      <trkpt lat="43.50764" lon="6.90527">
        <ele>163.1</ele>
        <time>2022-11-20T10:06:33Z</time>
      </trkpt>
      <trkpt lat="43.50758" lon="6.90517">
        <ele>165.9</ele>
        <time>2022-11-20T10:07:01Z</time>
      </trkpt>
      <trkpt lat="43.50758" lon="6.90504">
        <ele>167.2</ele>
        <time>2022-11-20T10:07:31Z</time>
      </trkpt>
      <trkpt lat="43.50759" lon="6.90491">
        <ele>169</ele>
        <time>2022-11-20T10:07:45Z</time>
      </trkpt>
      <trkpt lat="43.50761" lon="6.90479">
        <ele>169.6</ele>
        <time>2022-11-20T10:08:10Z</time>
      </trkpt>
      <trkpt lat="43.50763" lon="6.90466">
        <ele>169.2</ele>
        <time>2022-11-20T10:08:31Z</time>
      </trkpt>
      <trkpt lat="43.50766" lon="6.90454">
        <ele>167.8</ele>
        <time>2022-11-20T10:09:13Z</time>
      </trkpt>
      <trkpt lat="43.50771" lon="6.90444">
        <ele>166.1</ele>
        <time>2022-11-20T10:09:43Z</time>
      </trkpt>
      <trkpt lat="43.50776" lon="6.90433">
        <ele>163.8</ele>
        <time>2022-11-20T10:10:05Z</time>
      </trkpt>
      <trkpt lat="43.50775" lon="6.9042">
        <ele>164.1</ele>
        <time>2022-11-20T10:11:25Z</time>
      </trkpt>
      <trkpt lat="43.50771" lon="6.90408">
        <ele>166.3</ele>
        <time>2022-11-20T10:11:36Z</time>
      </trkpt>
      <trkpt lat="43.50763" lon="6.90402">
        <ele>168.8</ele>
        <time>2022-11-20T10:11:46Z</time>
      </trkpt>
      <trkpt lat="43.50754" lon="6.90396">
        <ele>171.4</ele>
        <time>2022-11-20T10:11:57Z</time>
      </trkpt>
      <trkpt lat="43.50748" lon="6.90385">
        <ele>175.6</ele>
        <time>2022-11-20T10:12:14Z</time>
      </trkpt>
      <trkpt lat="43.50745" lon="6.90373">
        <ele>178.3</ele>
        <time>2022-11-20T10:12:28Z</time>
      </trkpt>
      <trkpt lat="43.50747" lon="6.9036">
        <ele>180.9</ele>
        <time>2022-11-20T10:12:43Z</time>
      </trkpt>
      <trkpt lat="43.50748" lon="6.90348">
        <ele>183.3</ele>
        <time>2022-11-20T10:12:55Z</time>
      </trkpt>
      <trkpt lat="43.50748" lon="6.90334">
        <ele>185.5</ele>
        <time>2022-11-20T10:13:06Z</time>
      </trkpt>
      <trkpt lat="43.50744" lon="6.90322">
        <ele>187.2</ele>
        <time>2022-11-20T10:13:16Z</time>
      </trkpt>
      <trkpt lat="43.50742" lon="6.90309">
        <ele>188.7</ele>
        <time>2022-11-20T10:13:25Z</time>
      </trkpt>
      <trkpt lat="43.50739" lon="6.90297">
        <ele>191.1</ele>
        <time>2022-11-20T10:13:35Z</time>
      </trkpt>
      <trkpt lat="43.50733" lon="6.90286">
        <ele>193.2</ele>
        <time>2022-11-20T10:13:46Z</time>
      </trkpt>
      <trkpt lat="43.50728" lon="6.90275">
        <ele>196</ele>
        <time>2022-11-20T10:14:05Z</time>
      </trkpt>
      <trkpt lat="43.50719" lon="6.90271">
        <ele>199</ele>
        <time>2022-11-20T10:15:31Z</time>
      </trkpt>
      <trkpt lat="43.5071" lon="6.90268">
        <ele>200.6</ele>
        <time>2022-11-20T10:16:18Z</time>
      </trkpt>
      <trkpt lat="43.507" lon="6.90267">
        <ele>202.4</ele>
        <time>2022-11-20T10:17:09Z</time>
      </trkpt>
      <trkpt lat="43.50691" lon="6.90265">
        <ele>203.3</ele>
        <time>2022-11-20T10:17:19Z</time>
      </trkpt>
      <trkpt lat="43.50682" lon="6.90263">
        <ele>205.5</ele>
        <time>2022-11-20T10:17:29Z</time>
      </trkpt>
      <trkpt lat="43.50673" lon="6.90258">
        <ele>207.7</ele>
        <time>2022-11-20T10:17:40Z</time>
      </trkpt>
      <trkpt lat="43.50663" lon="6.90254">
        <ele>209.4</ele>
        <time>2022-11-20T10:17:51Z</time>
      </trkpt>
      <trkpt lat="43.50655" lon="6.90247">
        <ele>211.1</ele>
        <time>2022-11-20T10:18:01Z</time>
      </trkpt>
      <trkpt lat="43.50646" lon="6.90243">
        <ele>213</ele>
        <time>2022-11-20T10:18:12Z</time>
      </trkpt>
      <trkpt lat="43.50637" lon="6.90238">
        <ele>215</ele>
        <time>2022-11-20T10:18:24Z</time>
      </trkpt>
      <trkpt lat="43.50628" lon="6.90235">
        <ele>217.2</ele>
        <time>2022-11-20T10:18:36Z</time>
      </trkpt>
      <trkpt lat="43.50619" lon="6.9023">
        <ele>219.2</ele>
        <time>2022-11-20T10:18:45Z</time>
      </trkpt>
      <trkpt lat="43.50612" lon="6.90222">
        <ele>221.1</ele>
        <time>2022-11-20T10:18:56Z</time>
      </trkpt>
      <trkpt lat="43.50604" lon="6.90215">
        <ele>223</ele>
        <time>2022-11-20T10:19:08Z</time>
      </trkpt>
      <trkpt lat="43.50597" lon="6.90207">
        <ele>225.1</ele>
        <time>2022-11-20T10:19:21Z</time>
      </trkpt>
      <trkpt lat="43.5059" lon="6.90198">
        <ele>226.8</ele>
        <time>2022-11-20T10:19:32Z</time>
      </trkpt>
      <trkpt lat="43.50582" lon="6.90191">
        <ele>228.5</ele>
        <time>2022-11-20T10:19:42Z</time>
      </trkpt>
      <trkpt lat="43.50574" lon="6.90185">
        <ele>230.9</ele>
        <time>2022-11-20T10:19:55Z</time>
      </trkpt>
      <trkpt lat="43.50565" lon="6.90181">
        <ele>232.4</ele>
        <time>2022-11-20T10:20:06Z</time>
      </trkpt>
      <trkpt lat="43.50556" lon="6.90177">
        <ele>234</ele>
        <time>2022-11-20T10:20:17Z</time>
      </trkpt>
      <trkpt lat="43.50547" lon="6.90174">
        <ele>236.2</ele>
        <time>2022-11-20T10:20:28Z</time>
      </trkpt>
      <trkpt lat="43.50537" lon="6.90171">
        <ele>238.4</ele>
        <time>2022-11-20T10:20:43Z</time>
      </trkpt>
      <trkpt lat="43.50529" lon="6.90165">
        <ele>240</ele>
        <time>2022-11-20T10:21:42Z</time>
      </trkpt>
      <trkpt lat="43.50527" lon="6.90152">
        <ele>241.7</ele>
        <time>2022-11-20T10:21:55Z</time>
      </trkpt>
      <trkpt lat="43.50524" lon="6.90141">
        <ele>243.7</ele>
        <time>2022-11-20T10:22:12Z</time>
      </trkpt>
      <trkpt lat="43.50519" lon="6.90129">
        <ele>246.5</ele>
        <time>2022-11-20T10:22:43Z</time>
      </trkpt>
      <trkpt lat="43.50511" lon="6.90122">
        <ele>249.4</ele>
        <time>2022-11-20T10:22:56Z</time>
      </trkpt>
      <trkpt lat="43.50509" lon="6.90109">
        <ele>253.5</ele>
        <time>2022-11-20T10:23:13Z</time>
      </trkpt>
      <trkpt lat="43.50508" lon="6.90097">
        <ele>255.9</ele>
        <time>2022-11-20T10:23:25Z</time>
      </trkpt>
      <trkpt lat="43.50502" lon="6.90088">
        <ele>260.1</ele>
        <time>2022-11-20T10:23:43Z</time>
      </trkpt>
      <trkpt lat="43.50497" lon="6.90078">
        <ele>264.3</ele>
        <time>2022-11-20T10:24:05Z</time>
      </trkpt>
      <trkpt lat="43.50492" lon="6.90067">
        <ele>268</ele>
        <time>2022-11-20T10:24:29Z</time>
      </trkpt>
      <trkpt lat="43.50488" lon="6.90055">
        <ele>270.5</ele>
        <time>2022-11-20T10:24:45Z</time>
      </trkpt>
      <trkpt lat="43.50481" lon="6.90044">
        <ele>271.7</ele>
        <time>2022-11-20T10:24:57Z</time>
      </trkpt>
      <trkpt lat="43.50479" lon="6.90031">
        <ele>272.2</ele>
        <time>2022-11-20T10:25:08Z</time>
      </trkpt>
      <trkpt lat="43.50473" lon="6.9002">
        <ele>272.9</ele>
        <time>2022-11-20T10:25:21Z</time>
      </trkpt>
      <trkpt lat="43.5047" lon="6.90008">
        <ele>274.8</ele>
        <time>2022-11-20T10:25:42Z</time>
      </trkpt>
      <trkpt lat="43.50471" lon="6.89996">
        <ele>279.1</ele>
        <time>2022-11-20T10:26:17Z</time>
      </trkpt>
      <trkpt lat="43.50466" lon="6.89985">
        <ele>281.8</ele>
        <time>2022-11-20T10:26:33Z</time>
      </trkpt>
      <trkpt lat="43.50461" lon="6.89975">
        <ele>284.9</ele>
        <time>2022-11-20T10:26:49Z</time>
      </trkpt>
      <trkpt lat="43.50456" lon="6.89964">
        <ele>286.6</ele>
        <time>2022-11-20T10:27:03Z</time>
      </trkpt>
      <trkpt lat="43.50454" lon="6.89951">
        <ele>288.2</ele>
        <time>2022-11-20T10:27:20Z</time>
      </trkpt>
      <trkpt lat="43.50454" lon="6.89938">
        <ele>289.8</ele>
        <time>2022-11-20T10:27:32Z</time>
      </trkpt>
      <trkpt lat="43.50457" lon="6.89925">
        <ele>290.2</ele>
        <time>2022-11-20T10:27:44Z</time>
      </trkpt>
      <trkpt lat="43.50463" lon="6.89914">
        <ele>292.1</ele>
        <time>2022-11-20T10:27:59Z</time>
      </trkpt>
      <trkpt lat="43.50465" lon="6.89902">
        <ele>293</ele>
        <time>2022-11-20T10:28:07Z</time>
      </trkpt>
      <trkpt lat="43.50467" lon="6.89888">
        <ele>294.3</ele>
        <time>2022-11-20T10:28:19Z</time>
      </trkpt>
      <trkpt lat="43.50464" lon="6.89875">
        <ele>295.3</ele>
        <time>2022-11-20T10:28:31Z</time>
      </trkpt>
      <trkpt lat="43.50464" lon="6.89863">
        <ele>296.5</ele>
        <time>2022-11-20T10:29:04Z</time>
      </trkpt>
      <trkpt lat="43.50465" lon="6.8985">
        <ele>298.7</ele>
        <time>2022-11-20T10:29:19Z</time>
      </trkpt>
      <trkpt lat="43.50466" lon="6.89838">
        <ele>300.9</ele>
        <time>2022-11-20T10:29:28Z</time>
      </trkpt>
      <trkpt lat="43.50467" lon="6.89825">
        <ele>303.1</ele>
        <time>2022-11-20T10:29:39Z</time>
      </trkpt>
      <trkpt lat="43.50467" lon="6.89812">
        <ele>305.8</ele>
        <time>2022-11-20T10:29:52Z</time>
      </trkpt>
      <trkpt lat="43.50467" lon="6.898">
        <ele>307.1</ele>
        <time>2022-11-20T10:30:02Z</time>
      </trkpt>
      <trkpt lat="43.50468" lon="6.89787">
        <ele>308.5</ele>
        <time>2022-11-20T10:30:15Z</time>
      </trkpt>
      <trkpt lat="43.50469" lon="6.89774">
        <ele>311.8</ele>
        <time>2022-11-20T10:30:37Z</time>
      </trkpt>
      <trkpt lat="43.50464" lon="6.89764">
        <ele>314.1</ele>
        <time>2022-11-20T10:31:06Z</time>
      </trkpt>
      <trkpt lat="43.50465" lon="6.89751">
        <ele>315.5</ele>
        <time>2022-11-20T10:31:32Z</time>
      </trkpt>
      <trkpt lat="43.50469" lon="6.8974">
        <ele>316.6</ele>
        <time>2022-11-20T10:31:38Z</time>
      </trkpt>
      <trkpt lat="43.50472" lon="6.89728">
        <ele>319.2</ele>
        <time>2022-11-20T10:31:51Z</time>
      </trkpt>
      <trkpt lat="43.50474" lon="6.89715">
        <ele>322</ele>
        <time>2022-11-20T10:32:08Z</time>
      </trkpt>
      <trkpt lat="43.50482" lon="6.89723">
        <ele>325.5</ele>
        <time>2022-11-20T10:32:25Z</time>
      </trkpt>
      <trkpt lat="43.50491" lon="6.89719">
        <ele>327.1</ele>
        <time>2022-11-20T10:32:32Z</time>
      </trkpt>
      <trkpt lat="43.5049" lon="6.89706">
        <ele>328.1</ele>
        <time>2022-11-20T10:32:41Z</time>
      </trkpt>
      <trkpt lat="43.50481" lon="6.89705">
        <ele>329.2</ele>
        <time>2022-11-20T10:33:34Z</time>
      </trkpt>
      <trkpt lat="43.50486" lon="6.89694">
        <ele>329.4</ele>
        <time>2022-11-20T10:34:13Z</time>
      </trkpt>
      <trkpt lat="43.50481" lon="6.89682">
        <ele>330.8</ele>
        <time>2022-11-20T10:35:30Z</time>
      </trkpt>
      <trkpt lat="43.50475" lon="6.89673">
        <ele>331.8</ele>
        <time>2022-11-20T10:35:40Z</time>
      </trkpt>
      <trkpt lat="43.50468" lon="6.89664">
        <ele>333.1</ele>
        <time>2022-11-20T10:35:51Z</time>
      </trkpt>
      <trkpt lat="43.5046" lon="6.89656">
        <ele>334.6</ele>
        <time>2022-11-20T10:36:01Z</time>
      </trkpt>
      <trkpt lat="43.50452" lon="6.89649">
        <ele>335.7</ele>
        <time>2022-11-20T10:36:10Z</time>
      </trkpt>
      <trkpt lat="43.50443" lon="6.89641">
        <ele>336.7</ele>
        <time>2022-11-20T10:36:19Z</time>
      </trkpt>
      <trkpt lat="43.50437" lon="6.89632">
        <ele>337.5</ele>
        <time>2022-11-20T10:36:29Z</time>
      </trkpt>
      <trkpt lat="43.50431" lon="6.89622">
        <ele>338.2</ele>
        <time>2022-11-20T10:36:39Z</time>
      </trkpt>
      <trkpt lat="43.50426" lon="6.89612">
        <ele>339</ele>
        <time>2022-11-20T10:36:50Z</time>
      </trkpt>
      <trkpt lat="43.50419" lon="6.89602">
        <ele>339.5</ele>
        <time>2022-11-20T10:37:03Z</time>
      </trkpt>
      <trkpt lat="43.50412" lon="6.89593">
        <ele>339.7</ele>
        <time>2022-11-20T10:37:12Z</time>
      </trkpt>
      <trkpt lat="43.50405" lon="6.89585">
        <ele>339.6</ele>
        <time>2022-11-20T10:37:21Z</time>
      </trkpt>
      <trkpt lat="43.50398" lon="6.89576">
        <ele>339.4</ele>
        <time>2022-11-20T10:37:30Z</time>
      </trkpt>
      <trkpt lat="43.5039" lon="6.89569">
        <ele>339.5</ele>
        <time>2022-11-20T10:37:38Z</time>
      </trkpt>
      <trkpt lat="43.50383" lon="6.89562">
        <ele>339.5</ele>
        <time>2022-11-20T10:37:46Z</time>
      </trkpt>
      <trkpt lat="43.50377" lon="6.89552">
        <ele>339.6</ele>
        <time>2022-11-20T10:37:56Z</time>
      </trkpt>
      <trkpt lat="43.50369" lon="6.89545">
        <ele>339.9</ele>
        <time>2022-11-20T10:38:04Z</time>
      </trkpt>
      <trkpt lat="43.50361" lon="6.89538">
        <ele>340.1</ele>
        <time>2022-11-20T10:38:12Z</time>
      </trkpt>
      <trkpt lat="43.50354" lon="6.89528">
        <ele>340.3</ele>
        <time>2022-11-20T10:38:20Z</time>
      </trkpt>
      <trkpt lat="43.50347" lon="6.8952">
        <ele>341.2</ele>
        <time>2022-11-20T10:38:28Z</time>
      </trkpt>
      <trkpt lat="43.5034" lon="6.89511">
        <ele>341.9</ele>
        <time>2022-11-20T10:38:36Z</time>
      </trkpt>
      <trkpt lat="43.50335" lon="6.89501">
        <ele>342.9</ele>
        <time>2022-11-20T10:38:45Z</time>
      </trkpt>
      <trkpt lat="43.5033" lon="6.8949">
        <ele>343.8</ele>
        <time>2022-11-20T10:38:54Z</time>
      </trkpt>
      <trkpt lat="43.50326" lon="6.89478">
        <ele>344.7</ele>
        <time>2022-11-20T10:39:03Z</time>
      </trkpt>
      <trkpt lat="43.50322" lon="6.89467">
        <ele>345.5</ele>
        <time>2022-11-20T10:39:11Z</time>
      </trkpt>
      <trkpt lat="43.50317" lon="6.89456">
        <ele>346.4</ele>
        <time>2022-11-20T10:39:20Z</time>
      </trkpt>
      <trkpt lat="43.50313" lon="6.89444">
        <ele>348.3</ele>
        <time>2022-11-20T10:39:32Z</time>
      </trkpt>
      <trkpt lat="43.50307" lon="6.89432">
        <ele>349.7</ele>
        <time>2022-11-20T10:39:42Z</time>
      </trkpt>
      <trkpt lat="43.50302" lon="6.89422">
        <ele>351.3</ele>
        <time>2022-11-20T10:39:53Z</time>
      </trkpt>
      <trkpt lat="43.50295" lon="6.89413">
        <ele>352</ele>
        <time>2022-11-20T10:40:02Z</time>
      </trkpt>
      <trkpt lat="43.50288" lon="6.89405">
        <ele>353</ele>
        <time>2022-11-20T10:40:11Z</time>
      </trkpt>
      <trkpt lat="43.5028" lon="6.89397">
        <ele>354</ele>
        <time>2022-11-20T10:40:20Z</time>
      </trkpt>
      <trkpt lat="43.50273" lon="6.89389">
        <ele>355.2</ele>
        <time>2022-11-20T10:40:30Z</time>
      </trkpt>
      <trkpt lat="43.50264" lon="6.89382">
        <ele>356.3</ele>
        <time>2022-11-20T10:40:39Z</time>
      </trkpt>
      <trkpt lat="43.50257" lon="6.89374">
        <ele>357.3</ele>
        <time>2022-11-20T10:40:47Z</time>
      </trkpt>
      <trkpt lat="43.50249" lon="6.89365">
        <ele>357.7</ele>
        <time>2022-11-20T10:40:56Z</time>
      </trkpt>
      <trkpt lat="43.50242" lon="6.89356">
        <ele>358.4</ele>
        <time>2022-11-20T10:41:04Z</time>
      </trkpt>
      <trkpt lat="43.50234" lon="6.89348">
        <ele>359.1</ele>
        <time>2022-11-20T10:41:12Z</time>
      </trkpt>
      <trkpt lat="43.50227" lon="6.8934">
        <ele>360.3</ele>
        <time>2022-11-20T10:41:20Z</time>
      </trkpt>
      <trkpt lat="43.5022" lon="6.89332">
        <ele>361</ele>
        <time>2022-11-20T10:41:27Z</time>
      </trkpt>
      <trkpt lat="43.50212" lon="6.89326">
        <ele>361.5</ele>
        <time>2022-11-20T10:41:34Z</time>
      </trkpt>
      <trkpt lat="43.50202" lon="6.89323">
        <ele>362.5</ele>
        <time>2022-11-20T10:41:42Z</time>
      </trkpt>
      <trkpt lat="43.50192" lon="6.8932">
        <ele>363.1</ele>
        <time>2022-11-20T10:41:49Z</time>
      </trkpt>
      <trkpt lat="43.50183" lon="6.89319">
        <ele>363.7</ele>
        <time>2022-11-20T10:41:57Z</time>
      </trkpt>
      <trkpt lat="43.50175" lon="6.89326">
        <ele>364.3</ele>
        <time>2022-11-20T10:42:09Z</time>
      </trkpt>
      <trkpt lat="43.50166" lon="6.89327">
        <ele>364.6</ele>
        <time>2022-11-20T10:42:40Z</time>
      </trkpt>
      <trkpt lat="43.50158" lon="6.89333">
        <ele>364.8</ele>
        <time>2022-11-20T10:42:49Z</time>
      </trkpt>
      <trkpt lat="43.50151" lon="6.89341">
        <ele>364.8</ele>
        <time>2022-11-20T10:42:58Z</time>
      </trkpt>
      <trkpt lat="43.50143" lon="6.8935">
        <ele>364.6</ele>
        <time>2022-11-20T10:43:06Z</time>
      </trkpt>
      <trkpt lat="43.50136" lon="6.89357">
        <ele>364.8</ele>
        <time>2022-11-20T10:43:13Z</time>
      </trkpt>
      <trkpt lat="43.50129" lon="6.89367">
        <ele>365</ele>
        <time>2022-11-20T10:43:21Z</time>
      </trkpt>
      <trkpt lat="43.50121" lon="6.89376">
        <ele>364.9</ele>
        <time>2022-11-20T10:43:29Z</time>
      </trkpt>
      <trkpt lat="43.50113" lon="6.89382">
        <ele>364.7</ele>
        <time>2022-11-20T10:43:36Z</time>
      </trkpt>
      <trkpt lat="43.50105" lon="6.89391">
        <ele>363.8</ele>
        <time>2022-11-20T10:43:44Z</time>
      </trkpt>
      <trkpt lat="43.50096" lon="6.89396">
        <ele>362.7</ele>
        <time>2022-11-20T10:43:51Z</time>
      </trkpt>
      <trkpt lat="43.50086" lon="6.894">
        <ele>362.6</ele>
        <time>2022-11-20T10:43:59Z</time>
      </trkpt>
      <trkpt lat="43.50077" lon="6.894">
        <ele>361.5</ele>
        <time>2022-11-20T10:44:07Z</time>
      </trkpt>
      <trkpt lat="43.50067" lon="6.894">
        <ele>361.5</ele>
        <time>2022-11-20T10:44:13Z</time>
      </trkpt>
      <trkpt lat="43.50058" lon="6.89399">
        <ele>361.5</ele>
        <time>2022-11-20T10:44:20Z</time>
      </trkpt>
      <trkpt lat="43.50048" lon="6.89399">
        <ele>361.2</ele>
        <time>2022-11-20T10:44:28Z</time>
      </trkpt>
      <trkpt lat="43.50038" lon="6.89398">
        <ele>360.4</ele>
        <time>2022-11-20T10:44:36Z</time>
      </trkpt>
      <trkpt lat="43.5004" lon="6.89386">
        <ele>363</ele>
        <time>2022-11-20T10:46:10Z</time>
      </trkpt>
      <trkpt lat="43.50047" lon="6.89378">
        <ele>364.3</ele>
        <time>2022-11-20T10:46:37Z</time>
      </trkpt>
      <trkpt lat="43.50053" lon="6.89369">
        <ele>365.8</ele>
        <time>2022-11-20T10:46:48Z</time>
      </trkpt>
      <trkpt lat="43.50062" lon="6.89364">
        <ele>368.3</ele>
        <time>2022-11-20T10:46:59Z</time>
      </trkpt>
      <trkpt lat="43.50071" lon="6.8936">
        <ele>370.4</ele>
        <time>2022-11-20T10:47:13Z</time>
      </trkpt>
      <trkpt lat="43.50079" lon="6.89355">
        <ele>372.9</ele>
        <time>2022-11-20T10:47:27Z</time>
      </trkpt>
      <trkpt lat="43.50087" lon="6.89346">
        <ele>374.4</ele>
        <time>2022-11-20T10:47:40Z</time>
      </trkpt>
      <trkpt lat="43.50093" lon="6.89337">
        <ele>376</ele>
        <time>2022-11-20T10:47:51Z</time>
      </trkpt>
      <trkpt lat="43.50102" lon="6.89329">
        <ele>377.1</ele>
        <time>2022-11-20T10:48:01Z</time>
      </trkpt>
      <trkpt lat="43.50107" lon="6.89319">
        <ele>378.2</ele>
        <time>2022-11-20T10:48:10Z</time>
      </trkpt>
      <trkpt lat="43.50114" lon="6.89309">
        <ele>378.7</ele>
        <time>2022-11-20T10:48:21Z</time>
      </trkpt>
      <trkpt lat="43.50119" lon="6.89297">
        <ele>379.4</ele>
        <time>2022-11-20T10:48:31Z</time>
      </trkpt>
      <trkpt lat="43.50125" lon="6.89288">
        <ele>380.2</ele>
        <time>2022-11-20T10:48:40Z</time>
      </trkpt>
      <trkpt lat="43.5013" lon="6.89277">
        <ele>380.9</ele>
        <time>2022-11-20T10:48:49Z</time>
      </trkpt>
      <trkpt lat="43.50136" lon="6.89268">
        <ele>381.4</ele>
        <time>2022-11-20T10:48:56Z</time>
      </trkpt>
      <trkpt lat="43.50144" lon="6.89262">
        <ele>381.5</ele>
        <time>2022-11-20T10:49:05Z</time>
      </trkpt>
      <trkpt lat="43.50154" lon="6.89261">
        <ele>380.9</ele>
        <time>2022-11-20T10:49:13Z</time>
      </trkpt>
      <trkpt lat="43.50163" lon="6.89259">
        <ele>380.1</ele>
        <time>2022-11-20T10:49:21Z</time>
      </trkpt>
      <trkpt lat="43.50172" lon="6.89258">
        <ele>379.5</ele>
        <time>2022-11-20T10:49:28Z</time>
      </trkpt>
      <trkpt lat="43.50183" lon="6.89259">
        <ele>378.7</ele>
        <time>2022-11-20T10:49:35Z</time>
      </trkpt>
      <trkpt lat="43.50193" lon="6.89256">
        <ele>378.7</ele>
        <time>2022-11-20T10:49:42Z</time>
      </trkpt>
      <trkpt lat="43.50203" lon="6.89254">
        <ele>378.4</ele>
        <time>2022-11-20T10:49:49Z</time>
      </trkpt>
      <trkpt lat="43.50212" lon="6.89248">
        <ele>378.5</ele>
        <time>2022-11-20T10:49:58Z</time>
      </trkpt>
      <trkpt lat="43.50215" lon="6.89236">
        <ele>377</ele>
        <time>2022-11-20T10:50:10Z</time>
      </trkpt>
      <trkpt lat="43.50208" lon="6.89227">
        <ele>375.8</ele>
        <time>2022-11-20T10:50:18Z</time>
      </trkpt>
      <trkpt lat="43.50199" lon="6.89221">
        <ele>374.8</ele>
        <time>2022-11-20T10:50:26Z</time>
      </trkpt>
      <trkpt lat="43.50191" lon="6.89214">
        <ele>373.8</ele>
        <time>2022-11-20T10:50:34Z</time>
      </trkpt>
      <trkpt lat="43.50184" lon="6.89206">
        <ele>372.6</ele>
        <time>2022-11-20T10:50:41Z</time>
      </trkpt>
      <trkpt lat="43.50177" lon="6.89197">
        <ele>371.1</ele>
        <time>2022-11-20T10:50:48Z</time>
      </trkpt>
      <trkpt lat="43.50171" lon="6.89188">
        <ele>370.3</ele>
        <time>2022-11-20T10:50:55Z</time>
      </trkpt>
      <trkpt lat="43.50166" lon="6.89178">
        <ele>369.1</ele>
        <time>2022-11-20T10:51:02Z</time>
      </trkpt>
      <trkpt lat="43.5016" lon="6.89167">
        <ele>368.2</ele>
        <time>2022-11-20T10:51:09Z</time>
      </trkpt>
      <trkpt lat="43.50155" lon="6.89155">
        <ele>367</ele>
        <time>2022-11-20T10:51:16Z</time>
      </trkpt>
      <trkpt lat="43.50151" lon="6.89143">
        <ele>366</ele>
        <time>2022-11-20T10:51:23Z</time>
      </trkpt>
      <trkpt lat="43.50148" lon="6.89131">
        <ele>365.1</ele>
        <time>2022-11-20T10:51:29Z</time>
      </trkpt>
      <trkpt lat="43.50145" lon="6.89119">
        <ele>363.9</ele>
        <time>2022-11-20T10:51:36Z</time>
      </trkpt>
      <trkpt lat="43.50143" lon="6.89106">
        <ele>362.4</ele>
        <time>2022-11-20T10:51:44Z</time>
      </trkpt>
      <trkpt lat="43.50142" lon="6.89094">
        <ele>361.1</ele>
        <time>2022-11-20T10:51:51Z</time>
      </trkpt>
      <trkpt lat="43.50141" lon="6.89081">
        <ele>360.1</ele>
        <time>2022-11-20T10:51:59Z</time>
      </trkpt>
      <trkpt lat="43.50139" lon="6.89069">
        <ele>358.6</ele>
        <time>2022-11-20T10:52:06Z</time>
      </trkpt>
      <trkpt lat="43.50138" lon="6.89056">
        <ele>357.1</ele>
        <time>2022-11-20T10:52:14Z</time>
      </trkpt>
      <trkpt lat="43.50142" lon="6.89044">
        <ele>355.4</ele>
        <time>2022-11-20T10:52:22Z</time>
      </trkpt>
      <trkpt lat="43.50147" lon="6.89032">
        <ele>354.2</ele>
        <time>2022-11-20T10:52:30Z</time>
      </trkpt>
      <trkpt lat="43.50152" lon="6.89019">
        <ele>353.2</ele>
        <time>2022-11-20T10:52:37Z</time>
      </trkpt>
      <trkpt lat="43.50156" lon="6.89007">
        <ele>352.2</ele>
        <time>2022-11-20T10:52:45Z</time>
      </trkpt>
      <trkpt lat="43.5016" lon="6.88994">
        <ele>351.7</ele>
        <time>2022-11-20T10:52:53Z</time>
      </trkpt>
      <trkpt lat="43.50164" lon="6.88982">
        <ele>351</ele>
        <time>2022-11-20T10:53:00Z</time>
      </trkpt>
      <trkpt lat="43.50167" lon="6.8897">
        <ele>350</ele>
        <time>2022-11-20T10:53:07Z</time>
      </trkpt>
      <trkpt lat="43.50169" lon="6.88957">
        <ele>349</ele>
        <time>2022-11-20T10:53:14Z</time>
      </trkpt>
      <trkpt lat="43.50171" lon="6.88944">
        <ele>348.1</ele>
        <time>2022-11-20T10:53:20Z</time>
      </trkpt>
      <trkpt lat="43.50171" lon="6.88931">
        <ele>347.4</ele>
        <time>2022-11-20T10:53:27Z</time>
      </trkpt>
      <trkpt lat="43.50173" lon="6.88919">
        <ele>347</ele>
        <time>2022-11-20T10:53:34Z</time>
      </trkpt>
      <trkpt lat="43.50176" lon="6.88907">
        <ele>347</ele>
        <time>2022-11-20T10:53:42Z</time>
      </trkpt>
      <trkpt lat="43.5018" lon="6.88895">
        <ele>346.5</ele>
        <time>2022-11-20T10:53:50Z</time>
      </trkpt>
      <trkpt lat="43.50184" lon="6.88884">
        <ele>346</ele>
        <time>2022-11-20T10:53:57Z</time>
      </trkpt>
      <trkpt lat="43.50187" lon="6.88872">
        <ele>344.9</ele>
        <time>2022-11-20T10:54:08Z</time>
      </trkpt>
      <trkpt lat="43.50191" lon="6.88859">
        <ele>344.4</ele>
        <time>2022-11-20T10:54:15Z</time>
      </trkpt>
      <trkpt lat="43.50195" lon="6.88847">
        <ele>343.3</ele>
        <time>2022-11-20T10:54:22Z</time>
      </trkpt>
      <trkpt lat="43.50195" lon="6.88834">
        <ele>341.9</ele>
        <time>2022-11-20T10:54:30Z</time>
      </trkpt>
      <trkpt lat="43.50193" lon="6.88821">
        <ele>340.9</ele>
        <time>2022-11-20T10:54:38Z</time>
      </trkpt>
      <trkpt lat="43.50191" lon="6.88808">
        <ele>339.5</ele>
        <time>2022-11-20T10:54:46Z</time>
      </trkpt>
      <trkpt lat="43.50188" lon="6.88796">
        <ele>338.2</ele>
        <time>2022-11-20T10:54:53Z</time>
      </trkpt>
      <trkpt lat="43.50185" lon="6.88783">
        <ele>336.7</ele>
        <time>2022-11-20T10:55:01Z</time>
      </trkpt>
      <trkpt lat="43.50181" lon="6.8877">
        <ele>335.2</ele>
        <time>2022-11-20T10:55:09Z</time>
      </trkpt>
      <trkpt lat="43.50177" lon="6.88758">
        <ele>334</ele>
        <time>2022-11-20T10:55:23Z</time>
      </trkpt>
      <trkpt lat="43.50175" lon="6.88745">
        <ele>333.3</ele>
        <time>2022-11-20T10:55:31Z</time>
      </trkpt>
      <trkpt lat="43.50175" lon="6.88732">
        <ele>332.5</ele>
        <time>2022-11-20T10:55:38Z</time>
      </trkpt>
      <trkpt lat="43.50175" lon="6.88719">
        <ele>331.4</ele>
        <time>2022-11-20T10:55:46Z</time>
      </trkpt>
      <trkpt lat="43.50173" lon="6.88705">
        <ele>330.2</ele>
        <time>2022-11-20T10:55:54Z</time>
      </trkpt>
      <trkpt lat="43.50171" lon="6.88692">
        <ele>328.8</ele>
        <time>2022-11-20T10:56:02Z</time>
      </trkpt>
      <trkpt lat="43.5017" lon="6.8868">
        <ele>327.1</ele>
        <time>2022-11-20T10:56:10Z</time>
      </trkpt>
      <trkpt lat="43.50171" lon="6.88667">
        <ele>326</ele>
        <time>2022-11-20T10:56:17Z</time>
      </trkpt>
      <trkpt lat="43.50174" lon="6.88654">
        <ele>324.8</ele>
        <time>2022-11-20T10:56:25Z</time>
      </trkpt>
      <trkpt lat="43.50176" lon="6.88642">
        <ele>323.2</ele>
        <time>2022-11-20T10:56:33Z</time>
      </trkpt>
      <trkpt lat="43.5018" lon="6.8863">
        <ele>321.8</ele>
        <time>2022-11-20T10:56:42Z</time>
      </trkpt>
      <trkpt lat="43.50187" lon="6.8862">
        <ele>320.7</ele>
        <time>2022-11-20T10:56:49Z</time>
      </trkpt>
      <trkpt lat="43.50195" lon="6.88613">
        <ele>320.1</ele>
        <time>2022-11-20T10:56:56Z</time>
      </trkpt>
      <trkpt lat="43.50204" lon="6.88608">
        <ele>319.6</ele>
        <time>2022-11-20T10:57:03Z</time>
      </trkpt>
      <trkpt lat="43.50211" lon="6.88599">
        <ele>319.4</ele>
        <time>2022-11-20T10:57:10Z</time>
      </trkpt>
      <trkpt lat="43.50217" lon="6.88589">
        <ele>319.4</ele>
        <time>2022-11-20T10:57:17Z</time>
      </trkpt>
      <trkpt lat="43.50224" lon="6.88579">
        <ele>319.8</ele>
        <time>2022-11-20T10:57:25Z</time>
      </trkpt>
      <trkpt lat="43.50231" lon="6.88569">
        <ele>320</ele>
        <time>2022-11-20T10:57:33Z</time>
      </trkpt>
      <trkpt lat="43.50236" lon="6.88558">
        <ele>320.3</ele>
        <time>2022-11-20T10:57:42Z</time>
      </trkpt>
      <trkpt lat="43.50242" lon="6.88546">
        <ele>320.6</ele>
        <time>2022-11-20T10:57:50Z</time>
      </trkpt>
      <trkpt lat="43.50246" lon="6.88536">
        <ele>320.9</ele>
        <time>2022-11-20T10:57:57Z</time>
      </trkpt>
      <trkpt lat="43.50251" lon="6.88524">
        <ele>320.4</ele>
        <time>2022-11-20T10:58:05Z</time>
      </trkpt>
      <trkpt lat="43.50256" lon="6.88513">
        <ele>319.9</ele>
        <time>2022-11-20T10:58:13Z</time>
      </trkpt>
      <trkpt lat="43.50257" lon="6.885">
        <ele>318.9</ele>
        <time>2022-11-20T10:58:21Z</time>
      </trkpt>
      <trkpt lat="43.50259" lon="6.88486">
        <ele>317.4</ele>
        <time>2022-11-20T10:58:30Z</time>
      </trkpt>
      <trkpt lat="43.50257" lon="6.88473">
        <ele>315.9</ele>
        <time>2022-11-20T10:58:39Z</time>
      </trkpt>
      <trkpt lat="43.50256" lon="6.88461">
        <ele>314.7</ele>
        <time>2022-11-20T10:58:46Z</time>
      </trkpt>
      <trkpt lat="43.50255" lon="6.88448">
        <ele>313.6</ele>
        <time>2022-11-20T10:58:54Z</time>
      </trkpt>
      <trkpt lat="43.5025" lon="6.88438">
        <ele>312</ele>
        <time>2022-11-20T10:59:17Z</time>
      </trkpt>
      <trkpt lat="43.50245" lon="6.88448">
        <ele>312</ele>
        <time>2022-11-20T11:00:00Z</time>
      </trkpt>
      <trkpt lat="43.50243" lon="6.88461">
        <ele>311.9</ele>
        <time>2022-11-20T11:00:10Z</time>
      </trkpt>
      <trkpt lat="43.50239" lon="6.88474">
        <ele>311.8</ele>
        <time>2022-11-20T11:00:19Z</time>
      </trkpt>
      <trkpt lat="43.50235" lon="6.88487">
        <ele>311.8</ele>
        <time>2022-11-20T11:00:27Z</time>
      </trkpt>
      <trkpt lat="43.50231" lon="6.88498">
        <ele>311.7</ele>
        <time>2022-11-20T11:00:35Z</time>
      </trkpt>
      <trkpt lat="43.50227" lon="6.88509">
        <ele>312</ele>
        <time>2022-11-20T11:00:43Z</time>
      </trkpt>
      <trkpt lat="43.50221" lon="6.8852">
        <ele>312.4</ele>
        <time>2022-11-20T11:00:50Z</time>
      </trkpt>
      <trkpt lat="43.50216" lon="6.88531">
        <ele>312.1</ele>
        <time>2022-11-20T11:00:57Z</time>
      </trkpt>
      <trkpt lat="43.5021" lon="6.88543">
        <ele>311.8</ele>
        <time>2022-11-20T11:01:05Z</time>
      </trkpt>
      <trkpt lat="43.50204" lon="6.88553">
        <ele>311.8</ele>
        <time>2022-11-20T11:01:12Z</time>
      </trkpt>
      <trkpt lat="43.50197" lon="6.88562">
        <ele>311.7</ele>
        <time>2022-11-20T11:01:19Z</time>
      </trkpt>
      <trkpt lat="43.50189" lon="6.8857">
        <ele>311.9</ele>
        <time>2022-11-20T11:01:27Z</time>
      </trkpt>
      <trkpt lat="43.50181" lon="6.88577">
        <ele>311.8</ele>
        <time>2022-11-20T11:01:34Z</time>
      </trkpt>
      <trkpt lat="43.50172" lon="6.88583">
        <ele>311.8</ele>
        <time>2022-11-20T11:01:42Z</time>
      </trkpt>
      <trkpt lat="43.50162" lon="6.88585">
        <ele>311.7</ele>
        <time>2022-11-20T11:01:50Z</time>
      </trkpt>
      <trkpt lat="43.50152" lon="6.88588">
        <ele>311.9</ele>
        <time>2022-11-20T11:01:59Z</time>
      </trkpt>
      <trkpt lat="43.50143" lon="6.88588">
        <ele>311.7</ele>
        <time>2022-11-20T11:02:06Z</time>
      </trkpt>
      <trkpt lat="43.50134" lon="6.88586">
        <ele>312</ele>
        <time>2022-11-20T11:02:13Z</time>
      </trkpt>
      <trkpt lat="43.50124" lon="6.88585">
        <ele>311.9</ele>
        <time>2022-11-20T11:02:20Z</time>
      </trkpt>
      <trkpt lat="43.50115" lon="6.88582">
        <ele>311.8</ele>
        <time>2022-11-20T11:02:27Z</time>
      </trkpt>
      <trkpt lat="43.50106" lon="6.88578">
        <ele>311.5</ele>
        <time>2022-11-20T11:02:34Z</time>
      </trkpt>
      <trkpt lat="43.50096" lon="6.88574">
        <ele>311.5</ele>
        <time>2022-11-20T11:02:42Z</time>
      </trkpt>
      <trkpt lat="43.50087" lon="6.88568">
        <ele>311.6</ele>
        <time>2022-11-20T11:02:49Z</time>
      </trkpt>
      <trkpt lat="43.50079" lon="6.88564">
        <ele>311.9</ele>
        <time>2022-11-20T11:02:55Z</time>
      </trkpt>
      <trkpt lat="43.5007" lon="6.88561">
        <ele>312</ele>
        <time>2022-11-20T11:03:01Z</time>
      </trkpt>
      <trkpt lat="43.5006" lon="6.88564">
        <ele>311.9</ele>
        <time>2022-11-20T11:03:09Z</time>
      </trkpt>
      <trkpt lat="43.50052" lon="6.88569">
        <ele>311.7</ele>
        <time>2022-11-20T11:03:16Z</time>
      </trkpt>
      <trkpt lat="43.50044" lon="6.88577">
        <ele>311.7</ele>
        <time>2022-11-20T11:03:24Z</time>
      </trkpt>
      <trkpt lat="43.50037" lon="6.88585">
        <ele>311.5</ele>
        <time>2022-11-20T11:03:31Z</time>
      </trkpt>
      <trkpt lat="43.5003" lon="6.88594">
        <ele>311.4</ele>
        <time>2022-11-20T11:03:38Z</time>
      </trkpt>
      <trkpt lat="43.50023" lon="6.88603">
        <ele>311.4</ele>
        <time>2022-11-20T11:03:45Z</time>
      </trkpt>
      <trkpt lat="43.50016" lon="6.88611">
        <ele>311.3</ele>
        <time>2022-11-20T11:03:52Z</time>
      </trkpt>
      <trkpt lat="43.50009" lon="6.88621">
        <ele>311</ele>
        <time>2022-11-20T11:03:59Z</time>
      </trkpt>
      <trkpt lat="43.50005" lon="6.88634">
        <ele>311.1</ele>
        <time>2022-11-20T11:04:07Z</time>
      </trkpt>
      <trkpt lat="43.50006" lon="6.88647">
        <ele>310.9</ele>
        <time>2022-11-20T11:04:15Z</time>
      </trkpt>
      <trkpt lat="43.5001" lon="6.88659">
        <ele>310.7</ele>
        <time>2022-11-20T11:04:22Z</time>
      </trkpt>
      <trkpt lat="43.50017" lon="6.88669">
        <ele>310.4</ele>
        <time>2022-11-20T11:04:30Z</time>
      </trkpt>
      <trkpt lat="43.50024" lon="6.88677">
        <ele>310</ele>
        <time>2022-11-20T11:04:37Z</time>
      </trkpt>
      <trkpt lat="43.50032" lon="6.88686">
        <ele>310.1</ele>
        <time>2022-11-20T11:04:44Z</time>
      </trkpt>
      <trkpt lat="43.50039" lon="6.88696">
        <ele>310.3</ele>
        <time>2022-11-20T11:04:51Z</time>
      </trkpt>
      <trkpt lat="43.50044" lon="6.88707">
        <ele>310</ele>
        <time>2022-11-20T11:04:59Z</time>
      </trkpt>
      <trkpt lat="43.50049" lon="6.88719">
        <ele>310.3</ele>
        <time>2022-11-20T11:05:06Z</time>
      </trkpt>
      <trkpt lat="43.50053" lon="6.8873">
        <ele>310.3</ele>
        <time>2022-11-20T11:05:14Z</time>
      </trkpt>
      <trkpt lat="43.50059" lon="6.88741">
        <ele>310.8</ele>
        <time>2022-11-20T11:05:21Z</time>
      </trkpt>
      <trkpt lat="43.50064" lon="6.88752">
        <ele>310.1</ele>
        <time>2022-11-20T11:05:28Z</time>
      </trkpt>
      <trkpt lat="43.50069" lon="6.88762">
        <ele>310.2</ele>
        <time>2022-11-20T11:05:36Z</time>
      </trkpt>
      <trkpt lat="43.50075" lon="6.88773">
        <ele>310.1</ele>
        <time>2022-11-20T11:05:44Z</time>
      </trkpt>
      <trkpt lat="43.50079" lon="6.88785">
        <ele>310.3</ele>
        <time>2022-11-20T11:05:51Z</time>
      </trkpt>
      <trkpt lat="43.50083" lon="6.88797">
        <ele>310.2</ele>
        <time>2022-11-20T11:05:58Z</time>
      </trkpt>
      <trkpt lat="43.50085" lon="6.88809">
        <ele>310.3</ele>
        <time>2022-11-20T11:06:05Z</time>
      </trkpt>
      <trkpt lat="43.50086" lon="6.88822">
        <ele>310.2</ele>
        <time>2022-11-20T11:06:13Z</time>
      </trkpt>
      <trkpt lat="43.50086" lon="6.88835">
        <ele>310.1</ele>
        <time>2022-11-20T11:06:22Z</time>
      </trkpt>
      <trkpt lat="43.50085" lon="6.88847">
        <ele>309.8</ele>
        <time>2022-11-20T11:06:32Z</time>
      </trkpt>
      <trkpt lat="43.50084" lon="6.8886">
        <ele>309.7</ele>
        <time>2022-11-20T11:06:40Z</time>
      </trkpt>
      <trkpt lat="43.50082" lon="6.88874">
        <ele>309.7</ele>
        <time>2022-11-20T11:06:48Z</time>
      </trkpt>
      <trkpt lat="43.50079" lon="6.88887">
        <ele>309.7</ele>
        <time>2022-11-20T11:06:56Z</time>
      </trkpt>
      <trkpt lat="43.50078" lon="6.88901">
        <ele>309.7</ele>
        <time>2022-11-20T11:07:04Z</time>
      </trkpt>
      <trkpt lat="43.50074" lon="6.88913">
        <ele>309.9</ele>
        <time>2022-11-20T11:07:11Z</time>
      </trkpt>
      <trkpt lat="43.50069" lon="6.88924">
        <ele>309.9</ele>
        <time>2022-11-20T11:07:19Z</time>
      </trkpt>
      <trkpt lat="43.50063" lon="6.88934">
        <ele>309.8</ele>
        <time>2022-11-20T11:07:26Z</time>
      </trkpt>
      <trkpt lat="43.50058" lon="6.88946">
        <ele>310.1</ele>
        <time>2022-11-20T11:07:34Z</time>
      </trkpt>
      <trkpt lat="43.50051" lon="6.88956">
        <ele>310.1</ele>
        <time>2022-11-20T11:07:42Z</time>
      </trkpt>
      <trkpt lat="43.50044" lon="6.88966">
        <ele>310.1</ele>
        <time>2022-11-20T11:07:50Z</time>
      </trkpt>
      <trkpt lat="43.50036" lon="6.88973">
        <ele>310.2</ele>
        <time>2022-11-20T11:07:57Z</time>
      </trkpt>
      <trkpt lat="43.50027" lon="6.88973">
        <ele>310</ele>
        <time>2022-11-20T11:08:04Z</time>
      </trkpt>
      <trkpt lat="43.50018" lon="6.8897">
        <ele>309.7</ele>
        <time>2022-11-20T11:08:11Z</time>
      </trkpt>
      <trkpt lat="43.5001" lon="6.88965">
        <ele>309.4</ele>
        <time>2022-11-20T11:08:18Z</time>
      </trkpt>
      <trkpt lat="43.49999" lon="6.88963">
        <ele>309.2</ele>
        <time>2022-11-20T11:08:27Z</time>
      </trkpt>
      <trkpt lat="43.49989" lon="6.88961">
        <ele>309</ele>
        <time>2022-11-20T11:08:35Z</time>
      </trkpt>
      <trkpt lat="43.49979" lon="6.88962">
        <ele>308.9</ele>
        <time>2022-11-20T11:08:42Z</time>
      </trkpt>
      <trkpt lat="43.4997" lon="6.88961">
        <ele>308.9</ele>
        <time>2022-11-20T11:08:48Z</time>
      </trkpt>
      <trkpt lat="43.4996" lon="6.88961">
        <ele>308.8</ele>
        <time>2022-11-20T11:08:55Z</time>
      </trkpt>
      <trkpt lat="43.49949" lon="6.88961">
        <ele>308.7</ele>
        <time>2022-11-20T11:09:02Z</time>
      </trkpt>
      <trkpt lat="43.49941" lon="6.88966">
        <ele>308.6</ele>
        <time>2022-11-20T11:09:09Z</time>
      </trkpt>
      <trkpt lat="43.49932" lon="6.88974">
        <ele>308.4</ele>
        <time>2022-11-20T11:09:16Z</time>
      </trkpt>
      <trkpt lat="43.49926" lon="6.88984">
        <ele>308.3</ele>
        <time>2022-11-20T11:09:23Z</time>
      </trkpt>
      <trkpt lat="43.49921" lon="6.88996">
        <ele>308</ele>
        <time>2022-11-20T11:09:30Z</time>
      </trkpt>
      <trkpt lat="43.49918" lon="6.8901">
        <ele>307.6</ele>
        <time>2022-11-20T11:09:38Z</time>
      </trkpt>
      <trkpt lat="43.49917" lon="6.89024">
        <ele>307.3</ele>
        <time>2022-11-20T11:09:46Z</time>
      </trkpt>
      <trkpt lat="43.49917" lon="6.89036">
        <ele>307</ele>
        <time>2022-11-20T11:09:53Z</time>
      </trkpt>
      <trkpt lat="43.49918" lon="6.89049">
        <ele>307</ele>
        <time>2022-11-20T11:10:00Z</time>
      </trkpt>
      <trkpt lat="43.49919" lon="6.89063">
        <ele>306.5</ele>
        <time>2022-11-20T11:10:07Z</time>
      </trkpt>
      <trkpt lat="43.49919" lon="6.89076">
        <ele>305.9</ele>
        <time>2022-11-20T11:10:15Z</time>
      </trkpt>
      <trkpt lat="43.4992" lon="6.89089">
        <ele>305.5</ele>
        <time>2022-11-20T11:10:22Z</time>
      </trkpt>
      <trkpt lat="43.4992" lon="6.89102">
        <ele>305.5</ele>
        <time>2022-11-20T11:10:30Z</time>
      </trkpt>
      <trkpt lat="43.49922" lon="6.89115">
        <ele>305.3</ele>
        <time>2022-11-20T11:10:37Z</time>
      </trkpt>
      <trkpt lat="43.49924" lon="6.89128">
        <ele>304.9</ele>
        <time>2022-11-20T11:10:44Z</time>
      </trkpt>
      <trkpt lat="43.49924" lon="6.8914">
        <ele>304.7</ele>
        <time>2022-11-20T11:10:51Z</time>
      </trkpt>
      <trkpt lat="43.49926" lon="6.89154">
        <ele>304.3</ele>
        <time>2022-11-20T11:10:58Z</time>
      </trkpt>
      <trkpt lat="43.49928" lon="6.89167">
        <ele>303.6</ele>
        <time>2022-11-20T11:11:06Z</time>
      </trkpt>
      <trkpt lat="43.49931" lon="6.8918">
        <ele>303.6</ele>
        <time>2022-11-20T11:11:13Z</time>
      </trkpt>
      <trkpt lat="43.49933" lon="6.89193">
        <ele>303.3</ele>
        <time>2022-11-20T11:11:20Z</time>
      </trkpt>
      <trkpt lat="43.49933" lon="6.89206">
        <ele>303.3</ele>
        <time>2022-11-20T11:11:27Z</time>
      </trkpt>
      <trkpt lat="43.49931" lon="6.89219">
        <ele>302.9</ele>
        <time>2022-11-20T11:11:35Z</time>
      </trkpt>
      <trkpt lat="43.49924" lon="6.89227">
        <ele>302.8</ele>
        <time>2022-11-20T11:11:42Z</time>
      </trkpt>
      <trkpt lat="43.49916" lon="6.89232">
        <ele>302.7</ele>
        <time>2022-11-20T11:11:49Z</time>
      </trkpt>
      <trkpt lat="43.49907" lon="6.89237">
        <ele>302.8</ele>
        <time>2022-11-20T11:11:57Z</time>
      </trkpt>
      <trkpt lat="43.49899" lon="6.89242">
        <ele>302.6</ele>
        <time>2022-11-20T11:12:05Z</time>
      </trkpt>
      <trkpt lat="43.4989" lon="6.89245">
        <ele>302.3</ele>
        <time>2022-11-20T11:12:11Z</time>
      </trkpt>
      <trkpt lat="43.4988" lon="6.8925">
        <ele>302.1</ele>
        <time>2022-11-20T11:12:18Z</time>
      </trkpt>
      <trkpt lat="43.49872" lon="6.89256">
        <ele>302</ele>
        <time>2022-11-20T11:12:25Z</time>
      </trkpt>
      <trkpt lat="43.49864" lon="6.89263">
        <ele>301.7</ele>
        <time>2022-11-20T11:12:32Z</time>
      </trkpt>
      <trkpt lat="43.49855" lon="6.89269">
        <ele>301.2</ele>
        <time>2022-11-20T11:12:40Z</time>
      </trkpt>
      <trkpt lat="43.49863" lon="6.89262">
        <ele>301</ele>
        <time>2022-11-20T11:13:14Z</time>
      </trkpt>
      <trkpt lat="43.49871" lon="6.89255">
        <ele>301.1</ele>
        <time>2022-11-20T11:13:23Z</time>
      </trkpt>
      <trkpt lat="43.49862" lon="6.89255">
        <ele>299.1</ele>
        <time>2022-11-20T11:13:43Z</time>
      </trkpt>
      <trkpt lat="43.49853" lon="6.8926">
        <ele>298</ele>
        <time>2022-11-20T11:13:53Z</time>
      </trkpt>
      <trkpt lat="43.49844" lon="6.89265">
        <ele>297.1</ele>
        <time>2022-11-20T11:14:02Z</time>
      </trkpt>
      <trkpt lat="43.49834" lon="6.89268">
        <ele>296.6</ele>
        <time>2022-11-20T11:14:10Z</time>
      </trkpt>
      <trkpt lat="43.49825" lon="6.89266">
        <ele>295.6</ele>
        <time>2022-11-20T11:14:18Z</time>
      </trkpt>
      <trkpt lat="43.49816" lon="6.89262">
        <ele>294.5</ele>
        <time>2022-11-20T11:14:25Z</time>
      </trkpt>
      <trkpt lat="43.49807" lon="6.89259">
        <ele>293.4</ele>
        <time>2022-11-20T11:14:33Z</time>
      </trkpt>
      <trkpt lat="43.49798" lon="6.89254">
        <ele>292.1</ele>
        <time>2022-11-20T11:14:41Z</time>
      </trkpt>
      <trkpt lat="43.4979" lon="6.89249">
        <ele>291</ele>
        <time>2022-11-20T11:14:49Z</time>
      </trkpt>
      <trkpt lat="43.49781" lon="6.89245">
        <ele>289.9</ele>
        <time>2022-11-20T11:14:57Z</time>
      </trkpt>
      <trkpt lat="43.49772" lon="6.8924">
        <ele>288.5</ele>
        <time>2022-11-20T11:15:06Z</time>
      </trkpt>
      <trkpt lat="43.49762" lon="6.89238">
        <ele>287</ele>
        <time>2022-11-20T11:15:14Z</time>
      </trkpt>
      <trkpt lat="43.49753" lon="6.89241">
        <ele>286.1</ele>
        <time>2022-11-20T11:15:22Z</time>
      </trkpt>
      <trkpt lat="43.49745" lon="6.89245">
        <ele>285.1</ele>
        <time>2022-11-20T11:15:30Z</time>
      </trkpt>
      <trkpt lat="43.49736" lon="6.89248">
        <ele>283.8</ele>
        <time>2022-11-20T11:15:38Z</time>
      </trkpt>
      <trkpt lat="43.49727" lon="6.89252">
        <ele>282.4</ele>
        <time>2022-11-20T11:15:45Z</time>
      </trkpt>
      <trkpt lat="43.49718" lon="6.89255">
        <ele>281.3</ele>
        <time>2022-11-20T11:15:53Z</time>
      </trkpt>
      <trkpt lat="43.49708" lon="6.89259">
        <ele>280.2</ele>
        <time>2022-11-20T11:16:01Z</time>
      </trkpt>
      <trkpt lat="43.49699" lon="6.89262">
        <ele>279.3</ele>
        <time>2022-11-20T11:16:09Z</time>
      </trkpt>
      <trkpt lat="43.4969" lon="6.89263">
        <ele>277.7</ele>
        <time>2022-11-20T11:16:16Z</time>
      </trkpt>
      <trkpt lat="43.49681" lon="6.89261">
        <ele>276.4</ele>
        <time>2022-11-20T11:16:24Z</time>
      </trkpt>
      <trkpt lat="43.49672" lon="6.89258">
        <ele>275.3</ele>
        <time>2022-11-20T11:16:31Z</time>
      </trkpt>
      <trkpt lat="43.49662" lon="6.89259">
        <ele>274</ele>
        <time>2022-11-20T11:16:40Z</time>
      </trkpt>
      <trkpt lat="43.49653" lon="6.89259">
        <ele>272.7</ele>
        <time>2022-11-20T11:16:48Z</time>
      </trkpt>
      <trkpt lat="43.49644" lon="6.89262">
        <ele>271.9</ele>
        <time>2022-11-20T11:16:56Z</time>
      </trkpt>
      <trkpt lat="43.49634" lon="6.89268">
        <ele>270.8</ele>
        <time>2022-11-20T11:17:05Z</time>
      </trkpt>
      <trkpt lat="43.49625" lon="6.89273">
        <ele>269.3</ele>
        <time>2022-11-20T11:17:14Z</time>
      </trkpt>
      <trkpt lat="43.49617" lon="6.89277">
        <ele>268.1</ele>
        <time>2022-11-20T11:17:22Z</time>
      </trkpt>
      <trkpt lat="43.49607" lon="6.89276">
        <ele>266.8</ele>
        <time>2022-11-20T11:17:30Z</time>
      </trkpt>
      <trkpt lat="43.49598" lon="6.89272">
        <ele>265.6</ele>
        <time>2022-11-20T11:17:38Z</time>
      </trkpt>
      <trkpt lat="43.4959" lon="6.89265">
        <ele>264.9</ele>
        <time>2022-11-20T11:17:46Z</time>
      </trkpt>
      <trkpt lat="43.49582" lon="6.89257">
        <ele>264.2</ele>
        <time>2022-11-20T11:17:54Z</time>
      </trkpt>
      <trkpt lat="43.49574" lon="6.89251">
        <ele>263.3</ele>
        <time>2022-11-20T11:18:01Z</time>
      </trkpt>
      <trkpt lat="43.49566" lon="6.89245">
        <ele>262.3</ele>
        <time>2022-11-20T11:18:09Z</time>
      </trkpt>
      <trkpt lat="43.49557" lon="6.8924">
        <ele>261.8</ele>
        <time>2022-11-20T11:18:16Z</time>
      </trkpt>
      <trkpt lat="43.49548" lon="6.89235">
        <ele>261</ele>
        <time>2022-11-20T11:18:25Z</time>
      </trkpt>
      <trkpt lat="43.49539" lon="6.89234">
        <ele>260.4</ele>
        <time>2022-11-20T11:18:32Z</time>
      </trkpt>
      <trkpt lat="43.49529" lon="6.89234">
        <ele>259.7</ele>
        <time>2022-11-20T11:18:40Z</time>
      </trkpt>
      <trkpt lat="43.49519" lon="6.89235">
        <ele>259.7</ele>
        <time>2022-11-20T11:18:48Z</time>
      </trkpt>
      <trkpt lat="43.49509" lon="6.89232">
        <ele>259.3</ele>
        <time>2022-11-20T11:18:55Z</time>
      </trkpt>
      <trkpt lat="43.495" lon="6.89229">
        <ele>258.8</ele>
        <time>2022-11-20T11:19:02Z</time>
      </trkpt>
      <trkpt lat="43.4949" lon="6.89229">
        <ele>258.5</ele>
        <time>2022-11-20T11:19:09Z</time>
      </trkpt>
      <trkpt lat="43.4948" lon="6.89229">
        <ele>258.4</ele>
        <time>2022-11-20T11:19:15Z</time>
      </trkpt>
      <trkpt lat="43.49471" lon="6.89226">
        <ele>258.4</ele>
        <time>2022-11-20T11:19:21Z</time>
      </trkpt>
      <trkpt lat="43.49463" lon="6.89219">
        <ele>258.1</ele>
        <time>2022-11-20T11:19:28Z</time>
      </trkpt>
      <trkpt lat="43.49457" lon="6.8921">
        <ele>257.5</ele>
        <time>2022-11-20T11:19:34Z</time>
      </trkpt>
      <trkpt lat="43.49449" lon="6.89201">
        <ele>257</ele>
        <time>2022-11-20T11:19:41Z</time>
      </trkpt>
      <trkpt lat="43.49444" lon="6.8919">
        <ele>256.5</ele>
        <time>2022-11-20T11:19:50Z</time>
      </trkpt>
      <trkpt lat="43.49441" lon="6.89179">
        <ele>255.3</ele>
        <time>2022-11-20T11:21:54Z</time>
      </trkpt>
      <trkpt lat="43.49438" lon="6.89166">
        <ele>255.2</ele>
        <time>2022-11-20T11:22:30Z</time>
      </trkpt>
      <trkpt lat="43.49436" lon="6.89154">
        <ele>255.2</ele>
        <time>2022-11-20T11:22:38Z</time>
      </trkpt>
      <trkpt lat="43.49432" lon="6.89141">
        <ele>254.8</ele>
        <time>2022-11-20T11:22:46Z</time>
      </trkpt>
      <trkpt lat="43.49431" lon="6.89128">
        <ele>254.8</ele>
        <time>2022-11-20T11:22:57Z</time>
      </trkpt>
      <trkpt lat="43.49427" lon="6.89116">
        <ele>254.5</ele>
        <time>2022-11-20T11:23:08Z</time>
      </trkpt>
      <trkpt lat="43.49423" lon="6.89104">
        <ele>254.2</ele>
        <time>2022-11-20T11:23:18Z</time>
      </trkpt>
      <trkpt lat="43.4942" lon="6.89092">
        <ele>253.7</ele>
        <time>2022-11-20T11:23:26Z</time>
      </trkpt>
      <trkpt lat="43.49418" lon="6.8908">
        <ele>253.4</ele>
        <time>2022-11-20T11:23:34Z</time>
      </trkpt>
      <trkpt lat="43.49418" lon="6.89066">
        <ele>253.4</ele>
        <time>2022-11-20T11:23:44Z</time>
      </trkpt>
      <trkpt lat="43.49417" lon="6.89053">
        <ele>253.6</ele>
        <time>2022-11-20T11:23:53Z</time>
      </trkpt>
      <trkpt lat="43.49415" lon="6.8904">
        <ele>253.8</ele>
        <time>2022-11-20T11:24:03Z</time>
      </trkpt>
      <trkpt lat="43.49417" lon="6.89027">
        <ele>254</ele>
        <time>2022-11-20T11:24:11Z</time>
      </trkpt>
      <trkpt lat="43.4942" lon="6.89014">
        <ele>254.3</ele>
        <time>2022-11-20T11:24:19Z</time>
      </trkpt>
      <trkpt lat="43.49423" lon="6.89002">
        <ele>254.5</ele>
        <time>2022-11-20T11:24:26Z</time>
      </trkpt>
      <trkpt lat="43.49425" lon="6.88989">
        <ele>255.2</ele>
        <time>2022-11-20T11:24:34Z</time>
      </trkpt>
      <trkpt lat="43.49426" lon="6.88976">
        <ele>255.4</ele>
        <time>2022-11-20T11:24:42Z</time>
      </trkpt>
      <trkpt lat="43.49425" lon="6.88962">
        <ele>255.8</ele>
        <time>2022-11-20T11:24:51Z</time>
      </trkpt>
      <trkpt lat="43.49427" lon="6.88949">
        <ele>256.4</ele>
        <time>2022-11-20T11:24:59Z</time>
      </trkpt>
      <trkpt lat="43.49428" lon="6.88936">
        <ele>256.5</ele>
        <time>2022-11-20T11:25:07Z</time>
      </trkpt>
      <trkpt lat="43.49428" lon="6.88923">
        <ele>256.9</ele>
        <time>2022-11-20T11:25:15Z</time>
      </trkpt>
      <trkpt lat="43.49428" lon="6.8891">
        <ele>257</ele>
        <time>2022-11-20T11:25:22Z</time>
      </trkpt>
      <trkpt lat="43.49429" lon="6.88898">
        <ele>257.3</ele>
        <time>2022-11-20T11:25:31Z</time>
      </trkpt>
      <trkpt lat="43.49427" lon="6.88884">
        <ele>257</ele>
        <time>2022-11-20T11:25:40Z</time>
      </trkpt>
      <trkpt lat="43.49425" lon="6.88871">
        <ele>256.3</ele>
        <time>2022-11-20T11:25:48Z</time>
      </trkpt>
      <trkpt lat="43.4942" lon="6.8886">
        <ele>255.7</ele>
        <time>2022-11-20T11:25:56Z</time>
      </trkpt>
      <trkpt lat="43.49414" lon="6.88849">
        <ele>255.3</ele>
        <time>2022-11-20T11:26:05Z</time>
      </trkpt>
      <trkpt lat="43.49407" lon="6.88838">
        <ele>255.1</ele>
        <time>2022-11-20T11:26:13Z</time>
      </trkpt>
      <trkpt lat="43.49403" lon="6.88827">
        <ele>254.9</ele>
        <time>2022-11-20T11:26:20Z</time>
      </trkpt>
      <trkpt lat="43.494" lon="6.88814">
        <ele>254.8</ele>
        <time>2022-11-20T11:26:27Z</time>
      </trkpt>
      <trkpt lat="43.49397" lon="6.88802">
        <ele>254.9</ele>
        <time>2022-11-20T11:26:36Z</time>
      </trkpt>
      <trkpt lat="43.49393" lon="6.8879">
        <ele>254.9</ele>
        <time>2022-11-20T11:26:44Z</time>
      </trkpt>
      <trkpt lat="43.49388" lon="6.88779">
        <ele>255.4</ele>
        <time>2022-11-20T11:26:53Z</time>
      </trkpt>
      <trkpt lat="43.49384" lon="6.88767">
        <ele>255.6</ele>
        <time>2022-11-20T11:26:59Z</time>
      </trkpt>
      <trkpt lat="43.4938" lon="6.88754">
        <ele>255.3</ele>
        <time>2022-11-20T11:27:06Z</time>
      </trkpt>
      <trkpt lat="43.49373" lon="6.88745">
        <ele>255.6</ele>
        <time>2022-11-20T11:27:14Z</time>
      </trkpt>
      <trkpt lat="43.49363" lon="6.88741">
        <ele>255.5</ele>
        <time>2022-11-20T11:27:22Z</time>
      </trkpt>
      <trkpt lat="43.49354" lon="6.8874">
        <ele>255</ele>
        <time>2022-11-20T11:27:29Z</time>
      </trkpt>
      <trkpt lat="43.49344" lon="6.8874">
        <ele>254.6</ele>
        <time>2022-11-20T11:27:38Z</time>
      </trkpt>
      <trkpt lat="43.49334" lon="6.8874">
        <ele>254.3</ele>
        <time>2022-11-20T11:27:46Z</time>
      </trkpt>
      <trkpt lat="43.49324" lon="6.88742">
        <ele>254.1</ele>
        <time>2022-11-20T11:27:53Z</time>
      </trkpt>
      <trkpt lat="43.49315" lon="6.88747">
        <ele>254.2</ele>
        <time>2022-11-20T11:28:01Z</time>
      </trkpt>
      <trkpt lat="43.49307" lon="6.88753">
        <ele>253.7</ele>
        <time>2022-11-20T11:28:08Z</time>
      </trkpt>
      <trkpt lat="43.49298" lon="6.88758">
        <ele>253.4</ele>
        <time>2022-11-20T11:28:15Z</time>
      </trkpt>
      <trkpt lat="43.49289" lon="6.88762">
        <ele>253.1</ele>
        <time>2022-11-20T11:28:23Z</time>
      </trkpt>
      <trkpt lat="43.49279" lon="6.88765">
        <ele>252.5</ele>
        <time>2022-11-20T11:28:31Z</time>
      </trkpt>
      <trkpt lat="43.49269" lon="6.88763">
        <ele>252.6</ele>
        <time>2022-11-20T11:28:38Z</time>
      </trkpt>
      <trkpt lat="43.49259" lon="6.88763">
        <ele>252.5</ele>
        <time>2022-11-20T11:28:45Z</time>
      </trkpt>
      <trkpt lat="43.4925" lon="6.88762">
        <ele>252.3</ele>
        <time>2022-11-20T11:28:52Z</time>
      </trkpt>
      <trkpt lat="43.49241" lon="6.88758">
        <ele>251.8</ele>
        <time>2022-11-20T11:29:01Z</time>
      </trkpt>
      <trkpt lat="43.49234" lon="6.88748">
        <ele>251.9</ele>
        <time>2022-11-20T11:29:08Z</time>
      </trkpt>
      <trkpt lat="43.49229" lon="6.88737">
        <ele>251.9</ele>
        <time>2022-11-20T11:29:18Z</time>
      </trkpt>
      <trkpt lat="43.49222" lon="6.88729">
        <ele>251.4</ele>
        <time>2022-11-20T11:29:25Z</time>
      </trkpt>
      <trkpt lat="43.49213" lon="6.88728">
        <ele>250.9</ele>
        <time>2022-11-20T11:29:34Z</time>
      </trkpt>
      <trkpt lat="43.49203" lon="6.88726">
        <ele>250.5</ele>
        <time>2022-11-20T11:29:41Z</time>
      </trkpt>
      <trkpt lat="43.49194" lon="6.88727">
        <ele>250</ele>
        <time>2022-11-20T11:29:50Z</time>
      </trkpt>
      <trkpt lat="43.49185" lon="6.88725">
        <ele>249.7</ele>
        <time>2022-11-20T11:29:57Z</time>
      </trkpt>
      <trkpt lat="43.49175" lon="6.88725">
        <ele>249.5</ele>
        <time>2022-11-20T11:30:04Z</time>
      </trkpt>
      <trkpt lat="43.49165" lon="6.88725">
        <ele>249.2</ele>
        <time>2022-11-20T11:30:11Z</time>
      </trkpt>
      <trkpt lat="43.49155" lon="6.88723">
        <ele>248.9</ele>
        <time>2022-11-20T11:30:19Z</time>
      </trkpt>
      <trkpt lat="43.49146" lon="6.88725">
        <ele>248.7</ele>
        <time>2022-11-20T11:30:27Z</time>
      </trkpt>
      <trkpt lat="43.49136" lon="6.88727">
        <ele>248.2</ele>
        <time>2022-11-20T11:30:35Z</time>
      </trkpt>
      <trkpt lat="43.49127" lon="6.88733">
        <ele>247.7</ele>
        <time>2022-11-20T11:30:44Z</time>
      </trkpt>
      <trkpt lat="43.49117" lon="6.88732">
        <ele>247.2</ele>
        <time>2022-11-20T11:30:52Z</time>
      </trkpt>
      <trkpt lat="43.49108" lon="6.88728">
        <ele>247.2</ele>
        <time>2022-11-20T11:30:58Z</time>
      </trkpt>
      <trkpt lat="43.49098" lon="6.88726">
        <ele>247.4</ele>
        <time>2022-11-20T11:31:06Z</time>
      </trkpt>
      <trkpt lat="43.49088" lon="6.88723">
        <ele>247.1</ele>
        <time>2022-11-20T11:31:13Z</time>
      </trkpt>
      <trkpt lat="43.49079" lon="6.88718">
        <ele>246.9</ele>
        <time>2022-11-20T11:31:19Z</time>
      </trkpt>
      <trkpt lat="43.49071" lon="6.88712">
        <ele>246.6</ele>
        <time>2022-11-20T11:31:26Z</time>
      </trkpt>
      <trkpt lat="43.49061" lon="6.88705">
        <ele>246.5</ele>
        <time>2022-11-20T11:31:33Z</time>
      </trkpt>
      <trkpt lat="43.49052" lon="6.88701">
        <ele>246.1</ele>
        <time>2022-11-20T11:31:42Z</time>
      </trkpt>
      <trkpt lat="43.49043" lon="6.887">
        <ele>245.7</ele>
        <time>2022-11-20T11:31:51Z</time>
      </trkpt>
      <trkpt lat="43.49033" lon="6.887">
        <ele>245.4</ele>
        <time>2022-11-20T11:31:58Z</time>
      </trkpt>
      <trkpt lat="43.49023" lon="6.887">
        <ele>245.3</ele>
        <time>2022-11-20T11:32:04Z</time>
      </trkpt>
      <trkpt lat="43.49014" lon="6.88703">
        <ele>244.9</ele>
        <time>2022-11-20T11:32:11Z</time>
      </trkpt>
      <trkpt lat="43.49006" lon="6.88708">
        <ele>244.6</ele>
        <time>2022-11-20T11:32:18Z</time>
      </trkpt>
      <trkpt lat="43.48997" lon="6.88716">
        <ele>244.4</ele>
        <time>2022-11-20T11:32:25Z</time>
      </trkpt>
      <trkpt lat="43.48991" lon="6.88725">
        <ele>244</ele>
        <time>2022-11-20T11:32:33Z</time>
      </trkpt>
      <trkpt lat="43.48983" lon="6.88733">
        <ele>243.6</ele>
        <time>2022-11-20T11:32:41Z</time>
      </trkpt>
      <trkpt lat="43.48976" lon="6.88743">
        <ele>243.5</ele>
        <time>2022-11-20T11:32:48Z</time>
      </trkpt>
      <trkpt lat="43.48969" lon="6.88752">
        <ele>243.1</ele>
        <time>2022-11-20T11:32:55Z</time>
      </trkpt>
      <trkpt lat="43.48961" lon="6.8876">
        <ele>243</ele>
        <time>2022-11-20T11:33:02Z</time>
      </trkpt>
      <trkpt lat="43.48953" lon="6.88767">
        <ele>242.7</ele>
        <time>2022-11-20T11:33:10Z</time>
      </trkpt>
      <trkpt lat="43.48945" lon="6.88774">
        <ele>242.5</ele>
        <time>2022-11-20T11:33:17Z</time>
      </trkpt>
      <trkpt lat="43.48938" lon="6.88784">
        <ele>242.4</ele>
        <time>2022-11-20T11:33:25Z</time>
      </trkpt>
      <trkpt lat="43.48928" lon="6.88789">
        <ele>242</ele>
        <time>2022-11-20T11:33:32Z</time>
      </trkpt>
      <trkpt lat="43.48919" lon="6.88793">
        <ele>241.6</ele>
        <time>2022-11-20T11:33:39Z</time>
      </trkpt>
      <trkpt lat="43.48909" lon="6.88794">
        <ele>241.5</ele>
        <time>2022-11-20T11:33:48Z</time>
      </trkpt>
      <trkpt lat="43.48899" lon="6.88794">
        <ele>241.2</ele>
        <time>2022-11-20T11:33:56Z</time>
      </trkpt>
      <trkpt lat="43.4889" lon="6.88796">
        <ele>241</ele>
        <time>2022-11-20T11:34:55Z</time>
      </trkpt>
      <trkpt lat="43.48885" lon="6.88807">
        <ele>240.4</ele>
        <time>2022-11-20T11:35:27Z</time>
      </trkpt>
      <trkpt lat="43.48884" lon="6.8882">
        <ele>239.2</ele>
        <time>2022-11-20T11:35:37Z</time>
      </trkpt>
      <trkpt lat="43.48882" lon="6.88833">
        <ele>238.5</ele>
        <time>2022-11-20T11:35:45Z</time>
      </trkpt>
      <trkpt lat="43.48877" lon="6.88844">
        <ele>237.4</ele>
        <time>2022-11-20T11:35:53Z</time>
      </trkpt>
      <trkpt lat="43.48872" lon="6.88856">
        <ele>236.4</ele>
        <time>2022-11-20T11:36:01Z</time>
      </trkpt>
      <trkpt lat="43.48867" lon="6.88868">
        <ele>235.7</ele>
        <time>2022-11-20T11:36:10Z</time>
      </trkpt>
      <trkpt lat="43.48864" lon="6.8888">
        <ele>234.4</ele>
        <time>2022-11-20T11:36:19Z</time>
      </trkpt>
      <trkpt lat="43.48861" lon="6.88893">
        <ele>233.5</ele>
        <time>2022-11-20T11:36:27Z</time>
      </trkpt>
      <trkpt lat="43.48858" lon="6.88906">
        <ele>232.3</ele>
        <time>2022-11-20T11:36:34Z</time>
      </trkpt>
      <trkpt lat="43.48858" lon="6.88919">
        <ele>231</ele>
        <time>2022-11-20T11:36:42Z</time>
      </trkpt>
      <trkpt lat="43.48857" lon="6.88932">
        <ele>230.3</ele>
        <time>2022-11-20T11:36:49Z</time>
      </trkpt>
      <trkpt lat="43.48856" lon="6.88945">
        <ele>229.3</ele>
        <time>2022-11-20T11:36:57Z</time>
      </trkpt>
      <trkpt lat="43.48857" lon="6.88959">
        <ele>228.3</ele>
        <time>2022-11-20T11:37:05Z</time>
      </trkpt>
      <trkpt lat="43.48855" lon="6.88973">
        <ele>227</ele>
        <time>2022-11-20T11:37:14Z</time>
      </trkpt>
      <trkpt lat="43.48852" lon="6.88985">
        <ele>225.7</ele>
        <time>2022-11-20T11:37:22Z</time>
      </trkpt>
      <trkpt lat="43.48848" lon="6.88997">
        <ele>224.9</ele>
        <time>2022-11-20T11:37:29Z</time>
      </trkpt>
      <trkpt lat="43.48844" lon="6.89008">
        <ele>223.9</ele>
        <time>2022-11-20T11:37:35Z</time>
      </trkpt>
      <trkpt lat="43.48837" lon="6.89019">
        <ele>223</ele>
        <time>2022-11-20T11:37:43Z</time>
      </trkpt>
      <trkpt lat="43.48831" lon="6.89029">
        <ele>222.2</ele>
        <time>2022-11-20T11:37:51Z</time>
      </trkpt>
      <trkpt lat="43.48826" lon="6.8904">
        <ele>221.3</ele>
        <time>2022-11-20T11:37:59Z</time>
      </trkpt>
      <trkpt lat="43.48823" lon="6.89053">
        <ele>220.6</ele>
        <time>2022-11-20T11:38:07Z</time>
      </trkpt>
      <trkpt lat="43.4882" lon="6.89066">
        <ele>219.3</ele>
        <time>2022-11-20T11:38:15Z</time>
      </trkpt>
      <trkpt lat="43.48816" lon="6.89078">
        <ele>218.2</ele>
        <time>2022-11-20T11:38:22Z</time>
      </trkpt>
      <trkpt lat="43.48812" lon="6.8909">
        <ele>216.8</ele>
        <time>2022-11-20T11:38:31Z</time>
      </trkpt>
      <trkpt lat="43.48807" lon="6.89101">
        <ele>216.2</ele>
        <time>2022-11-20T11:38:39Z</time>
      </trkpt>
      <trkpt lat="43.48802" lon="6.89111">
        <ele>215.2</ele>
        <time>2022-11-20T11:38:48Z</time>
      </trkpt>
      <trkpt lat="43.48798" lon="6.89124">
        <ele>214.4</ele>
        <time>2022-11-20T11:38:56Z</time>
      </trkpt>
      <trkpt lat="43.48795" lon="6.89137">
        <ele>213.4</ele>
        <time>2022-11-20T11:39:05Z</time>
      </trkpt>
      <trkpt lat="43.48792" lon="6.89149">
        <ele>212.3</ele>
        <time>2022-11-20T11:39:13Z</time>
      </trkpt>
      <trkpt lat="43.48787" lon="6.8916">
        <ele>211.3</ele>
        <time>2022-11-20T11:39:20Z</time>
      </trkpt>
      <trkpt lat="43.48782" lon="6.89171">
        <ele>210.6</ele>
        <time>2022-11-20T11:39:29Z</time>
      </trkpt>
      <trkpt lat="43.48777" lon="6.89183">
        <ele>209.4</ele>
        <time>2022-11-20T11:39:38Z</time>
      </trkpt>
      <trkpt lat="43.48771" lon="6.89194">
        <ele>208.3</ele>
        <time>2022-11-20T11:39:47Z</time>
      </trkpt>
      <trkpt lat="43.48766" lon="6.89205">
        <ele>207.1</ele>
        <time>2022-11-20T11:39:55Z</time>
      </trkpt>
      <trkpt lat="43.48764" lon="6.89219">
        <ele>205.9</ele>
        <time>2022-11-20T11:40:04Z</time>
      </trkpt>
      <trkpt lat="43.48765" lon="6.89232">
        <ele>205.1</ele>
        <time>2022-11-20T11:40:12Z</time>
      </trkpt>
      <trkpt lat="43.48771" lon="6.89242">
        <ele>204</ele>
        <time>2022-11-20T11:40:21Z</time>
      </trkpt>
      <trkpt lat="43.48779" lon="6.89251">
        <ele>203.2</ele>
        <time>2022-11-20T11:40:30Z</time>
      </trkpt>
      <trkpt lat="43.48782" lon="6.89263">
        <ele>202.2</ele>
        <time>2022-11-20T11:40:39Z</time>
      </trkpt>
      <trkpt lat="43.48783" lon="6.89276">
        <ele>201.1</ele>
        <time>2022-11-20T11:40:49Z</time>
      </trkpt>
      <trkpt lat="43.48787" lon="6.89288">
        <ele>200.2</ele>
        <time>2022-11-20T11:40:59Z</time>
      </trkpt>
      <trkpt lat="43.48792" lon="6.89299">
        <ele>199</ele>
        <time>2022-11-20T11:41:09Z</time>
      </trkpt>
      <trkpt lat="43.48797" lon="6.8931">
        <ele>198.2</ele>
        <time>2022-11-20T11:41:17Z</time>
      </trkpt>
      <trkpt lat="43.48803" lon="6.89322">
        <ele>197.3</ele>
        <time>2022-11-20T11:41:26Z</time>
      </trkpt>
      <trkpt lat="43.48808" lon="6.89333">
        <ele>196.1</ele>
        <time>2022-11-20T11:41:35Z</time>
      </trkpt>
      <trkpt lat="43.48807" lon="6.89347">
        <ele>194.9</ele>
        <time>2022-11-20T11:41:44Z</time>
      </trkpt>
      <trkpt lat="43.48807" lon="6.8936">
        <ele>194</ele>
        <time>2022-11-20T11:41:52Z</time>
      </trkpt>
      <trkpt lat="43.48811" lon="6.89371">
        <ele>192.8</ele>
        <time>2022-11-20T11:42:00Z</time>
      </trkpt>
      <trkpt lat="43.48817" lon="6.89381">
        <ele>191.9</ele>
        <time>2022-11-20T11:42:09Z</time>
      </trkpt>
      <trkpt lat="43.48823" lon="6.89391">
        <ele>191.1</ele>
        <time>2022-11-20T11:42:18Z</time>
      </trkpt>
      <trkpt lat="43.4883" lon="6.89401">
        <ele>190.3</ele>
        <time>2022-11-20T11:42:26Z</time>
      </trkpt>
      <trkpt lat="43.48835" lon="6.89413">
        <ele>189.8</ele>
        <time>2022-11-20T11:42:34Z</time>
      </trkpt>
      <trkpt lat="43.48841" lon="6.89422">
        <ele>189.2</ele>
        <time>2022-11-20T11:42:41Z</time>
      </trkpt>
      <trkpt lat="43.48846" lon="6.89433">
        <ele>188.5</ele>
        <time>2022-11-20T11:42:50Z</time>
      </trkpt>
      <trkpt lat="43.48837" lon="6.89436">
        <ele>186.2</ele>
        <time>2022-11-20T11:43:01Z</time>
      </trkpt>
      <trkpt lat="43.48828" lon="6.89433">
        <ele>183.8</ele>
        <time>2022-11-20T11:43:13Z</time>
      </trkpt>
      <trkpt lat="43.48819" lon="6.89428">
        <ele>180.9</ele>
        <time>2022-11-20T11:43:27Z</time>
      </trkpt>
      <trkpt lat="43.48811" lon="6.89421">
        <ele>178.5</ele>
        <time>2022-11-20T11:43:40Z</time>
      </trkpt>
      <trkpt lat="43.48801" lon="6.89419">
        <ele>176.3</ele>
        <time>2022-11-20T11:43:51Z</time>
      </trkpt>
      <trkpt lat="43.48792" lon="6.89414">
        <ele>174.3</ele>
        <time>2022-11-20T11:44:01Z</time>
      </trkpt>
      <trkpt lat="43.48785" lon="6.89405">
        <ele>172.6</ele>
        <time>2022-11-20T11:44:10Z</time>
      </trkpt>
      <trkpt lat="43.48777" lon="6.89397">
        <ele>170.5</ele>
        <time>2022-11-20T11:44:22Z</time>
      </trkpt>
      <trkpt lat="43.48769" lon="6.8939">
        <ele>168.9</ele>
        <time>2022-11-20T11:44:32Z</time>
      </trkpt>
      <trkpt lat="43.48759" lon="6.8939">
        <ele>167.9</ele>
        <time>2022-11-20T11:44:43Z</time>
      </trkpt>
      <trkpt lat="43.48751" lon="6.89395">
        <ele>166.8</ele>
        <time>2022-11-20T11:44:53Z</time>
      </trkpt>
      <trkpt lat="43.48745" lon="6.89405">
        <ele>165.5</ele>
        <time>2022-11-20T11:45:03Z</time>
      </trkpt>
      <trkpt lat="43.48738" lon="6.89414">
        <ele>164</ele>
        <time>2022-11-20T11:45:13Z</time>
      </trkpt>
      <trkpt lat="43.48732" lon="6.89424">
        <ele>162</ele>
        <time>2022-11-20T11:45:22Z</time>
      </trkpt>
      <trkpt lat="43.48726" lon="6.89433">
        <ele>160.2</ele>
        <time>2022-11-20T11:45:32Z</time>
      </trkpt>
      <trkpt lat="43.48717" lon="6.89439">
        <ele>158.7</ele>
        <time>2022-11-20T11:45:45Z</time>
      </trkpt>
      <trkpt lat="43.48708" lon="6.89442">
        <ele>157.1</ele>
        <time>2022-11-20T11:45:55Z</time>
      </trkpt>
      <trkpt lat="43.48699" lon="6.89441">
        <ele>156</ele>
        <time>2022-11-20T11:46:04Z</time>
      </trkpt>
      <trkpt lat="43.4869" lon="6.8944">
        <ele>154.7</ele>
        <time>2022-11-20T11:46:13Z</time>
      </trkpt>
      <trkpt lat="43.48681" lon="6.89438">
        <ele>153</ele>
        <time>2022-11-20T11:46:23Z</time>
      </trkpt>
      <trkpt lat="43.48672" lon="6.8944">
        <ele>151.2</ele>
        <time>2022-11-20T11:46:33Z</time>
      </trkpt>
      <trkpt lat="43.48662" lon="6.89439">
        <ele>149</ele>
        <time>2022-11-20T11:46:44Z</time>
      </trkpt>
      <trkpt lat="43.48652" lon="6.89438">
        <ele>147.1</ele>
        <time>2022-11-20T11:46:55Z</time>
      </trkpt>
      <trkpt lat="43.48643" lon="6.89439">
        <ele>145.5</ele>
        <time>2022-11-20T11:47:04Z</time>
      </trkpt>
      <trkpt lat="43.48633" lon="6.89439">
        <ele>143.9</ele>
        <time>2022-11-20T11:47:13Z</time>
      </trkpt>
      <trkpt lat="43.48624" lon="6.89439">
        <ele>142.2</ele>
        <time>2022-11-20T11:47:41Z</time>
      </trkpt>
      <trkpt lat="43.48628" lon="6.8945">
        <ele>141.8</ele>
        <time>2022-11-20T11:48:15Z</time>
      </trkpt>
      <trkpt lat="43.48635" lon="6.89458">
        <ele>140.2</ele>
        <time>2022-11-20T11:48:27Z</time>
      </trkpt>
      <trkpt lat="43.48643" lon="6.89464">
        <ele>138.5</ele>
        <time>2022-11-20T11:48:36Z</time>
      </trkpt>
      <trkpt lat="43.48652" lon="6.89472">
        <ele>137.3</ele>
        <time>2022-11-20T11:48:46Z</time>
      </trkpt>
      <trkpt lat="43.48661" lon="6.89476">
        <ele>136.4</ele>
        <time>2022-11-20T11:48:55Z</time>
      </trkpt>
      <trkpt lat="43.48668" lon="6.89484">
        <ele>135.3</ele>
        <time>2022-11-20T11:49:05Z</time>
      </trkpt>
      <trkpt lat="43.48672" lon="6.89495">
        <ele>134.8</ele>
        <time>2022-11-20T11:49:14Z</time>
      </trkpt>
      <trkpt lat="43.48676" lon="6.89507">
        <ele>133.6</ele>
        <time>2022-11-20T11:49:22Z</time>
      </trkpt>
      <trkpt lat="43.48676" lon="6.8952">
        <ele>132.3</ele>
        <time>2022-11-20T11:49:32Z</time>
      </trkpt>
      <trkpt lat="43.48668" lon="6.89526">
        <ele>130.9</ele>
        <time>2022-11-20T11:49:45Z</time>
      </trkpt>
      <trkpt lat="43.48659" lon="6.89519">
        <ele>129</ele>
        <time>2022-11-20T11:49:59Z</time>
      </trkpt>
      <trkpt lat="43.48653" lon="6.8951">
        <ele>127.6</ele>
        <time>2022-11-20T11:50:10Z</time>
      </trkpt>
      <trkpt lat="43.48643" lon="6.8951">
        <ele>126.7</ele>
        <time>2022-11-20T11:50:22Z</time>
      </trkpt>
      <trkpt lat="43.48634" lon="6.89513">
        <ele>125.5</ele>
        <time>2022-11-20T11:50:34Z</time>
      </trkpt>
      <trkpt lat="43.48625" lon="6.89514">
        <ele>124</ele>
        <time>2022-11-20T11:50:45Z</time>
      </trkpt>
      <trkpt lat="43.48617" lon="6.8951">
        <ele>122.3</ele>
        <time>2022-11-20T11:50:54Z</time>
      </trkpt>
      <trkpt lat="43.4861" lon="6.89501">
        <ele>119.9</ele>
        <time>2022-11-20T11:51:06Z</time>
      </trkpt>
      <trkpt lat="43.48602" lon="6.89494">
        <ele>118.2</ele>
        <time>2022-11-20T11:51:18Z</time>
      </trkpt>
      <trkpt lat="43.48594" lon="6.89489">
        <ele>116.1</ele>
        <time>2022-11-20T11:51:30Z</time>
      </trkpt>
      <trkpt lat="43.48586" lon="6.89481">
        <ele>114.4</ele>
        <time>2022-11-20T11:51:43Z</time>
      </trkpt>
      <trkpt lat="43.4858" lon="6.89471">
        <ele>112.2</ele>
        <time>2022-11-20T11:51:53Z</time>
      </trkpt>
      <trkpt lat="43.48572" lon="6.89464">
        <ele>110.4</ele>
        <time>2022-11-20T11:52:04Z</time>
      </trkpt>
      <trkpt lat="43.48564" lon="6.8946">
        <ele>108.3</ele>
        <time>2022-11-20T11:52:16Z</time>
      </trkpt>
      <trkpt lat="43.48556" lon="6.89452">
        <ele>106.8</ele>
        <time>2022-11-20T11:52:27Z</time>
      </trkpt>
      <trkpt lat="43.48549" lon="6.89446">
        <ele>104.5</ele>
        <time>2022-11-20T11:52:39Z</time>
      </trkpt>
      <trkpt lat="43.48541" lon="6.89438">
        <ele>101.6</ele>
        <time>2022-11-20T11:52:53Z</time>
      </trkpt>
      <trkpt lat="43.48533" lon="6.8943">
        <ele>99.2</ele>
        <time>2022-11-20T11:53:04Z</time>
      </trkpt>
      <trkpt lat="43.48526" lon="6.89422">
        <ele>97</ele>
        <time>2022-11-20T11:53:17Z</time>
      </trkpt>
      <trkpt lat="43.48518" lon="6.89414">
        <ele>95</ele>
        <time>2022-11-20T11:53:27Z</time>
      </trkpt>
      <trkpt lat="43.48509" lon="6.89412">
        <ele>93.6</ele>
        <time>2022-11-20T11:53:36Z</time>
      </trkpt>
      <trkpt lat="43.48502" lon="6.89404">
        <ele>92.3</ele>
        <time>2022-11-20T11:53:46Z</time>
      </trkpt>
      <trkpt lat="43.48497" lon="6.89392">
        <ele>91.7</ele>
        <time>2022-11-20T11:53:54Z</time>
      </trkpt>
      <trkpt lat="43.48492" lon="6.89382">
        <ele>91.1</ele>
        <time>2022-11-20T11:54:02Z</time>
      </trkpt>
      <trkpt lat="43.48485" lon="6.89374">
        <ele>90.6</ele>
        <time>2022-11-20T11:54:11Z</time>
      </trkpt>
      <trkpt lat="43.48478" lon="6.89365">
        <ele>90.3</ele>
        <time>2022-11-20T11:54:19Z</time>
      </trkpt>
      <trkpt lat="43.48472" lon="6.89354">
        <ele>90</ele>
        <time>2022-11-20T11:54:26Z</time>
      </trkpt>
      <trkpt lat="43.48468" lon="6.89341">
        <ele>89.6</ele>
        <time>2022-11-20T11:54:37Z</time>
      </trkpt>
      <trkpt lat="43.48462" lon="6.89331">
        <ele>89.5</ele>
        <time>2022-11-20T11:54:45Z</time>
      </trkpt>
      <trkpt lat="43.48457" lon="6.8932">
        <ele>89.3</ele>
        <time>2022-11-20T11:54:54Z</time>
      </trkpt>
      <trkpt lat="43.48452" lon="6.89309">
        <ele>88.8</ele>
        <time>2022-11-20T11:55:03Z</time>
      </trkpt>
      <trkpt lat="43.48448" lon="6.89298">
        <ele>88.7</ele>
        <time>2022-11-20T11:55:11Z</time>
      </trkpt>
      <trkpt lat="43.48441" lon="6.89288">
        <ele>88.4</ele>
        <time>2022-11-20T11:55:20Z</time>
      </trkpt>
      <trkpt lat="43.48434" lon="6.89279">
        <ele>87.7</ele>
        <time>2022-11-20T11:55:28Z</time>
      </trkpt>
      <trkpt lat="43.48427" lon="6.8927">
        <ele>87.4</ele>
        <time>2022-11-20T11:55:37Z</time>
      </trkpt>
      <trkpt lat="43.48421" lon="6.89261">
        <ele>87.3</ele>
        <time>2022-11-20T11:55:44Z</time>
      </trkpt>
      <trkpt lat="43.48415" lon="6.8925">
        <ele>86.8</ele>
        <time>2022-11-20T11:55:53Z</time>
      </trkpt>
      <trkpt lat="43.4841" lon="6.89239">
        <ele>86.8</ele>
        <time>2022-11-20T11:56:01Z</time>
      </trkpt>
      <trkpt lat="43.48402" lon="6.8923">
        <ele>86.7</ele>
        <time>2022-11-20T11:56:09Z</time>
      </trkpt>
      <trkpt lat="43.48395" lon="6.89222">
        <ele>86.5</ele>
        <time>2022-11-20T11:56:18Z</time>
      </trkpt>
      <trkpt lat="43.48387" lon="6.89214">
        <ele>86.2</ele>
        <time>2022-11-20T11:56:26Z</time>
      </trkpt>
      <trkpt lat="43.4838" lon="6.89207">
        <ele>86.1</ele>
        <time>2022-11-20T11:56:34Z</time>
      </trkpt>
      <trkpt lat="43.48372" lon="6.89197">
        <ele>85.7</ele>
        <time>2022-11-20T11:56:43Z</time>
      </trkpt>
      <trkpt lat="43.48366" lon="6.89187">
        <ele>85.4</ele>
        <time>2022-11-20T11:56:52Z</time>
      </trkpt>
      <trkpt lat="43.48361" lon="6.89177">
        <ele>85</ele>
        <time>2022-11-20T11:57:01Z</time>
      </trkpt>
      <trkpt lat="43.48357" lon="6.89164">
        <ele>84.4</ele>
        <time>2022-11-20T11:57:11Z</time>
      </trkpt>
      <trkpt lat="43.48353" lon="6.89153">
        <ele>83.9</ele>
        <time>2022-11-20T11:57:19Z</time>
      </trkpt>
      <trkpt lat="43.48348" lon="6.89143">
        <ele>83.2</ele>
        <time>2022-11-20T11:57:30Z</time>
      </trkpt>
      <trkpt lat="43.48342" lon="6.89131">
        <ele>82.7</ele>
        <time>2022-11-20T11:57:40Z</time>
      </trkpt>
      <trkpt lat="43.48341" lon="6.89118">
        <ele>82.5</ele>
        <time>2022-11-20T11:57:49Z</time>
      </trkpt>
      <trkpt lat="43.48345" lon="6.89106">
        <ele>82.2</ele>
        <time>2022-11-20T11:57:59Z</time>
      </trkpt>
      <trkpt lat="43.48347" lon="6.89093">
        <ele>81</ele>
        <time>2022-11-20T11:58:10Z</time>
      </trkpt>
      <trkpt lat="43.48341" lon="6.89083">
        <ele>80.4</ele>
        <time>2022-11-20T11:58:18Z</time>
      </trkpt>
      <trkpt lat="43.48336" lon="6.89072">
        <ele>81.1</ele>
        <time>2022-11-20T11:58:29Z</time>
      </trkpt>
      <trkpt lat="43.48335" lon="6.89059">
        <ele>81.6</ele>
        <time>2022-11-20T11:58:37Z</time>
      </trkpt>
      <trkpt lat="43.48336" lon="6.89046">
        <ele>82.2</ele>
        <time>2022-11-20T11:58:46Z</time>
      </trkpt>
      <trkpt lat="43.48338" lon="6.89034">
        <ele>83.1</ele>
        <time>2022-11-20T11:58:56Z</time>
      </trkpt>
      <trkpt lat="43.48338" lon="6.89021">
        <ele>83.3</ele>
        <time>2022-11-20T11:59:05Z</time>
      </trkpt>
      <trkpt lat="43.48337" lon="6.89009">
        <ele>83.6</ele>
        <time>2022-11-20T11:59:14Z</time>
      </trkpt>
      <trkpt lat="43.48336" lon="6.88996">
        <ele>84.6</ele>
        <time>2022-11-20T11:59:24Z</time>
      </trkpt>
      <trkpt lat="43.48334" lon="6.88983">
        <ele>85</ele>
        <time>2022-11-20T11:59:34Z</time>
      </trkpt>
      <trkpt lat="43.48334" lon="6.8897">
        <ele>85.1</ele>
        <time>2022-11-20T11:59:43Z</time>
      </trkpt>
      <trkpt lat="43.48336" lon="6.88957">
        <ele>84.7</ele>
        <time>2022-11-20T11:59:53Z</time>
      </trkpt>
      <trkpt lat="43.48335" lon="6.88944">
        <ele>83.2</ele>
        <time>2022-11-20T12:00:05Z</time>
      </trkpt>
      <trkpt lat="43.48329" lon="6.88932">
        <ele>81.6</ele>
        <time>2022-11-20T12:00:15Z</time>
      </trkpt>
      <trkpt lat="43.48323" lon="6.88922">
        <ele>80.5</ele>
        <time>2022-11-20T12:00:24Z</time>
      </trkpt>
      <trkpt lat="43.48316" lon="6.88913">
        <ele>79.6</ele>
        <time>2022-11-20T12:00:34Z</time>
      </trkpt>
      <trkpt lat="43.48308" lon="6.88904">
        <ele>79.1</ele>
        <time>2022-11-20T12:00:47Z</time>
      </trkpt>
      <trkpt lat="43.48302" lon="6.88895">
        <ele>78.3</ele>
        <time>2022-11-20T12:00:56Z</time>
      </trkpt>
      <trkpt lat="43.48295" lon="6.88885">
        <ele>77.8</ele>
        <time>2022-11-20T12:01:07Z</time>
      </trkpt>
      <trkpt lat="43.48288" lon="6.88877">
        <ele>77.1</ele>
        <time>2022-11-20T12:01:17Z</time>
      </trkpt>
      <trkpt lat="43.48281" lon="6.88869">
        <ele>76.6</ele>
        <time>2022-11-20T12:01:26Z</time>
      </trkpt>
      <trkpt lat="43.48274" lon="6.88859">
        <ele>75.5</ele>
        <time>2022-11-20T12:01:36Z</time>
      </trkpt>
      <trkpt lat="43.4827" lon="6.88847">
        <ele>74.3</ele>
        <time>2022-11-20T12:01:47Z</time>
      </trkpt>
      <trkpt lat="43.48262" lon="6.88841">
        <ele>73.9</ele>
        <time>2022-11-20T12:01:57Z</time>
      </trkpt>
      <trkpt lat="43.48253" lon="6.88835">
        <ele>72.5</ele>
        <time>2022-11-20T12:02:07Z</time>
      </trkpt>
      <trkpt lat="43.48244" lon="6.88832">
        <ele>71.4</ele>
        <time>2022-11-20T12:02:15Z</time>
      </trkpt>
      <trkpt lat="43.48236" lon="6.88827">
        <ele>70.8</ele>
        <time>2022-11-20T12:02:24Z</time>
      </trkpt>
      <trkpt lat="43.48226" lon="6.88825">
        <ele>71</ele>
        <time>2022-11-20T12:02:55Z</time>
      </trkpt>
      <trkpt lat="43.48218" lon="6.88818">
        <ele>71.3</ele>
        <time>2022-11-20T12:03:03Z</time>
      </trkpt>
      <trkpt lat="43.4821" lon="6.88813">
        <ele>72.3</ele>
        <time>2022-11-20T12:03:11Z</time>
      </trkpt>
      <trkpt lat="43.48201" lon="6.88809">
        <ele>73</ele>
        <time>2022-11-20T12:03:20Z</time>
      </trkpt>
      <trkpt lat="43.48192" lon="6.88804">
        <ele>73.9</ele>
        <time>2022-11-20T12:03:29Z</time>
      </trkpt>
      <trkpt lat="43.48184" lon="6.88799">
        <ele>74</ele>
        <time>2022-11-20T12:03:36Z</time>
      </trkpt>
      <trkpt lat="43.48174" lon="6.88797">
        <ele>74</ele>
        <time>2022-11-20T12:03:44Z</time>
      </trkpt>
      <trkpt lat="43.48164" lon="6.88797">
        <ele>73.5</ele>
        <time>2022-11-20T12:03:52Z</time>
      </trkpt>
      <trkpt lat="43.48155" lon="6.88794">
        <ele>73.8</ele>
        <time>2022-11-20T12:03:59Z</time>
      </trkpt>
      <trkpt lat="43.48147" lon="6.88788">
        <ele>74.2</ele>
        <time>2022-11-20T12:04:04Z</time>
      </trkpt>
      <trkpt lat="43.48137" lon="6.88785">
        <ele>74.5</ele>
        <time>2022-11-20T12:04:14Z</time>
      </trkpt>
      <trkpt lat="43.48128" lon="6.88782">
        <ele>74.9</ele>
        <time>2022-11-20T12:04:23Z</time>
      </trkpt>
      <trkpt lat="43.48118" lon="6.88779">
        <ele>74.6</ele>
        <time>2022-11-20T12:04:34Z</time>
      </trkpt>
      <trkpt lat="43.48108" lon="6.88773">
        <ele>74.1</ele>
        <time>2022-11-20T12:04:43Z</time>
      </trkpt>
      <trkpt lat="43.48099" lon="6.88771">
        <ele>73.7</ele>
        <time>2022-11-20T12:04:52Z</time>
      </trkpt>
      <trkpt lat="43.48091" lon="6.88767">
        <ele>73.4</ele>
        <time>2022-11-20T12:05:00Z</time>
      </trkpt>
      <trkpt lat="43.48081" lon="6.88763">
        <ele>73.5</ele>
        <time>2022-11-20T12:05:08Z</time>
      </trkpt>
      <trkpt lat="43.48072" lon="6.88759">
        <ele>73.2</ele>
        <time>2022-11-20T12:05:16Z</time>
      </trkpt>
      <trkpt lat="43.48063" lon="6.88757">
        <ele>73</ele>
        <time>2022-11-20T12:05:24Z</time>
      </trkpt>
      <trkpt lat="43.48053" lon="6.88756">
        <ele>73.2</ele>
        <time>2022-11-20T12:05:33Z</time>
      </trkpt>
      <trkpt lat="43.48044" lon="6.88756">
        <ele>73.1</ele>
        <time>2022-11-20T12:05:41Z</time>
      </trkpt>
      <trkpt lat="43.48034" lon="6.88755">
        <ele>72.7</ele>
        <time>2022-11-20T12:05:48Z</time>
      </trkpt>
      <trkpt lat="43.48025" lon="6.88753">
        <ele>72.4</ele>
        <time>2022-11-20T12:05:55Z</time>
      </trkpt>
      <trkpt lat="43.48014" lon="6.88751">
        <ele>72</ele>
        <time>2022-11-20T12:06:03Z</time>
      </trkpt>
      <trkpt lat="43.48006" lon="6.88744">
        <ele>71.4</ele>
        <time>2022-11-20T12:06:18Z</time>
      </trkpt>
      <trkpt lat="43.48004" lon="6.88756">
        <ele>71</ele>
        <time>2022-11-20T12:09:34Z</time>
      </trkpt>
      <trkpt lat="43.48007" lon="6.88769">
        <ele>72.5</ele>
        <time>2022-11-20T12:14:58Z</time>
      </trkpt>
      <trkpt lat="43.4801" lon="6.88781">
        <ele>74.1</ele>
        <time>2022-11-20T12:15:08Z</time>
      </trkpt>
      <trkpt lat="43.48014" lon="6.88793">
        <ele>75.9</ele>
        <time>2022-11-20T12:15:19Z</time>
      </trkpt>
      <trkpt lat="43.48023" lon="6.88794">
        <ele>77.3</ele>
        <time>2022-11-20T12:15:29Z</time>
      </trkpt>
      <trkpt lat="43.48032" lon="6.88798">
        <ele>79</ele>
        <time>2022-11-20T12:15:39Z</time>
      </trkpt>
      <trkpt lat="43.4804" lon="6.88803">
        <ele>80.4</ele>
        <time>2022-11-20T12:15:48Z</time>
      </trkpt>
      <trkpt lat="43.48049" lon="6.88803">
        <ele>82</ele>
        <time>2022-11-20T12:15:59Z</time>
      </trkpt>
      <trkpt lat="43.48059" lon="6.88803">
        <ele>83.5</ele>
        <time>2022-11-20T12:16:08Z</time>
      </trkpt>
      <trkpt lat="43.48068" lon="6.88808">
        <ele>85.4</ele>
        <time>2022-11-20T12:16:19Z</time>
      </trkpt>
      <trkpt lat="43.48077" lon="6.88811">
        <ele>87</ele>
        <time>2022-11-20T12:16:29Z</time>
      </trkpt>
      <trkpt lat="43.48085" lon="6.88816">
        <ele>88.5</ele>
        <time>2022-11-20T12:16:40Z</time>
      </trkpt>
      <trkpt lat="43.48093" lon="6.88824">
        <ele>90.1</ele>
        <time>2022-11-20T12:16:54Z</time>
      </trkpt>
      <trkpt lat="43.48098" lon="6.88834">
        <ele>92.2</ele>
        <time>2022-11-20T12:17:08Z</time>
      </trkpt>
      <trkpt lat="43.48104" lon="6.88844">
        <ele>94.2</ele>
        <time>2022-11-20T12:17:23Z</time>
      </trkpt>
      <trkpt lat="43.48111" lon="6.88852">
        <ele>95.8</ele>
        <time>2022-11-20T12:17:36Z</time>
      </trkpt>
      <trkpt lat="43.48118" lon="6.8886">
        <ele>97.8</ele>
        <time>2022-11-20T12:17:49Z</time>
      </trkpt>
      <trkpt lat="43.48125" lon="6.88869">
        <ele>100</ele>
        <time>2022-11-20T12:18:05Z</time>
      </trkpt>
      <trkpt lat="43.48132" lon="6.88878">
        <ele>102.1</ele>
        <time>2022-11-20T12:18:19Z</time>
      </trkpt>
      <trkpt lat="43.4814" lon="6.88885">
        <ele>103.4</ele>
        <time>2022-11-20T12:18:31Z</time>
      </trkpt>
      <trkpt lat="43.48148" lon="6.88891">
        <ele>105.6</ele>
        <time>2022-11-20T12:18:45Z</time>
      </trkpt>
      <trkpt lat="43.48156" lon="6.88898">
        <ele>107.3</ele>
        <time>2022-11-20T12:18:58Z</time>
      </trkpt>
      <trkpt lat="43.48165" lon="6.88905">
        <ele>108.7</ele>
        <time>2022-11-20T12:19:13Z</time>
      </trkpt>
      <trkpt lat="43.48173" lon="6.88911">
        <ele>110.9</ele>
        <time>2022-11-20T12:19:28Z</time>
      </trkpt>
      <trkpt lat="43.4818" lon="6.88919">
        <ele>112.3</ele>
        <time>2022-11-20T12:19:41Z</time>
      </trkpt>
      <trkpt lat="43.48186" lon="6.88928">
        <ele>114.4</ele>
        <time>2022-11-20T12:19:55Z</time>
      </trkpt>
      <trkpt lat="43.48194" lon="6.88935">
        <ele>115.4</ele>
        <time>2022-11-20T12:20:07Z</time>
      </trkpt>
      <trkpt lat="43.482" lon="6.88945">
        <ele>117.4</ele>
        <time>2022-11-20T12:20:20Z</time>
      </trkpt>
      <trkpt lat="43.48207" lon="6.88953">
        <ele>119.3</ele>
        <time>2022-11-20T12:20:34Z</time>
      </trkpt>
      <trkpt lat="43.48213" lon="6.88963">
        <ele>121.2</ele>
        <time>2022-11-20T12:20:47Z</time>
      </trkpt>
      <trkpt lat="43.48219" lon="6.88973">
        <ele>122.7</ele>
        <time>2022-11-20T12:21:01Z</time>
      </trkpt>
      <trkpt lat="43.48221" lon="6.88986">
        <ele>124.2</ele>
        <time>2022-11-20T12:21:13Z</time>
      </trkpt>
      <trkpt lat="43.48221" lon="6.88999">
        <ele>126</ele>
        <time>2022-11-20T12:21:26Z</time>
      </trkpt>
      <trkpt lat="43.48218" lon="6.89011">
        <ele>128</ele>
        <time>2022-11-20T12:21:41Z</time>
      </trkpt>
      <trkpt lat="43.48211" lon="6.8902">
        <ele>129.8</ele>
        <time>2022-11-20T12:21:56Z</time>
      </trkpt>
      <trkpt lat="43.48209" lon="6.89032">
        <ele>131.5</ele>
        <time>2022-11-20T12:22:11Z</time>
      </trkpt>
      <trkpt lat="43.48211" lon="6.89045">
        <ele>133.1</ele>
        <time>2022-11-20T12:22:25Z</time>
      </trkpt>
      <trkpt lat="43.48211" lon="6.89059">
        <ele>134.9</ele>
        <time>2022-11-20T12:22:37Z</time>
      </trkpt>
      <trkpt lat="43.48214" lon="6.8907">
        <ele>136.6</ele>
        <time>2022-11-20T12:22:50Z</time>
      </trkpt>
      <trkpt lat="43.48215" lon="6.89083">
        <ele>138</ele>
        <time>2022-11-20T12:23:03Z</time>
      </trkpt>
      <trkpt lat="43.48215" lon="6.89096">
        <ele>139.8</ele>
        <time>2022-11-20T12:23:14Z</time>
      </trkpt>
      <trkpt lat="43.48215" lon="6.8911">
        <ele>141.2</ele>
        <time>2022-11-20T12:23:25Z</time>
      </trkpt>
      <trkpt lat="43.48216" lon="6.89122">
        <ele>142.9</ele>
        <time>2022-11-20T12:23:39Z</time>
      </trkpt>
      <trkpt lat="43.48215" lon="6.89135">
        <ele>145</ele>
        <time>2022-11-20T12:23:53Z</time>
      </trkpt>
      <trkpt lat="43.48216" lon="6.89148">
        <ele>146.1</ele>
        <time>2022-11-20T12:24:06Z</time>
      </trkpt>
      <trkpt lat="43.48216" lon="6.89161">
        <ele>148</ele>
        <time>2022-11-20T12:24:18Z</time>
      </trkpt>
      <trkpt lat="43.48209" lon="6.89168">
        <ele>149.6</ele>
        <time>2022-11-20T12:24:30Z</time>
      </trkpt>
      <trkpt lat="43.482" lon="6.89175">
        <ele>151.5</ele>
        <time>2022-11-20T12:24:43Z</time>
      </trkpt>
      <trkpt lat="43.48194" lon="6.89185">
        <ele>153.4</ele>
        <time>2022-11-20T12:24:58Z</time>
      </trkpt>
      <trkpt lat="43.48192" lon="6.89197">
        <ele>155.4</ele>
        <time>2022-11-20T12:25:14Z</time>
      </trkpt>
      <trkpt lat="43.48191" lon="6.8921">
        <ele>157.3</ele>
        <time>2022-11-20T12:25:29Z</time>
      </trkpt>
      <trkpt lat="43.48187" lon="6.89222">
        <ele>159.3</ele>
        <time>2022-11-20T12:25:43Z</time>
      </trkpt>
      <trkpt lat="43.48183" lon="6.89234">
        <ele>161</ele>
        <time>2022-11-20T12:25:56Z</time>
      </trkpt>
      <trkpt lat="43.48182" lon="6.89246">
        <ele>162.9</ele>
        <time>2022-11-20T12:26:11Z</time>
      </trkpt>
      <trkpt lat="43.48184" lon="6.89258">
        <ele>164.6</ele>
        <time>2022-11-20T12:26:24Z</time>
      </trkpt>
      <trkpt lat="43.48187" lon="6.8927">
        <ele>166.1</ele>
        <time>2022-11-20T12:26:40Z</time>
      </trkpt>
      <trkpt lat="43.48191" lon="6.89282">
        <ele>167.4</ele>
        <time>2022-11-20T12:26:56Z</time>
      </trkpt>
      <trkpt lat="43.48191" lon="6.89295">
        <ele>169.3</ele>
        <time>2022-11-20T12:27:09Z</time>
      </trkpt>
      <trkpt lat="43.48191" lon="6.89308">
        <ele>170.8</ele>
        <time>2022-11-20T12:27:21Z</time>
      </trkpt>
      <trkpt lat="43.48191" lon="6.89321">
        <ele>172.5</ele>
        <time>2022-11-20T12:27:35Z</time>
      </trkpt>
      <trkpt lat="43.48195" lon="6.89332">
        <ele>175.1</ele>
        <time>2022-11-20T12:27:51Z</time>
      </trkpt>
      <trkpt lat="43.48201" lon="6.89342">
        <ele>177.1</ele>
        <time>2022-11-20T12:28:04Z</time>
      </trkpt>
      <trkpt lat="43.48205" lon="6.89354">
        <ele>178.7</ele>
        <time>2022-11-20T12:28:18Z</time>
      </trkpt>
      <trkpt lat="43.48211" lon="6.89364">
        <ele>181.2</ele>
        <time>2022-11-20T12:28:37Z</time>
      </trkpt>
      <trkpt lat="43.48216" lon="6.89376">
        <ele>183.7</ele>
        <time>2022-11-20T12:28:53Z</time>
      </trkpt>
      <trkpt lat="43.48221" lon="6.89386">
        <ele>184.8</ele>
        <time>2022-11-20T12:29:02Z</time>
      </trkpt>
      <trkpt lat="43.48228" lon="6.89395">
        <ele>186.8</ele>
        <time>2022-11-20T12:29:14Z</time>
      </trkpt>
      <trkpt lat="43.48235" lon="6.89403">
        <ele>187.8</ele>
        <time>2022-11-20T12:29:28Z</time>
      </trkpt>
      <trkpt lat="43.48241" lon="6.89412">
        <ele>189.3</ele>
        <time>2022-11-20T12:29:41Z</time>
      </trkpt>
      <trkpt lat="43.48246" lon="6.89423">
        <ele>190.1</ele>
        <time>2022-11-20T12:32:07Z</time>
      </trkpt>
      <trkpt lat="43.4825" lon="6.89434">
        <ele>191.6</ele>
        <time>2022-11-20T12:32:22Z</time>
      </trkpt>
      <trkpt lat="43.48253" lon="6.89446">
        <ele>194.3</ele>
        <time>2022-11-20T12:32:36Z</time>
      </trkpt>
      <trkpt lat="43.48257" lon="6.89458">
        <ele>195.8</ele>
        <time>2022-11-20T12:32:47Z</time>
      </trkpt>
      <trkpt lat="43.48261" lon="6.89469">
        <ele>196.7</ele>
        <time>2022-11-20T12:32:57Z</time>
      </trkpt>
      <trkpt lat="43.4826" lon="6.89482">
        <ele>197.7</ele>
        <time>2022-11-20T12:33:07Z</time>
      </trkpt>
      <trkpt lat="43.4826" lon="6.89495">
        <ele>197.9</ele>
        <time>2022-11-20T12:33:17Z</time>
      </trkpt>
      <trkpt lat="43.4826" lon="6.89507">
        <ele>198</ele>
        <time>2022-11-20T12:33:28Z</time>
      </trkpt>
      <trkpt lat="43.48261" lon="6.89521">
        <ele>198.7</ele>
        <time>2022-11-20T12:33:39Z</time>
      </trkpt>
      <trkpt lat="43.48261" lon="6.89533">
        <ele>199</ele>
        <time>2022-11-20T12:33:48Z</time>
      </trkpt>
      <trkpt lat="43.48268" lon="6.89542">
        <ele>199.7</ele>
        <time>2022-11-20T12:33:57Z</time>
      </trkpt>
      <trkpt lat="43.48276" lon="6.89549">
        <ele>200.2</ele>
        <time>2022-11-20T12:34:08Z</time>
      </trkpt>
      <trkpt lat="43.48284" lon="6.89555">
        <ele>200.5</ele>
        <time>2022-11-20T12:34:17Z</time>
      </trkpt>
      <trkpt lat="43.4829" lon="6.89565">
        <ele>200.7</ele>
        <time>2022-11-20T12:34:26Z</time>
      </trkpt>
      <trkpt lat="43.48297" lon="6.89574">
        <ele>201</ele>
        <time>2022-11-20T12:34:36Z</time>
      </trkpt>
      <trkpt lat="43.48306" lon="6.89582">
        <ele>201.5</ele>
        <time>2022-11-20T12:34:44Z</time>
      </trkpt>
      <trkpt lat="43.48313" lon="6.8959">
        <ele>202</ele>
        <time>2022-11-20T12:34:53Z</time>
      </trkpt>
      <trkpt lat="43.48321" lon="6.89598">
        <ele>202.5</ele>
        <time>2022-11-20T12:35:02Z</time>
      </trkpt>
      <trkpt lat="43.48328" lon="6.89606">
        <ele>203.1</ele>
        <time>2022-11-20T12:35:10Z</time>
      </trkpt>
      <trkpt lat="43.48337" lon="6.89611">
        <ele>203.4</ele>
        <time>2022-11-20T12:35:18Z</time>
      </trkpt>
      <trkpt lat="43.48345" lon="6.89616">
        <ele>204</ele>
        <time>2022-11-20T12:35:26Z</time>
      </trkpt>
      <trkpt lat="43.48354" lon="6.89623">
        <ele>204.4</ele>
        <time>2022-11-20T12:35:36Z</time>
      </trkpt>
      <trkpt lat="43.48361" lon="6.89633">
        <ele>204.5</ele>
        <time>2022-11-20T12:35:46Z</time>
      </trkpt>
      <trkpt lat="43.48368" lon="6.89641">
        <ele>205.3</ele>
        <time>2022-11-20T12:35:55Z</time>
      </trkpt>
      <trkpt lat="43.48374" lon="6.89651">
        <ele>205.6</ele>
        <time>2022-11-20T12:36:04Z</time>
      </trkpt>
      <trkpt lat="43.48379" lon="6.89661">
        <ele>205.9</ele>
        <time>2022-11-20T12:36:13Z</time>
      </trkpt>
      <trkpt lat="43.48382" lon="6.89673">
        <ele>206.2</ele>
        <time>2022-11-20T12:36:21Z</time>
      </trkpt>
      <trkpt lat="43.48384" lon="6.89686">
        <ele>206.6</ele>
        <time>2022-11-20T12:36:30Z</time>
      </trkpt>
      <trkpt lat="43.48385" lon="6.89698">
        <ele>207</ele>
        <time>2022-11-20T12:36:38Z</time>
      </trkpt>
      <trkpt lat="43.48385" lon="6.89711">
        <ele>207.6</ele>
        <time>2022-11-20T12:36:45Z</time>
      </trkpt>
      <trkpt lat="43.48382" lon="6.89723">
        <ele>207.9</ele>
        <time>2022-11-20T12:36:54Z</time>
      </trkpt>
      <trkpt lat="43.48378" lon="6.89735">
        <ele>208.2</ele>
        <time>2022-11-20T12:37:03Z</time>
      </trkpt>
      <trkpt lat="43.48371" lon="6.89744">
        <ele>208.4</ele>
        <time>2022-11-20T12:37:11Z</time>
      </trkpt>
      <trkpt lat="43.48367" lon="6.89755">
        <ele>208.8</ele>
        <time>2022-11-20T12:37:19Z</time>
      </trkpt>
      <trkpt lat="43.48359" lon="6.89766">
        <ele>209.3</ele>
        <time>2022-11-20T12:37:29Z</time>
      </trkpt>
      <trkpt lat="43.48354" lon="6.89777">
        <ele>209.7</ele>
        <time>2022-11-20T12:37:37Z</time>
      </trkpt>
      <trkpt lat="43.4835" lon="6.89789">
        <ele>210</ele>
        <time>2022-11-20T12:37:44Z</time>
      </trkpt>
      <trkpt lat="43.48344" lon="6.89799">
        <ele>210.5</ele>
        <time>2022-11-20T12:37:52Z</time>
      </trkpt>
      <trkpt lat="43.48338" lon="6.89809">
        <ele>210.5</ele>
        <time>2022-11-20T12:38:01Z</time>
      </trkpt>
      <trkpt lat="43.48331" lon="6.89819">
        <ele>210.7</ele>
        <time>2022-11-20T12:38:09Z</time>
      </trkpt>
      <trkpt lat="43.48323" lon="6.89828">
        <ele>211.1</ele>
        <time>2022-11-20T12:38:18Z</time>
      </trkpt>
      <trkpt lat="43.48315" lon="6.89834">
        <ele>211.2</ele>
        <time>2022-11-20T12:38:27Z</time>
      </trkpt>
      <trkpt lat="43.48307" lon="6.89842">
        <ele>211.5</ele>
        <time>2022-11-20T12:38:35Z</time>
      </trkpt>
      <trkpt lat="43.48301" lon="6.89852">
        <ele>211.9</ele>
        <time>2022-11-20T12:38:46Z</time>
      </trkpt>
      <trkpt lat="43.48295" lon="6.89862">
        <ele>212</ele>
        <time>2022-11-20T12:38:53Z</time>
      </trkpt>
      <trkpt lat="43.48288" lon="6.89873">
        <ele>212.4</ele>
        <time>2022-11-20T12:38:59Z</time>
      </trkpt>
      <trkpt lat="43.48282" lon="6.89883">
        <ele>212.9</ele>
        <time>2022-11-20T12:39:09Z</time>
      </trkpt>
      <trkpt lat="43.48276" lon="6.89893">
        <ele>213.2</ele>
        <time>2022-11-20T12:39:16Z</time>
      </trkpt>
      <trkpt lat="43.48271" lon="6.89906">
        <ele>213.4</ele>
        <time>2022-11-20T12:39:24Z</time>
      </trkpt>
      <trkpt lat="43.48266" lon="6.89916">
        <ele>213.9</ele>
        <time>2022-11-20T12:39:33Z</time>
      </trkpt>
      <trkpt lat="43.48263" lon="6.89928">
        <ele>214.1</ele>
        <time>2022-11-20T12:39:41Z</time>
      </trkpt>
      <trkpt lat="43.48259" lon="6.8994">
        <ele>214.1</ele>
        <time>2022-11-20T12:39:50Z</time>
      </trkpt>
      <trkpt lat="43.48255" lon="6.89952">
        <ele>214.3</ele>
        <time>2022-11-20T12:39:58Z</time>
      </trkpt>
      <trkpt lat="43.48249" lon="6.89963">
        <ele>214.6</ele>
        <time>2022-11-20T12:40:05Z</time>
      </trkpt>
      <trkpt lat="43.48247" lon="6.89976">
        <ele>214.7</ele>
        <time>2022-11-20T12:40:12Z</time>
      </trkpt>
      <trkpt lat="43.48249" lon="6.8999">
        <ele>214.5</ele>
        <time>2022-11-20T12:40:20Z</time>
      </trkpt>
      <trkpt lat="43.48252" lon="6.90001">
        <ele>214.9</ele>
        <time>2022-11-20T12:40:29Z</time>
      </trkpt>
      <trkpt lat="43.48251" lon="6.90014">
        <ele>214.9</ele>
        <time>2022-11-20T12:40:38Z</time>
      </trkpt>
      <trkpt lat="43.48253" lon="6.90027">
        <ele>215</ele>
        <time>2022-11-20T12:40:46Z</time>
      </trkpt>
      <trkpt lat="43.4826" lon="6.90036">
        <ele>215.2</ele>
        <time>2022-11-20T12:40:53Z</time>
      </trkpt>
      <trkpt lat="43.48265" lon="6.90047">
        <ele>215.3</ele>
        <time>2022-11-20T12:41:02Z</time>
      </trkpt>
      <trkpt lat="43.4827" lon="6.90059">
        <ele>216.2</ele>
        <time>2022-11-20T12:41:11Z</time>
      </trkpt>
      <trkpt lat="43.48276" lon="6.9007">
        <ele>216.4</ele>
        <time>2022-11-20T12:41:19Z</time>
      </trkpt>
      <trkpt lat="43.48282" lon="6.9008">
        <ele>216.4</ele>
        <time>2022-11-20T12:41:26Z</time>
      </trkpt>
      <trkpt lat="43.48287" lon="6.90091">
        <ele>216.4</ele>
        <time>2022-11-20T12:41:34Z</time>
      </trkpt>
      <trkpt lat="43.48292" lon="6.90102">
        <ele>216.6</ele>
        <time>2022-11-20T12:41:42Z</time>
      </trkpt>
      <trkpt lat="43.48295" lon="6.90114">
        <ele>216.7</ele>
        <time>2022-11-20T12:41:50Z</time>
      </trkpt>
      <trkpt lat="43.48298" lon="6.90126">
        <ele>216.7</ele>
        <time>2022-11-20T12:41:58Z</time>
      </trkpt>
      <trkpt lat="43.48303" lon="6.90137">
        <ele>216.9</ele>
        <time>2022-11-20T12:42:06Z</time>
      </trkpt>
      <trkpt lat="43.48308" lon="6.90147">
        <ele>217.2</ele>
        <time>2022-11-20T12:42:15Z</time>
      </trkpt>
      <trkpt lat="43.48314" lon="6.90157">
        <ele>217.3</ele>
        <time>2022-11-20T12:42:23Z</time>
      </trkpt>
      <trkpt lat="43.48318" lon="6.90168">
        <ele>217.2</ele>
        <time>2022-11-20T12:42:30Z</time>
      </trkpt>
      <trkpt lat="43.48324" lon="6.90178">
        <ele>217.2</ele>
        <time>2022-11-20T12:42:36Z</time>
      </trkpt>
      <trkpt lat="43.48322" lon="6.90192">
        <ele>217.7</ele>
        <time>2022-11-20T12:42:44Z</time>
      </trkpt>
      <trkpt lat="43.48317" lon="6.90203">
        <ele>218.3</ele>
        <time>2022-11-20T12:42:53Z</time>
      </trkpt>
      <trkpt lat="43.48311" lon="6.90214">
        <ele>219</ele>
        <time>2022-11-20T12:43:02Z</time>
      </trkpt>
      <trkpt lat="43.48304" lon="6.90222">
        <ele>220.1</ele>
        <time>2022-11-20T12:43:10Z</time>
      </trkpt>
      <trkpt lat="43.48295" lon="6.90231">
        <ele>221</ele>
        <time>2022-11-20T12:43:19Z</time>
      </trkpt>
      <trkpt lat="43.48288" lon="6.90239">
        <ele>222.3</ele>
        <time>2022-11-20T12:43:30Z</time>
      </trkpt>
      <trkpt lat="43.48279" lon="6.90242">
        <ele>223.5</ele>
        <time>2022-11-20T12:43:40Z</time>
      </trkpt>
      <trkpt lat="43.48272" lon="6.9025">
        <ele>224</ele>
        <time>2022-11-20T12:43:46Z</time>
      </trkpt>
      <trkpt lat="43.48265" lon="6.90258">
        <ele>224.6</ele>
        <time>2022-11-20T12:43:54Z</time>
      </trkpt>
      <trkpt lat="43.4826" lon="6.9027">
        <ele>225.5</ele>
        <time>2022-11-20T12:44:02Z</time>
      </trkpt>
      <trkpt lat="43.48255" lon="6.90281">
        <ele>226.4</ele>
        <time>2022-11-20T12:44:11Z</time>
      </trkpt>
      <trkpt lat="43.48255" lon="6.90294">
        <ele>227.4</ele>
        <time>2022-11-20T12:44:33Z</time>
      </trkpt>
      <trkpt lat="43.48253" lon="6.90307">
        <ele>228.1</ele>
        <time>2022-11-20T12:44:43Z</time>
      </trkpt>
      <trkpt lat="43.48251" lon="6.9032">
        <ele>229</ele>
        <time>2022-11-20T12:44:53Z</time>
      </trkpt>
      <trkpt lat="43.48247" lon="6.90332">
        <ele>229.6</ele>
        <time>2022-11-20T12:45:01Z</time>
      </trkpt>
      <trkpt lat="43.48245" lon="6.90344">
        <ele>230.2</ele>
        <time>2022-11-20T12:45:22Z</time>
      </trkpt>
      <trkpt lat="43.48243" lon="6.90357">
        <ele>230.8</ele>
        <time>2022-11-20T12:45:31Z</time>
      </trkpt>
      <trkpt lat="43.4824" lon="6.9037">
        <ele>232.2</ele>
        <time>2022-11-20T12:45:42Z</time>
      </trkpt>
      <trkpt lat="43.48236" lon="6.90382">
        <ele>233.1</ele>
        <time>2022-11-20T12:45:51Z</time>
      </trkpt>
      <trkpt lat="43.48232" lon="6.90393">
        <ele>233.5</ele>
        <time>2022-11-20T12:46:00Z</time>
      </trkpt>
      <trkpt lat="43.48226" lon="6.90404">
        <ele>234.3</ele>
        <time>2022-11-20T12:46:09Z</time>
      </trkpt>
      <trkpt lat="43.4822" lon="6.90413">
        <ele>235.4</ele>
        <time>2022-11-20T12:46:19Z</time>
      </trkpt>
      <trkpt lat="43.48214" lon="6.90424">
        <ele>236.5</ele>
        <time>2022-11-20T12:46:29Z</time>
      </trkpt>
      <trkpt lat="43.48208" lon="6.90435">
        <ele>237.2</ele>
        <time>2022-11-20T12:46:37Z</time>
      </trkpt>
      <trkpt lat="43.482" lon="6.9044">
        <ele>238.1</ele>
        <time>2022-11-20T12:46:44Z</time>
      </trkpt>
      <trkpt lat="43.48192" lon="6.90448">
        <ele>238.7</ele>
        <time>2022-11-20T12:46:52Z</time>
      </trkpt>
      <trkpt lat="43.48185" lon="6.90456">
        <ele>239.9</ele>
        <time>2022-11-20T12:47:01Z</time>
      </trkpt>
      <trkpt lat="43.48178" lon="6.90466">
        <ele>240.7</ele>
        <time>2022-11-20T12:47:11Z</time>
      </trkpt>
      <trkpt lat="43.48172" lon="6.90475">
        <ele>241.2</ele>
        <time>2022-11-20T12:47:18Z</time>
      </trkpt>
      <trkpt lat="43.48166" lon="6.90485">
        <ele>242.2</ele>
        <time>2022-11-20T12:47:26Z</time>
      </trkpt>
      <trkpt lat="43.48161" lon="6.90497">
        <ele>242.8</ele>
        <time>2022-11-20T12:47:35Z</time>
      </trkpt>
      <trkpt lat="43.48157" lon="6.90508">
        <ele>243.4</ele>
        <time>2022-11-20T12:47:43Z</time>
      </trkpt>
      <trkpt lat="43.4815" lon="6.90517">
        <ele>244.2</ele>
        <time>2022-11-20T12:47:51Z</time>
      </trkpt>
      <trkpt lat="43.48141" lon="6.90523">
        <ele>245.3</ele>
        <time>2022-11-20T12:48:01Z</time>
      </trkpt>
      <trkpt lat="43.48132" lon="6.90528">
        <ele>246.5</ele>
        <time>2022-11-20T12:48:13Z</time>
      </trkpt>
      <trkpt lat="43.48123" lon="6.90533">
        <ele>247.8</ele>
        <time>2022-11-20T12:48:21Z</time>
      </trkpt>
      <trkpt lat="43.48115" lon="6.90541">
        <ele>248</ele>
        <time>2022-11-20T12:48:30Z</time>
      </trkpt>
      <trkpt lat="43.48106" lon="6.90545">
        <ele>248.9</ele>
        <time>2022-11-20T12:48:38Z</time>
      </trkpt>
      <trkpt lat="43.48096" lon="6.90544">
        <ele>249.5</ele>
        <time>2022-11-20T12:48:47Z</time>
      </trkpt>
      <trkpt lat="43.48087" lon="6.90541">
        <ele>250.2</ele>
        <time>2022-11-20T12:48:56Z</time>
      </trkpt>
      <trkpt lat="43.48078" lon="6.90539">
        <ele>250.8</ele>
        <time>2022-11-20T12:49:02Z</time>
      </trkpt>
      <trkpt lat="43.48068" lon="6.90537">
        <ele>251.8</ele>
        <time>2022-11-20T12:49:11Z</time>
      </trkpt>
      <trkpt lat="43.48063" lon="6.90549">
        <ele>253</ele>
        <time>2022-11-20T12:49:19Z</time>
      </trkpt>
      <trkpt lat="43.48062" lon="6.90563">
        <ele>254</ele>
        <time>2022-11-20T12:49:29Z</time>
      </trkpt>
      <trkpt lat="43.48063" lon="6.90577">
        <ele>254.5</ele>
        <time>2022-11-20T12:49:36Z</time>
      </trkpt>
      <trkpt lat="43.48062" lon="6.9059">
        <ele>255.1</ele>
        <time>2022-11-20T12:49:45Z</time>
      </trkpt>
      <trkpt lat="43.48061" lon="6.90603">
        <ele>255.8</ele>
        <time>2022-11-20T12:49:53Z</time>
      </trkpt>
      <trkpt lat="43.48057" lon="6.90615">
        <ele>256.6</ele>
        <time>2022-11-20T12:50:02Z</time>
      </trkpt>
      <trkpt lat="43.48053" lon="6.90627">
        <ele>257.7</ele>
        <time>2022-11-20T12:51:21Z</time>
      </trkpt>
      <trkpt lat="43.48046" lon="6.90635">
        <ele>258.8</ele>
        <time>2022-11-20T12:51:33Z</time>
      </trkpt>
      <trkpt lat="43.48038" lon="6.90642">
        <ele>260.1</ele>
        <time>2022-11-20T12:51:44Z</time>
      </trkpt>
      <trkpt lat="43.48032" lon="6.90651">
        <ele>260.8</ele>
        <time>2022-11-20T12:51:54Z</time>
      </trkpt>
      <trkpt lat="43.48026" lon="6.90662">
        <ele>261.5</ele>
        <time>2022-11-20T12:52:03Z</time>
      </trkpt>
      <trkpt lat="43.4802" lon="6.90671">
        <ele>262.7</ele>
        <time>2022-11-20T12:52:15Z</time>
      </trkpt>
      <trkpt lat="43.48013" lon="6.90681">
        <ele>263.2</ele>
        <time>2022-11-20T12:52:30Z</time>
      </trkpt>
      <trkpt lat="43.48009" lon="6.90692">
        <ele>264</ele>
        <time>2022-11-20T12:52:38Z</time>
      </trkpt>
      <trkpt lat="43.48003" lon="6.90703">
        <ele>265</ele>
        <time>2022-11-20T12:52:46Z</time>
      </trkpt>
      <trkpt lat="43.47999" lon="6.90715">
        <ele>265.8</ele>
        <time>2022-11-20T12:52:53Z</time>
      </trkpt>
      <trkpt lat="43.47992" lon="6.90722">
        <ele>266.7</ele>
        <time>2022-11-20T12:53:03Z</time>
      </trkpt>
      <trkpt lat="43.47985" lon="6.90731">
        <ele>267.4</ele>
        <time>2022-11-20T12:53:11Z</time>
      </trkpt>
      <trkpt lat="43.47978" lon="6.90741">
        <ele>268.5</ele>
        <time>2022-11-20T12:53:22Z</time>
      </trkpt>
      <trkpt lat="43.47972" lon="6.9075">
        <ele>269.6</ele>
        <time>2022-11-20T12:53:33Z</time>
      </trkpt>
      <trkpt lat="43.47967" lon="6.90761">
        <ele>270.2</ele>
        <time>2022-11-20T12:53:42Z</time>
      </trkpt>
      <trkpt lat="43.47961" lon="6.90771">
        <ele>271.1</ele>
        <time>2022-11-20T12:53:53Z</time>
      </trkpt>
      <trkpt lat="43.47955" lon="6.9078">
        <ele>272.2</ele>
        <time>2022-11-20T12:54:03Z</time>
      </trkpt>
      <trkpt lat="43.47947" lon="6.90786">
        <ele>272.6</ele>
        <time>2022-11-20T12:54:21Z</time>
      </trkpt>
      <trkpt lat="43.47938" lon="6.90792">
        <ele>273.5</ele>
        <time>2022-11-20T12:54:32Z</time>
      </trkpt>
      <trkpt lat="43.47928" lon="6.90792">
        <ele>274.8</ele>
        <time>2022-11-20T12:54:43Z</time>
      </trkpt>
      <trkpt lat="43.47918" lon="6.90788">
        <ele>276.1</ele>
        <time>2022-11-20T12:54:53Z</time>
      </trkpt>
      <trkpt lat="43.4791" lon="6.90784">
        <ele>276.8</ele>
        <time>2022-11-20T12:55:04Z</time>
      </trkpt>
      <trkpt lat="43.479" lon="6.90786">
        <ele>277.5</ele>
        <time>2022-11-20T12:55:12Z</time>
      </trkpt>
      <trkpt lat="43.4789" lon="6.90782">
        <ele>278.7</ele>
        <time>2022-11-20T12:55:22Z</time>
      </trkpt>
      <trkpt lat="43.47881" lon="6.90781">
        <ele>279.8</ele>
        <time>2022-11-20T12:55:33Z</time>
      </trkpt>
      <trkpt lat="43.47879" lon="6.90794">
        <ele>279</ele>
        <time>2022-11-20T12:55:46Z</time>
      </trkpt>
      <trkpt lat="43.47883" lon="6.90805">
        <ele>279.4</ele>
        <time>2022-11-20T12:56:01Z</time>
      </trkpt>
      <trkpt lat="43.47886" lon="6.90818">
        <ele>279.2</ele>
        <time>2022-11-20T12:56:11Z</time>
      </trkpt>
      <trkpt lat="43.4789" lon="6.9083">
        <ele>279.1</ele>
        <time>2022-11-20T12:56:20Z</time>
      </trkpt>
      <trkpt lat="43.47893" lon="6.90841">
        <ele>279.2</ele>
        <time>2022-11-20T12:56:29Z</time>
      </trkpt>
      <trkpt lat="43.47887" lon="6.90851">
        <ele>279.8</ele>
        <time>2022-11-20T12:56:36Z</time>
      </trkpt>
      <trkpt lat="43.4788" lon="6.90859">
        <ele>280.5</ele>
        <time>2022-11-20T12:56:46Z</time>
      </trkpt>
      <trkpt lat="43.47875" lon="6.90869">
        <ele>282.1</ele>
        <time>2022-11-20T12:56:58Z</time>
      </trkpt>
      <trkpt lat="43.47868" lon="6.90879">
        <ele>283.6</ele>
        <time>2022-11-20T12:57:06Z</time>
      </trkpt>
      <trkpt lat="43.47873" lon="6.90889">
        <ele>285.4</ele>
        <time>2022-11-20T12:57:18Z</time>
      </trkpt>
      <trkpt lat="43.47882" lon="6.90894">
        <ele>286.4</ele>
        <time>2022-11-20T12:57:27Z</time>
      </trkpt>
      <trkpt lat="43.47891" lon="6.90898">
        <ele>287.4</ele>
        <time>2022-11-20T12:57:40Z</time>
      </trkpt>
      <trkpt lat="43.47899" lon="6.90906">
        <ele>288.2</ele>
        <time>2022-11-20T12:58:21Z</time>
      </trkpt>
      <trkpt lat="43.47905" lon="6.90916">
        <ele>290</ele>
        <time>2022-11-20T12:58:32Z</time>
      </trkpt>
      <trkpt lat="43.4791" lon="6.90927">
        <ele>291.9</ele>
        <time>2022-11-20T12:58:43Z</time>
      </trkpt>
      <trkpt lat="43.47916" lon="6.90938">
        <ele>293.2</ele>
        <time>2022-11-20T12:58:54Z</time>
      </trkpt>
      <trkpt lat="43.4792" lon="6.90949">
        <ele>295.1</ele>
        <time>2022-11-20T12:59:09Z</time>
      </trkpt>
      <trkpt lat="43.47927" lon="6.90958">
        <ele>295.4</ele>
        <time>2022-11-20T12:59:44Z</time>
      </trkpt>
      <trkpt lat="43.47934" lon="6.90968">
        <ele>296.9</ele>
        <time>2022-11-20T12:59:53Z</time>
      </trkpt>
      <trkpt lat="43.4794" lon="6.90977">
        <ele>298.3</ele>
        <time>2022-11-20T13:00:01Z</time>
      </trkpt>
      <trkpt lat="43.47947" lon="6.90986">
        <ele>299.8</ele>
        <time>2022-11-20T13:00:11Z</time>
      </trkpt>
      <trkpt lat="43.47954" lon="6.90996">
        <ele>301.7</ele>
        <time>2022-11-20T13:00:22Z</time>
      </trkpt>
      <trkpt lat="43.47962" lon="6.91004">
        <ele>303.3</ele>
        <time>2022-11-20T13:00:33Z</time>
      </trkpt>
      <trkpt lat="43.4797" lon="6.91011">
        <ele>304.6</ele>
        <time>2022-11-20T13:00:44Z</time>
      </trkpt>
      <trkpt lat="43.47975" lon="6.91021">
        <ele>306.1</ele>
        <time>2022-11-20T13:00:58Z</time>
      </trkpt>
      <trkpt lat="43.4798" lon="6.91032">
        <ele>306.5</ele>
        <time>2022-11-20T13:01:20Z</time>
      </trkpt>
      <trkpt lat="43.47986" lon="6.91041">
        <ele>307.4</ele>
        <time>2022-11-20T13:01:31Z</time>
      </trkpt>
      <trkpt lat="43.4799" lon="6.91053">
        <ele>308.6</ele>
        <time>2022-11-20T13:01:44Z</time>
      </trkpt>
      <trkpt lat="43.47995" lon="6.91065">
        <ele>309.5</ele>
        <time>2022-11-20T13:01:54Z</time>
      </trkpt>
      <trkpt lat="43.47998" lon="6.91076">
        <ele>310.2</ele>
        <time>2022-11-20T13:02:02Z</time>
      </trkpt>
      <trkpt lat="43.48003" lon="6.91088">
        <ele>311.5</ele>
        <time>2022-11-20T13:02:13Z</time>
      </trkpt>
      <trkpt lat="43.48008" lon="6.91099">
        <ele>313</ele>
        <time>2022-11-20T13:02:24Z</time>
      </trkpt>
      <trkpt lat="43.48013" lon="6.9111">
        <ele>314.4</ele>
        <time>2022-11-20T13:02:34Z</time>
      </trkpt>
      <trkpt lat="43.48017" lon="6.91121">
        <ele>315.9</ele>
        <time>2022-11-20T13:02:46Z</time>
      </trkpt>
      <trkpt lat="43.48024" lon="6.91131">
        <ele>317.4</ele>
        <time>2022-11-20T13:02:58Z</time>
      </trkpt>
      <trkpt lat="43.4803" lon="6.9114">
        <ele>318.7</ele>
        <time>2022-11-20T13:03:07Z</time>
      </trkpt>
      <trkpt lat="43.48036" lon="6.91149">
        <ele>320.3</ele>
        <time>2022-11-20T13:03:17Z</time>
      </trkpt>
      <trkpt lat="43.48045" lon="6.91156">
        <ele>321.8</ele>
        <time>2022-11-20T13:03:29Z</time>
      </trkpt>
      <trkpt lat="43.48054" lon="6.91156">
        <ele>321.6</ele>
        <time>2022-11-20T13:03:39Z</time>
      </trkpt>
      <trkpt lat="43.48063" lon="6.91155">
        <ele>321.2</ele>
        <time>2022-11-20T13:03:48Z</time>
      </trkpt>
      <trkpt lat="43.48071" lon="6.91147">
        <ele>321.1</ele>
        <time>2022-11-20T13:03:58Z</time>
      </trkpt>
      <trkpt lat="43.48064" lon="6.91155">
        <ele>323.9</ele>
        <time>2022-11-20T13:24:01Z</time>
      </trkpt>
      <trkpt lat="43.48056" lon="6.91164">
        <ele>324.1</ele>
        <time>2022-11-20T13:24:10Z</time>
      </trkpt>
      <trkpt lat="43.48049" lon="6.91173">
        <ele>324.7</ele>
        <time>2022-11-20T13:24:20Z</time>
      </trkpt>
      <trkpt lat="43.48045" lon="6.91183">
        <ele>324.8</ele>
        <time>2022-11-20T13:24:29Z</time>
      </trkpt>
      <trkpt lat="43.48052" lon="6.91175">
        <ele>324.6</ele>
        <time>2022-11-20T13:25:22Z</time>
      </trkpt>
      <trkpt lat="43.48059" lon="6.91167">
        <ele>324.5</ele>
        <time>2022-11-20T13:25:31Z</time>
      </trkpt>
      <trkpt lat="43.48065" lon="6.91156">
        <ele>324.1</ele>
        <time>2022-11-20T13:25:41Z</time>
      </trkpt>
      <trkpt lat="43.48072" lon="6.91148">
        <ele>323.8</ele>
        <time>2022-11-20T13:26:02Z</time>
      </trkpt>
      <trkpt lat="43.48066" lon="6.91157">
        <ele>324.5</ele>
        <time>2022-11-20T13:34:23Z</time>
      </trkpt>
      <trkpt lat="43.48062" lon="6.9117">
        <ele>324.5</ele>
        <time>2022-11-20T13:34:31Z</time>
      </trkpt>
      <trkpt lat="43.48061" lon="6.91184">
        <ele>324.8</ele>
        <time>2022-11-20T13:34:39Z</time>
      </trkpt>
      <trkpt lat="43.48069" lon="6.91192">
        <ele>325.4</ele>
        <time>2022-11-20T13:34:49Z</time>
      </trkpt>
      <trkpt lat="43.48078" lon="6.91192">
        <ele>326.9</ele>
        <time>2022-11-20T13:35:01Z</time>
      </trkpt>
      <trkpt lat="43.48083" lon="6.91181">
        <ele>331.1</ele>
        <time>2022-11-20T13:35:21Z</time>
      </trkpt>
      <trkpt lat="43.48092" lon="6.91179">
        <ele>333.9</ele>
        <time>2022-11-20T13:35:38Z</time>
      </trkpt>
      <trkpt lat="43.48101" lon="6.91178">
        <ele>336.7</ele>
        <time>2022-11-20T13:35:55Z</time>
      </trkpt>
      <trkpt lat="43.48111" lon="6.91176">
        <ele>338.3</ele>
        <time>2022-11-20T13:36:10Z</time>
      </trkpt>
      <trkpt lat="43.4812" lon="6.91177">
        <ele>340.4</ele>
        <time>2022-11-20T13:36:24Z</time>
      </trkpt>
      <trkpt lat="43.4813" lon="6.91178">
        <ele>342.6</ele>
        <time>2022-11-20T13:36:36Z</time>
      </trkpt>
      <trkpt lat="43.48139" lon="6.91178">
        <ele>345.2</ele>
        <time>2022-11-20T13:36:58Z</time>
      </trkpt>
      <trkpt lat="43.48148" lon="6.91175">
        <ele>346.8</ele>
        <time>2022-11-20T13:37:12Z</time>
      </trkpt>
      <trkpt lat="43.48157" lon="6.91172">
        <ele>347.7</ele>
        <time>2022-11-20T13:37:23Z</time>
      </trkpt>
      <trkpt lat="43.48166" lon="6.91175">
        <ele>349.5</ele>
        <time>2022-11-20T13:37:35Z</time>
      </trkpt>
      <trkpt lat="43.48174" lon="6.91183">
        <ele>350.9</ele>
        <time>2022-11-20T13:37:45Z</time>
      </trkpt>
      <trkpt lat="43.48181" lon="6.91193">
        <ele>351.7</ele>
        <time>2022-11-20T13:37:54Z</time>
      </trkpt>
      <trkpt lat="43.48189" lon="6.91201">
        <ele>352.2</ele>
        <time>2022-11-20T13:38:03Z</time>
      </trkpt>
      <trkpt lat="43.48194" lon="6.91212">
        <ele>352.6</ele>
        <time>2022-11-20T13:38:11Z</time>
      </trkpt>
      <trkpt lat="43.48199" lon="6.91223">
        <ele>353.3</ele>
        <time>2022-11-20T13:38:20Z</time>
      </trkpt>
      <trkpt lat="43.482" lon="6.91236">
        <ele>354.9</ele>
        <time>2022-11-20T13:38:31Z</time>
      </trkpt>
      <trkpt lat="43.48206" lon="6.91247">
        <ele>356.7</ele>
        <time>2022-11-20T13:38:41Z</time>
      </trkpt>
      <trkpt lat="43.48213" lon="6.91254">
        <ele>357.8</ele>
        <time>2022-11-20T13:38:49Z</time>
      </trkpt>
      <trkpt lat="43.48221" lon="6.91263">
        <ele>358.1</ele>
        <time>2022-11-20T13:38:58Z</time>
      </trkpt>
      <trkpt lat="43.48228" lon="6.91271">
        <ele>357.5</ele>
        <time>2022-11-20T13:39:07Z</time>
      </trkpt>
      <trkpt lat="43.48233" lon="6.91281">
        <ele>356.1</ele>
        <time>2022-11-20T13:39:18Z</time>
      </trkpt>
      <trkpt lat="43.48241" lon="6.9129">
        <ele>352.7</ele>
        <time>2022-11-20T13:39:31Z</time>
      </trkpt>
      <trkpt lat="43.48247" lon="6.91299">
        <ele>349.9</ele>
        <time>2022-11-20T13:39:41Z</time>
      </trkpt>
      <trkpt lat="43.48252" lon="6.9131">
        <ele>348.3</ele>
        <time>2022-11-20T13:39:53Z</time>
      </trkpt>
      <trkpt lat="43.4826" lon="6.91318">
        <ele>346.6</ele>
        <time>2022-11-20T13:40:05Z</time>
      </trkpt>
      <trkpt lat="43.48268" lon="6.91325">
        <ele>345.2</ele>
        <time>2022-11-20T13:40:15Z</time>
      </trkpt>
      <trkpt lat="43.48275" lon="6.91334">
        <ele>344.2</ele>
        <time>2022-11-20T13:40:23Z</time>
      </trkpt>
      <trkpt lat="43.48283" lon="6.91342">
        <ele>344.2</ele>
        <time>2022-11-20T13:40:31Z</time>
      </trkpt>
      <trkpt lat="43.4829" lon="6.91351">
        <ele>345.3</ele>
        <time>2022-11-20T13:40:44Z</time>
      </trkpt>
      <trkpt lat="43.48296" lon="6.91361">
        <ele>346.7</ele>
        <time>2022-11-20T13:40:57Z</time>
      </trkpt>
      <trkpt lat="43.48305" lon="6.91366">
        <ele>347.6</ele>
        <time>2022-11-20T13:41:16Z</time>
      </trkpt>
      <trkpt lat="43.48313" lon="6.9136">
        <ele>348.4</ele>
        <time>2022-11-20T13:41:37Z</time>
      </trkpt>
      <trkpt lat="43.48323" lon="6.91358">
        <ele>347.5</ele>
        <time>2022-11-20T13:41:49Z</time>
      </trkpt>
      <trkpt lat="43.48333" lon="6.91359">
        <ele>347.2</ele>
        <time>2022-11-20T13:41:58Z</time>
      </trkpt>
      <trkpt lat="43.48342" lon="6.91363">
        <ele>346.8</ele>
        <time>2022-11-20T13:42:07Z</time>
      </trkpt>
      <trkpt lat="43.48351" lon="6.91365">
        <ele>345.8</ele>
        <time>2022-11-20T13:43:26Z</time>
      </trkpt>
      <trkpt lat="43.4836" lon="6.91363">
        <ele>340.5</ele>
        <time>2022-11-20T13:44:07Z</time>
      </trkpt>
      <trkpt lat="43.48368" lon="6.91368">
        <ele>337.7</ele>
        <time>2022-11-20T13:44:32Z</time>
      </trkpt>
      <trkpt lat="43.48378" lon="6.91371">
        <ele>336.1</ele>
        <time>2022-11-20T13:44:52Z</time>
      </trkpt>
      <trkpt lat="43.48387" lon="6.91373">
        <ele>335.3</ele>
        <time>2022-11-20T13:44:59Z</time>
      </trkpt>
      <trkpt lat="43.48396" lon="6.91373">
        <ele>336.2</ele>
        <time>2022-11-20T13:45:07Z</time>
      </trkpt>
      <trkpt lat="43.48406" lon="6.91375">
        <ele>337.7</ele>
        <time>2022-11-20T13:45:16Z</time>
      </trkpt>
      <trkpt lat="43.48416" lon="6.91376">
        <ele>339.5</ele>
        <time>2022-11-20T13:45:28Z</time>
      </trkpt>
      <trkpt lat="43.48425" lon="6.91376">
        <ele>341.2</ele>
        <time>2022-11-20T13:45:40Z</time>
      </trkpt>
      <trkpt lat="43.48434" lon="6.91372">
        <ele>342.2</ele>
        <time>2022-11-20T13:45:52Z</time>
      </trkpt>
      <trkpt lat="43.48443" lon="6.91372">
        <ele>343.1</ele>
        <time>2022-11-20T13:46:01Z</time>
      </trkpt>
      <trkpt lat="43.4845" lon="6.91365">
        <ele>342.6</ele>
        <time>2022-11-20T13:46:12Z</time>
      </trkpt>
      <trkpt lat="43.48459" lon="6.91359">
        <ele>342.3</ele>
        <time>2022-11-20T13:46:20Z</time>
      </trkpt>
      <trkpt lat="43.48467" lon="6.91354">
        <ele>342.8</ele>
        <time>2022-11-20T13:46:28Z</time>
      </trkpt>
      <trkpt lat="43.48476" lon="6.91349">
        <ele>343.3</ele>
        <time>2022-11-20T13:46:36Z</time>
      </trkpt>
      <trkpt lat="43.48484" lon="6.91342">
        <ele>343.6</ele>
        <time>2022-11-20T13:46:44Z</time>
      </trkpt>
      <trkpt lat="43.48493" lon="6.91339">
        <ele>343.8</ele>
        <time>2022-11-20T13:46:52Z</time>
      </trkpt>
      <trkpt lat="43.485" lon="6.91331">
        <ele>343.8</ele>
        <time>2022-11-20T13:47:00Z</time>
      </trkpt>
      <trkpt lat="43.4851" lon="6.91326">
        <ele>344</ele>
        <time>2022-11-20T13:47:09Z</time>
      </trkpt>
      <trkpt lat="43.48519" lon="6.91321">
        <ele>344.4</ele>
        <time>2022-11-20T13:47:17Z</time>
      </trkpt>
      <trkpt lat="43.48528" lon="6.91316">
        <ele>345.9</ele>
        <time>2022-11-20T13:47:30Z</time>
      </trkpt>
      <trkpt lat="43.48536" lon="6.91311">
        <ele>347.2</ele>
        <time>2022-11-20T13:47:43Z</time>
      </trkpt>
      <trkpt lat="43.48544" lon="6.91304">
        <ele>348.5</ele>
        <time>2022-11-20T13:47:54Z</time>
      </trkpt>
      <trkpt lat="43.48553" lon="6.91299">
        <ele>350.1</ele>
        <time>2022-11-20T13:48:10Z</time>
      </trkpt>
      <trkpt lat="43.48562" lon="6.91298">
        <ele>352.1</ele>
        <time>2022-11-20T13:48:25Z</time>
      </trkpt>
      <trkpt lat="43.48571" lon="6.91297">
        <ele>355.6</ele>
        <time>2022-11-20T13:48:47Z</time>
      </trkpt>
      <trkpt lat="43.48579" lon="6.91291">
        <ele>358.4</ele>
        <time>2022-11-20T13:49:06Z</time>
      </trkpt>
      <trkpt lat="43.48587" lon="6.91286">
        <ele>361</ele>
        <time>2022-11-20T13:49:27Z</time>
      </trkpt>
      <trkpt lat="43.48596" lon="6.91282">
        <ele>364.9</ele>
        <time>2022-11-20T13:49:49Z</time>
      </trkpt>
      <trkpt lat="43.48606" lon="6.91282">
        <ele>367.2</ele>
        <time>2022-11-20T13:50:06Z</time>
      </trkpt>
      <trkpt lat="43.48615" lon="6.91278">
        <ele>370.5</ele>
        <time>2022-11-20T13:50:32Z</time>
      </trkpt>
      <trkpt lat="43.48624" lon="6.91278">
        <ele>374.3</ele>
        <time>2022-11-20T13:50:58Z</time>
      </trkpt>
      <trkpt lat="43.48633" lon="6.91275">
        <ele>377.3</ele>
        <time>2022-11-20T13:51:20Z</time>
      </trkpt>
      <trkpt lat="43.48642" lon="6.91272">
        <ele>381.8</ele>
        <time>2022-11-20T13:52:01Z</time>
      </trkpt>
      <trkpt lat="43.48651" lon="6.91269">
        <ele>387.5</ele>
        <time>2022-11-20T13:54:17Z</time>
      </trkpt>
      <trkpt lat="43.4866" lon="6.91268">
        <ele>391</ele>
        <time>2022-11-20T13:54:41Z</time>
      </trkpt>
      <trkpt lat="43.48669" lon="6.91265">
        <ele>395.2</ele>
        <time>2022-11-20T13:55:09Z</time>
      </trkpt>
      <trkpt lat="43.48678" lon="6.91266">
        <ele>402.8</ele>
        <time>2022-11-20T13:55:55Z</time>
      </trkpt>
      <trkpt lat="43.48687" lon="6.91265">
        <ele>405.9</ele>
        <time>2022-11-20T13:57:21Z</time>
      </trkpt>
      <trkpt lat="43.48696" lon="6.91269">
        <ele>408.5</ele>
        <time>2022-11-20T13:57:38Z</time>
      </trkpt>
      <trkpt lat="43.48705" lon="6.91275">
        <ele>412.3</ele>
        <time>2022-11-20T13:58:04Z</time>
      </trkpt>
      <trkpt lat="43.48714" lon="6.91277">
        <ele>413.6</ele>
        <time>2022-11-20T13:58:21Z</time>
      </trkpt>
      <trkpt lat="43.48723" lon="6.91279">
        <ele>414.3</ele>
        <time>2022-11-20T13:58:32Z</time>
      </trkpt>
      <trkpt lat="43.48731" lon="6.91285">
        <ele>414.4</ele>
        <time>2022-11-20T13:58:45Z</time>
      </trkpt>
      <trkpt lat="43.4873" lon="6.91297">
        <ele>413.1</ele>
        <time>2022-11-20T13:59:19Z</time>
      </trkpt>
      <trkpt lat="43.48738" lon="6.91288">
        <ele>413.7</ele>
        <time>2022-11-20T13:59:48Z</time>
      </trkpt>
      <trkpt lat="43.48744" lon="6.91279">
        <ele>413.7</ele>
        <time>2022-11-20T13:59:58Z</time>
      </trkpt>
      <trkpt lat="43.48753" lon="6.91275">
        <ele>411.4</ele>
        <time>2022-11-20T14:00:11Z</time>
      </trkpt>
      <trkpt lat="43.48759" lon="6.91266">
        <ele>407</ele>
        <time>2022-11-20T14:00:28Z</time>
      </trkpt>
      <trkpt lat="43.48767" lon="6.91258">
        <ele>403.2</ele>
        <time>2022-11-20T14:00:42Z</time>
      </trkpt>
      <trkpt lat="43.48773" lon="6.91249">
        <ele>400.5</ele>
        <time>2022-11-20T14:00:54Z</time>
      </trkpt>
      <trkpt lat="43.48781" lon="6.91241">
        <ele>398</ele>
        <time>2022-11-20T14:01:04Z</time>
      </trkpt>
      <trkpt lat="43.48787" lon="6.91233">
        <ele>395.2</ele>
        <time>2022-11-20T14:01:15Z</time>
      </trkpt>
      <trkpt lat="43.48795" lon="6.91224">
        <ele>393</ele>
        <time>2022-11-20T14:01:27Z</time>
      </trkpt>
      <trkpt lat="43.48803" lon="6.91216">
        <ele>391.1</ele>
        <time>2022-11-20T14:01:38Z</time>
      </trkpt>
      <trkpt lat="43.48811" lon="6.91207">
        <ele>390</ele>
        <time>2022-11-20T14:01:46Z</time>
      </trkpt>
      <trkpt lat="43.48817" lon="6.91197">
        <ele>389.7</ele>
        <time>2022-11-20T14:01:54Z</time>
      </trkpt>
      <trkpt lat="43.48824" lon="6.91189">
        <ele>389.8</ele>
        <time>2022-11-20T14:02:02Z</time>
      </trkpt>
      <trkpt lat="43.48832" lon="6.91183">
        <ele>389.6</ele>
        <time>2022-11-20T14:02:09Z</time>
      </trkpt>
      <trkpt lat="43.48839" lon="6.91173">
        <ele>388.5</ele>
        <time>2022-11-20T14:02:17Z</time>
      </trkpt>
      <trkpt lat="43.48848" lon="6.91168">
        <ele>386.9</ele>
        <time>2022-11-20T14:02:25Z</time>
      </trkpt>
      <trkpt lat="43.48858" lon="6.91167">
        <ele>386.3</ele>
        <time>2022-11-20T14:02:32Z</time>
      </trkpt>
      <trkpt lat="43.48868" lon="6.91163">
        <ele>386.6</ele>
        <time>2022-11-20T14:02:41Z</time>
      </trkpt>
      <trkpt lat="43.48877" lon="6.91165">
        <ele>386.3</ele>
        <time>2022-11-20T14:02:48Z</time>
      </trkpt>
      <trkpt lat="43.48886" lon="6.91163">
        <ele>385.8</ele>
        <time>2022-11-20T14:02:55Z</time>
      </trkpt>
      <trkpt lat="43.48896" lon="6.91163">
        <ele>384.4</ele>
        <time>2022-11-20T14:03:04Z</time>
      </trkpt>
      <trkpt lat="43.48904" lon="6.91158">
        <ele>382.6</ele>
        <time>2022-11-20T14:03:12Z</time>
      </trkpt>
      <trkpt lat="43.48913" lon="6.91156">
        <ele>379.9</ele>
        <time>2022-11-20T14:03:23Z</time>
      </trkpt>
      <trkpt lat="43.48922" lon="6.91154">
        <ele>375.9</ele>
        <time>2022-11-20T14:03:38Z</time>
      </trkpt>
      <trkpt lat="43.48931" lon="6.91152">
        <ele>371.6</ele>
        <time>2022-11-20T14:04:01Z</time>
      </trkpt>
      <trkpt lat="43.4894" lon="6.91157">
        <ele>368.1</ele>
        <time>2022-11-20T14:04:29Z</time>
      </trkpt>
      <trkpt lat="43.48947" lon="6.91165">
        <ele>364.3</ele>
        <time>2022-11-20T14:04:47Z</time>
      </trkpt>
      <trkpt lat="43.48956" lon="6.91168">
        <ele>360.4</ele>
        <time>2022-11-20T14:05:05Z</time>
      </trkpt>
      <trkpt lat="43.48966" lon="6.9117">
        <ele>357</ele>
        <time>2022-11-20T14:05:26Z</time>
      </trkpt>
      <trkpt lat="43.48975" lon="6.9117">
        <ele>354</ele>
        <time>2022-11-20T14:05:42Z</time>
      </trkpt>
      <trkpt lat="43.48984" lon="6.91173">
        <ele>351.5</ele>
        <time>2022-11-20T14:06:00Z</time>
      </trkpt>
      <trkpt lat="43.48991" lon="6.91182">
        <ele>349.9</ele>
        <time>2022-11-20T14:06:10Z</time>
      </trkpt>
      <trkpt lat="43.48999" lon="6.91188">
        <ele>349.2</ele>
        <time>2022-11-20T14:06:36Z</time>
      </trkpt>
      <trkpt lat="43.49008" lon="6.91188">
        <ele>347.3</ele>
        <time>2022-11-20T14:07:03Z</time>
      </trkpt>
      <trkpt lat="43.49017" lon="6.91187">
        <ele>344.2</ele>
        <time>2022-11-20T14:07:36Z</time>
      </trkpt>
      <trkpt lat="43.49026" lon="6.91191">
        <ele>341.6</ele>
        <time>2022-11-20T14:07:48Z</time>
      </trkpt>
      <trkpt lat="43.49035" lon="6.91195">
        <ele>339.4</ele>
        <time>2022-11-20T14:08:09Z</time>
      </trkpt>
      <trkpt lat="43.49043" lon="6.91199">
        <ele>336.2</ele>
        <time>2022-11-20T14:08:50Z</time>
      </trkpt>
      <trkpt lat="43.49052" lon="6.91206">
        <ele>331.9</ele>
        <time>2022-11-20T14:09:18Z</time>
      </trkpt>
      <trkpt lat="43.49061" lon="6.91212">
        <ele>330.8</ele>
        <time>2022-11-20T14:09:29Z</time>
      </trkpt>
      <trkpt lat="43.4907" lon="6.91215">
        <ele>330.3</ele>
        <time>2022-11-20T14:09:37Z</time>
      </trkpt>
      <trkpt lat="43.4908" lon="6.91217">
        <ele>330.4</ele>
        <time>2022-11-20T14:09:48Z</time>
      </trkpt>
      <trkpt lat="43.49089" lon="6.9122">
        <ele>330.8</ele>
        <time>2022-11-20T14:09:58Z</time>
      </trkpt>
      <trkpt lat="43.49098" lon="6.91223">
        <ele>331.3</ele>
        <time>2022-11-20T14:10:07Z</time>
      </trkpt>
      <trkpt lat="43.49108" lon="6.91226">
        <ele>332.3</ele>
        <time>2022-11-20T14:10:18Z</time>
      </trkpt>
      <trkpt lat="43.49117" lon="6.91226">
        <ele>333.5</ele>
        <time>2022-11-20T14:10:28Z</time>
      </trkpt>
      <trkpt lat="43.49126" lon="6.91227">
        <ele>334.8</ele>
        <time>2022-11-20T14:10:37Z</time>
      </trkpt>
      <trkpt lat="43.49135" lon="6.91229">
        <ele>336.4</ele>
        <time>2022-11-20T14:10:47Z</time>
      </trkpt>
      <trkpt lat="43.49145" lon="6.91231">
        <ele>338.6</ele>
        <time>2022-11-20T14:11:01Z</time>
      </trkpt>
      <trkpt lat="43.49153" lon="6.91234">
        <ele>341.2</ele>
        <time>2022-11-20T14:11:16Z</time>
      </trkpt>
      <trkpt lat="43.49163" lon="6.91234">
        <ele>344.4</ele>
        <time>2022-11-20T14:11:32Z</time>
      </trkpt>
      <trkpt lat="43.49172" lon="6.91232">
        <ele>347.9</ele>
        <time>2022-11-20T14:11:51Z</time>
      </trkpt>
      <trkpt lat="43.49181" lon="6.91234">
        <ele>351.1</ele>
        <time>2022-11-20T14:12:08Z</time>
      </trkpt>
      <trkpt lat="43.4919" lon="6.91233">
        <ele>354.9</ele>
        <time>2022-11-20T14:12:28Z</time>
      </trkpt>
      <trkpt lat="43.49199" lon="6.91235">
        <ele>358.9</ele>
        <time>2022-11-20T14:13:30Z</time>
      </trkpt>
      <trkpt lat="43.49208" lon="6.91237">
        <ele>362.6</ele>
        <time>2022-11-20T14:13:50Z</time>
      </trkpt>
      <trkpt lat="43.49218" lon="6.91238">
        <ele>365.3</ele>
        <time>2022-11-20T14:15:03Z</time>
      </trkpt>
      <trkpt lat="43.49227" lon="6.91238">
        <ele>370</ele>
        <time>2022-11-20T14:15:27Z</time>
      </trkpt>
      <trkpt lat="43.49236" lon="6.91237">
        <ele>373.7</ele>
        <time>2022-11-20T14:17:23Z</time>
      </trkpt>
      <trkpt lat="43.49245" lon="6.91236">
        <ele>377.7</ele>
        <time>2022-11-20T14:17:47Z</time>
      </trkpt>
      <trkpt lat="43.49254" lon="6.91234">
        <ele>382.8</ele>
        <time>2022-11-20T14:19:34Z</time>
      </trkpt>
      <trkpt lat="43.49262" lon="6.91228">
        <ele>383.5</ele>
        <time>2022-11-20T14:20:22Z</time>
      </trkpt>
      <trkpt lat="43.49271" lon="6.91232">
        <ele>388.8</ele>
        <time>2022-11-20T14:20:49Z</time>
      </trkpt>
      <trkpt lat="43.4928" lon="6.91234">
        <ele>395.6</ele>
        <time>2022-11-20T14:21:31Z</time>
      </trkpt>
      <trkpt lat="43.49289" lon="6.91233">
        <ele>398</ele>
        <time>2022-11-20T14:22:37Z</time>
      </trkpt>
      <trkpt lat="43.49299" lon="6.91234">
        <ele>402.7</ele>
        <time>2022-11-20T14:23:00Z</time>
      </trkpt>
      <trkpt lat="43.49305" lon="6.91226">
        <ele>406.2</ele>
        <time>2022-11-20T14:23:29Z</time>
      </trkpt>
      <trkpt lat="43.49313" lon="6.91234">
        <ele>411.1</ele>
        <time>2022-11-20T14:24:58Z</time>
      </trkpt>
      <trkpt lat="43.49322" lon="6.9123">
        <ele>414.8</ele>
        <time>2022-11-20T14:25:16Z</time>
      </trkpt>
      <trkpt lat="43.49331" lon="6.91234">
        <ele>420.8</ele>
        <time>2022-11-20T14:27:03Z</time>
      </trkpt>
      <trkpt lat="43.49339" lon="6.91229">
        <ele>424.8</ele>
        <time>2022-11-20T14:27:22Z</time>
      </trkpt>
      <trkpt lat="43.49348" lon="6.91234">
        <ele>429.6</ele>
        <time>2022-11-20T14:27:52Z</time>
      </trkpt>
      <trkpt lat="43.49357" lon="6.91231">
        <ele>434</ele>
        <time>2022-11-20T14:28:57Z</time>
      </trkpt>
      <trkpt lat="43.49366" lon="6.91231">
        <ele>437.1</ele>
        <time>2022-11-20T14:29:16Z</time>
      </trkpt>
      <trkpt lat="43.49375" lon="6.91231">
        <ele>440.9</ele>
        <time>2022-11-20T14:29:37Z</time>
      </trkpt>
      <trkpt lat="43.49384" lon="6.91234">
        <ele>442.6</ele>
        <time>2022-11-20T14:30:18Z</time>
      </trkpt>
      <trkpt lat="43.49388" lon="6.91222">
        <ele>442.7</ele>
        <time>2022-11-20T14:32:05Z</time>
      </trkpt>
      <trkpt lat="43.49393" lon="6.9121">
        <ele>441.3</ele>
        <time>2022-11-20T14:32:13Z</time>
      </trkpt>
      <trkpt lat="43.49392" lon="6.91197">
        <ele>439.5</ele>
        <time>2022-11-20T14:32:22Z</time>
      </trkpt>
      <trkpt lat="43.49395" lon="6.91185">
        <ele>436.7</ele>
        <time>2022-11-20T14:32:32Z</time>
      </trkpt>
      <trkpt lat="43.49397" lon="6.91173">
        <ele>433.6</ele>
        <time>2022-11-20T14:32:43Z</time>
      </trkpt>
      <trkpt lat="43.49402" lon="6.91161">
        <ele>430.9</ele>
        <time>2022-11-20T14:32:54Z</time>
      </trkpt>
      <trkpt lat="43.49405" lon="6.91148">
        <ele>428.5</ele>
        <time>2022-11-20T14:33:03Z</time>
      </trkpt>
      <trkpt lat="43.49408" lon="6.91136">
        <ele>426.6</ele>
        <time>2022-11-20T14:33:12Z</time>
      </trkpt>
      <trkpt lat="43.4941" lon="6.91123">
        <ele>424.5</ele>
        <time>2022-11-20T14:33:20Z</time>
      </trkpt>
      <trkpt lat="43.49413" lon="6.91112">
        <ele>421.9</ele>
        <time>2022-11-20T14:33:29Z</time>
      </trkpt>
      <trkpt lat="43.49416" lon="6.911">
        <ele>419.8</ele>
        <time>2022-11-20T14:33:38Z</time>
      </trkpt>
      <trkpt lat="43.49422" lon="6.9109">
        <ele>417.1</ele>
        <time>2022-11-20T14:33:48Z</time>
      </trkpt>
      <trkpt lat="43.49422" lon="6.91078">
        <ele>414.4</ele>
        <time>2022-11-20T14:34:00Z</time>
      </trkpt>
      <trkpt lat="43.4943" lon="6.91069">
        <ele>411.5</ele>
        <time>2022-11-20T14:34:18Z</time>
      </trkpt>
      <trkpt lat="43.49435" lon="6.91058">
        <ele>408.7</ele>
        <time>2022-11-20T14:34:30Z</time>
      </trkpt>
      <trkpt lat="43.49436" lon="6.91044">
        <ele>405.6</ele>
        <time>2022-11-20T14:34:41Z</time>
      </trkpt>
      <trkpt lat="43.49441" lon="6.91032">
        <ele>401.6</ele>
        <time>2022-11-20T14:34:56Z</time>
      </trkpt>
      <trkpt lat="43.49447" lon="6.91023">
        <ele>398.5</ele>
        <time>2022-11-20T14:35:08Z</time>
      </trkpt>
      <trkpt lat="43.49451" lon="6.91011">
        <ele>395.3</ele>
        <time>2022-11-20T14:35:21Z</time>
      </trkpt>
      <trkpt lat="43.49456" lon="6.91">
        <ele>392.3</ele>
        <time>2022-11-20T14:35:32Z</time>
      </trkpt>
      <trkpt lat="43.4946" lon="6.90988">
        <ele>388.2</ele>
        <time>2022-11-20T14:35:48Z</time>
      </trkpt>
      <trkpt lat="43.49467" lon="6.90979">
        <ele>385.1</ele>
        <time>2022-11-20T14:36:02Z</time>
      </trkpt>
      <trkpt lat="43.49472" lon="6.90968">
        <ele>382.1</ele>
        <time>2022-11-20T14:36:14Z</time>
      </trkpt>
      <trkpt lat="43.4948" lon="6.9096">
        <ele>378.3</ele>
        <time>2022-11-20T14:36:29Z</time>
      </trkpt>
      <trkpt lat="43.49486" lon="6.90951">
        <ele>375.4</ele>
        <time>2022-11-20T14:36:42Z</time>
      </trkpt>
      <trkpt lat="43.49492" lon="6.9094">
        <ele>372.4</ele>
        <time>2022-11-20T14:36:54Z</time>
      </trkpt>
      <trkpt lat="43.49493" lon="6.90927">
        <ele>369.9</ele>
        <time>2022-11-20T14:37:04Z</time>
      </trkpt>
      <trkpt lat="43.49495" lon="6.90914">
        <ele>366.9</ele>
        <time>2022-11-20T14:37:16Z</time>
      </trkpt>
      <trkpt lat="43.49492" lon="6.90902">
        <ele>365.2</ele>
        <time>2022-11-20T14:37:26Z</time>
      </trkpt>
      <trkpt lat="43.49491" lon="6.90889">
        <ele>362.2</ele>
        <time>2022-11-20T14:37:40Z</time>
      </trkpt>
      <trkpt lat="43.49487" lon="6.90877">
        <ele>356.6</ele>
        <time>2022-11-20T14:38:03Z</time>
      </trkpt>
      <trkpt lat="43.49483" lon="6.90867">
        <ele>352.8</ele>
        <time>2022-11-20T14:38:18Z</time>
      </trkpt>
      <trkpt lat="43.49486" lon="6.90855">
        <ele>350.8</ele>
        <time>2022-11-20T14:38:26Z</time>
      </trkpt>
      <trkpt lat="43.49486" lon="6.90842">
        <ele>346.8</ele>
        <time>2022-11-20T14:38:47Z</time>
      </trkpt>
      <trkpt lat="43.4949" lon="6.9083">
        <ele>343.4</ele>
        <time>2022-11-20T14:39:05Z</time>
      </trkpt>
      <trkpt lat="43.49487" lon="6.90818">
        <ele>337</ele>
        <time>2022-11-20T14:39:40Z</time>
      </trkpt>
      <trkpt lat="43.49487" lon="6.90805">
        <ele>333.8</ele>
        <time>2022-11-20T14:39:56Z</time>
      </trkpt>
      <trkpt lat="43.49478" lon="6.90808">
        <ele>330.1</ele>
        <time>2022-11-20T14:40:15Z</time>
      </trkpt>
      <trkpt lat="43.49469" lon="6.90812">
        <ele>328.3</ele>
        <time>2022-11-20T14:40:31Z</time>
      </trkpt>
      <trkpt lat="43.4946" lon="6.90816">
        <ele>326.1</ele>
        <time>2022-11-20T14:40:53Z</time>
      </trkpt>
      <trkpt lat="43.4946" lon="6.90803">
        <ele>321.6</ele>
        <time>2022-11-20T14:41:32Z</time>
      </trkpt>
      <trkpt lat="43.49463" lon="6.9079">
        <ele>320</ele>
        <time>2022-11-20T14:41:42Z</time>
      </trkpt>
      <trkpt lat="43.49469" lon="6.90781">
        <ele>318.6</ele>
        <time>2022-11-20T14:41:53Z</time>
      </trkpt>
      <trkpt lat="43.49474" lon="6.9077">
        <ele>316.4</ele>
        <time>2022-11-20T14:42:08Z</time>
      </trkpt>
      <trkpt lat="43.49481" lon="6.90761">
        <ele>313.8</ele>
        <time>2022-11-20T14:42:25Z</time>
      </trkpt>
      <trkpt lat="43.49471" lon="6.9076">
        <ele>312</ele>
        <time>2022-11-20T14:42:40Z</time>
      </trkpt>
      <trkpt lat="43.49462" lon="6.90765">
        <ele>310.6</ele>
        <time>2022-11-20T14:42:54Z</time>
      </trkpt>
      <trkpt lat="43.49453" lon="6.90768">
        <ele>309.2</ele>
        <time>2022-11-20T14:43:06Z</time>
      </trkpt>
      <trkpt lat="43.49452" lon="6.90755">
        <ele>305</ele>
        <time>2022-11-20T14:43:34Z</time>
      </trkpt>
      <trkpt lat="43.49458" lon="6.90744">
        <ele>303.2</ele>
        <time>2022-11-20T14:43:46Z</time>
      </trkpt>
      <trkpt lat="43.49464" lon="6.90733">
        <ele>302.1</ele>
        <time>2022-11-20T14:43:55Z</time>
      </trkpt>
      <trkpt lat="43.4947" lon="6.90723">
        <ele>300</ele>
        <time>2022-11-20T14:44:07Z</time>
      </trkpt>
      <trkpt lat="43.49475" lon="6.90713">
        <ele>298.4</ele>
        <time>2022-11-20T14:44:37Z</time>
      </trkpt>
      <trkpt lat="43.49467" lon="6.90716">
        <ele>297.7</ele>
        <time>2022-11-20T14:44:47Z</time>
      </trkpt>
      <trkpt lat="43.49458" lon="6.9072">
        <ele>296.9</ele>
        <time>2022-11-20T14:44:56Z</time>
      </trkpt>
      <trkpt lat="43.49449" lon="6.90722">
        <ele>293.9</ele>
        <time>2022-11-20T14:45:14Z</time>
      </trkpt>
      <trkpt lat="43.4945" lon="6.9071">
        <ele>290</ele>
        <time>2022-11-20T14:45:39Z</time>
      </trkpt>
      <trkpt lat="43.49455" lon="6.90698">
        <ele>287.9</ele>
        <time>2022-11-20T14:45:50Z</time>
      </trkpt>
      <trkpt lat="43.49458" lon="6.90686">
        <ele>286.7</ele>
        <time>2022-11-20T14:46:00Z</time>
      </trkpt>
      <trkpt lat="43.49463" lon="6.90674">
        <ele>285.4</ele>
        <time>2022-11-20T14:46:10Z</time>
      </trkpt>
      <trkpt lat="43.49468" lon="6.90664">
        <ele>283.8</ele>
        <time>2022-11-20T14:46:23Z</time>
      </trkpt>
      <trkpt lat="43.49469" lon="6.90651">
        <ele>280.7</ele>
        <time>2022-11-20T14:46:44Z</time>
      </trkpt>
      <trkpt lat="43.49471" lon="6.90638">
        <ele>277.3</ele>
        <time>2022-11-20T14:47:06Z</time>
      </trkpt>
      <trkpt lat="43.4947" lon="6.90626">
        <ele>274.8</ele>
        <time>2022-11-20T14:47:21Z</time>
      </trkpt>
      <trkpt lat="43.49467" lon="6.90613">
        <ele>272.3</ele>
        <time>2022-11-20T14:47:34Z</time>
      </trkpt>
      <trkpt lat="43.49465" lon="6.90601">
        <ele>269.7</ele>
        <time>2022-11-20T14:47:47Z</time>
      </trkpt>
      <trkpt lat="43.49463" lon="6.90589">
        <ele>268.1</ele>
        <time>2022-11-20T14:47:58Z</time>
      </trkpt>
      <trkpt lat="43.49462" lon="6.90575">
        <ele>266.7</ele>
        <time>2022-11-20T14:48:08Z</time>
      </trkpt>
      <trkpt lat="43.49463" lon="6.90562">
        <ele>265.7</ele>
        <time>2022-11-20T14:48:16Z</time>
      </trkpt>
      <trkpt lat="43.49463" lon="6.90549">
        <ele>264</ele>
        <time>2022-11-20T14:48:25Z</time>
      </trkpt>
      <trkpt lat="43.49468" lon="6.90538">
        <ele>262.6</ele>
        <time>2022-11-20T14:48:34Z</time>
      </trkpt>
      <trkpt lat="43.49472" lon="6.90526">
        <ele>259.9</ele>
        <time>2022-11-20T14:48:47Z</time>
      </trkpt>
      <trkpt lat="43.49477" lon="6.90515">
        <ele>257.7</ele>
        <time>2022-11-20T14:49:00Z</time>
      </trkpt>
      <trkpt lat="43.49482" lon="6.90502">
        <ele>256.2</ele>
        <time>2022-11-20T14:49:08Z</time>
      </trkpt>
      <trkpt lat="43.49485" lon="6.9049">
        <ele>254.2</ele>
        <time>2022-11-20T14:49:19Z</time>
      </trkpt>
      <trkpt lat="43.49488" lon="6.90478">
        <ele>253.3</ele>
        <time>2022-11-20T14:49:27Z</time>
      </trkpt>
      <trkpt lat="43.49491" lon="6.90465">
        <ele>252.7</ele>
        <time>2022-11-20T14:49:36Z</time>
      </trkpt>
      <trkpt lat="43.49493" lon="6.90453">
        <ele>251.7</ele>
        <time>2022-11-20T14:49:45Z</time>
      </trkpt>
      <trkpt lat="43.49495" lon="6.9044">
        <ele>250.7</ele>
        <time>2022-11-20T14:49:53Z</time>
      </trkpt>
      <trkpt lat="43.49496" lon="6.90426">
        <ele>249.6</ele>
        <time>2022-11-20T14:50:02Z</time>
      </trkpt>
      <trkpt lat="43.49497" lon="6.90413">
        <ele>249.1</ele>
        <time>2022-11-20T14:50:10Z</time>
      </trkpt>
      <trkpt lat="43.49501" lon="6.90401">
        <ele>248</ele>
        <time>2022-11-20T14:50:18Z</time>
      </trkpt>
      <trkpt lat="43.49499" lon="6.90388">
        <ele>247.7</ele>
        <time>2022-11-20T14:50:29Z</time>
      </trkpt>
      <trkpt lat="43.49498" lon="6.90375">
        <ele>247.6</ele>
        <time>2022-11-20T14:50:55Z</time>
      </trkpt>
      <trkpt lat="43.49503" lon="6.90364">
        <ele>247.9</ele>
        <time>2022-11-20T14:51:04Z</time>
      </trkpt>
      <trkpt lat="43.49509" lon="6.90354">
        <ele>249.2</ele>
        <time>2022-11-20T14:51:12Z</time>
      </trkpt>
      <trkpt lat="43.49515" lon="6.90344">
        <ele>250</ele>
        <time>2022-11-20T14:51:20Z</time>
      </trkpt>
      <trkpt lat="43.49521" lon="6.90334">
        <ele>251.1</ele>
        <time>2022-11-20T14:51:28Z</time>
      </trkpt>
      <trkpt lat="43.49525" lon="6.90323">
        <ele>251.7</ele>
        <time>2022-11-20T14:51:36Z</time>
      </trkpt>
      <trkpt lat="43.49529" lon="6.90311">
        <ele>252.8</ele>
        <time>2022-11-20T14:51:45Z</time>
      </trkpt>
      <trkpt lat="43.49536" lon="6.90303">
        <ele>253.8</ele>
        <time>2022-11-20T14:51:54Z</time>
      </trkpt>
      <trkpt lat="43.49544" lon="6.90294">
        <ele>256</ele>
        <time>2022-11-20T14:52:05Z</time>
      </trkpt>
      <trkpt lat="43.49553" lon="6.90287">
        <ele>257.2</ele>
        <time>2022-11-20T14:52:14Z</time>
      </trkpt>
      <trkpt lat="43.49561" lon="6.90283">
        <ele>258.4</ele>
        <time>2022-11-20T14:52:23Z</time>
      </trkpt>
      <trkpt lat="43.49571" lon="6.9028">
        <ele>259.3</ele>
        <time>2022-11-20T14:52:32Z</time>
      </trkpt>
      <trkpt lat="43.4958" lon="6.90278">
        <ele>260.3</ele>
        <time>2022-11-20T14:52:41Z</time>
      </trkpt>
      <trkpt lat="43.49589" lon="6.90274">
        <ele>261.6</ele>
        <time>2022-11-20T14:52:50Z</time>
      </trkpt>
      <trkpt lat="43.49598" lon="6.90271">
        <ele>262.6</ele>
        <time>2022-11-20T14:52:58Z</time>
      </trkpt>
      <trkpt lat="43.49608" lon="6.90272">
        <ele>263.8</ele>
        <time>2022-11-20T14:53:07Z</time>
      </trkpt>
      <trkpt lat="43.49617" lon="6.9027">
        <ele>265</ele>
        <time>2022-11-20T14:53:16Z</time>
      </trkpt>
      <trkpt lat="43.49627" lon="6.90268">
        <ele>266.7</ele>
        <time>2022-11-20T14:53:26Z</time>
      </trkpt>
      <trkpt lat="43.49632" lon="6.90257">
        <ele>268.2</ele>
        <time>2022-11-20T14:53:35Z</time>
      </trkpt>
      <trkpt lat="43.49635" lon="6.90245">
        <ele>269.4</ele>
        <time>2022-11-20T14:53:45Z</time>
      </trkpt>
      <trkpt lat="43.49632" lon="6.90233">
        <ele>270.9</ele>
        <time>2022-11-20T14:53:55Z</time>
      </trkpt>
      <trkpt lat="43.49627" lon="6.90221">
        <ele>272.2</ele>
        <time>2022-11-20T14:54:05Z</time>
      </trkpt>
      <trkpt lat="43.49623" lon="6.9021">
        <ele>273.3</ele>
        <time>2022-11-20T14:54:14Z</time>
      </trkpt>
      <trkpt lat="43.49618" lon="6.90199">
        <ele>274.5</ele>
        <time>2022-11-20T14:54:22Z</time>
      </trkpt>
      <trkpt lat="43.49613" lon="6.90188">
        <ele>275.6</ele>
        <time>2022-11-20T14:54:31Z</time>
      </trkpt>
      <trkpt lat="43.49609" lon="6.90176">
        <ele>276.3</ele>
        <time>2022-11-20T14:54:39Z</time>
      </trkpt>
      <trkpt lat="43.49608" lon="6.90163">
        <ele>277.5</ele>
        <time>2022-11-20T14:54:48Z</time>
      </trkpt>
      <trkpt lat="43.49606" lon="6.9015">
        <ele>278.8</ele>
        <time>2022-11-20T14:54:56Z</time>
      </trkpt>
      <trkpt lat="43.49606" lon="6.90137">
        <ele>279.9</ele>
        <time>2022-11-20T14:55:05Z</time>
      </trkpt>
      <trkpt lat="43.49604" lon="6.90125">
        <ele>281.1</ele>
        <time>2022-11-20T14:55:14Z</time>
      </trkpt>
      <trkpt lat="43.49604" lon="6.90112">
        <ele>282.1</ele>
        <time>2022-11-20T14:55:24Z</time>
      </trkpt>
      <trkpt lat="43.49605" lon="6.90099">
        <ele>283.2</ele>
        <time>2022-11-20T14:55:34Z</time>
      </trkpt>
      <trkpt lat="43.49606" lon="6.90086">
        <ele>284.3</ele>
        <time>2022-11-20T14:55:44Z</time>
      </trkpt>
      <trkpt lat="43.49605" lon="6.90073">
        <ele>285.4</ele>
        <time>2022-11-20T14:55:54Z</time>
      </trkpt>
      <trkpt lat="43.49606" lon="6.9006">
        <ele>286.3</ele>
        <time>2022-11-20T14:56:03Z</time>
      </trkpt>
      <trkpt lat="43.49606" lon="6.90047">
        <ele>287.4</ele>
        <time>2022-11-20T14:56:11Z</time>
      </trkpt>
      <trkpt lat="43.49608" lon="6.90034">
        <ele>288.7</ele>
        <time>2022-11-20T14:56:20Z</time>
      </trkpt>
      <trkpt lat="43.49611" lon="6.90022">
        <ele>289.9</ele>
        <time>2022-11-20T14:56:30Z</time>
      </trkpt>
      <trkpt lat="43.49615" lon="6.9001">
        <ele>291.2</ele>
        <time>2022-11-20T14:56:50Z</time>
      </trkpt>
      <trkpt lat="43.49621" lon="6.89999">
        <ele>292.2</ele>
        <time>2022-11-20T14:56:59Z</time>
      </trkpt>
      <trkpt lat="43.49627" lon="6.89989">
        <ele>293.1</ele>
        <time>2022-11-20T14:57:09Z</time>
      </trkpt>
      <trkpt lat="43.49633" lon="6.89979">
        <ele>294.1</ele>
        <time>2022-11-20T14:57:18Z</time>
      </trkpt>
      <trkpt lat="43.4964" lon="6.8997">
        <ele>295.1</ele>
        <time>2022-11-20T14:57:28Z</time>
      </trkpt>
      <trkpt lat="43.49648" lon="6.89963">
        <ele>296</ele>
        <time>2022-11-20T14:57:36Z</time>
      </trkpt>
      <trkpt lat="43.49656" lon="6.89956">
        <ele>297.3</ele>
        <time>2022-11-20T14:57:46Z</time>
      </trkpt>
      <trkpt lat="43.49664" lon="6.89949">
        <ele>298.5</ele>
        <time>2022-11-20T14:57:56Z</time>
      </trkpt>
      <trkpt lat="43.49673" lon="6.89945">
        <ele>299.4</ele>
        <time>2022-11-20T14:58:05Z</time>
      </trkpt>
      <trkpt lat="43.49682" lon="6.8994">
        <ele>300.1</ele>
        <time>2022-11-20T14:58:15Z</time>
      </trkpt>
      <trkpt lat="43.49687" lon="6.89929">
        <ele>300.9</ele>
        <time>2022-11-20T14:59:59Z</time>
      </trkpt>
      <trkpt lat="43.49696" lon="6.89922">
        <ele>300.4</ele>
        <time>2022-11-20T15:00:09Z</time>
      </trkpt>
      <trkpt lat="43.49703" lon="6.89914">
        <ele>299.7</ele>
        <time>2022-11-20T15:00:19Z</time>
      </trkpt>
      <trkpt lat="43.49709" lon="6.89904">
        <ele>299.3</ele>
        <time>2022-11-20T15:00:28Z</time>
      </trkpt>
      <trkpt lat="43.49716" lon="6.89895">
        <ele>298.9</ele>
        <time>2022-11-20T15:00:36Z</time>
      </trkpt>
      <trkpt lat="43.49723" lon="6.89886">
        <ele>298.9</ele>
        <time>2022-11-20T15:00:45Z</time>
      </trkpt>
      <trkpt lat="43.4973" lon="6.89876">
        <ele>298.7</ele>
        <time>2022-11-20T15:00:53Z</time>
      </trkpt>
      <trkpt lat="43.49735" lon="6.89866">
        <ele>298.9</ele>
        <time>2022-11-20T15:01:01Z</time>
      </trkpt>
      <trkpt lat="43.4974" lon="6.89855">
        <ele>299.3</ele>
        <time>2022-11-20T15:01:09Z</time>
      </trkpt>
      <trkpt lat="43.49747" lon="6.89846">
        <ele>300.4</ele>
        <time>2022-11-20T15:01:18Z</time>
      </trkpt>
      <trkpt lat="43.49756" lon="6.89839">
        <ele>301.9</ele>
        <time>2022-11-20T15:01:29Z</time>
      </trkpt>
      <trkpt lat="43.49764" lon="6.89833">
        <ele>303.2</ele>
        <time>2022-11-20T15:01:39Z</time>
      </trkpt>
      <trkpt lat="43.49772" lon="6.89826">
        <ele>304.7</ele>
        <time>2022-11-20T15:01:49Z</time>
      </trkpt>
      <trkpt lat="43.49781" lon="6.8982">
        <ele>305.5</ele>
        <time>2022-11-20T15:01:58Z</time>
      </trkpt>
      <trkpt lat="43.49789" lon="6.89815">
        <ele>306.3</ele>
        <time>2022-11-20T15:02:07Z</time>
      </trkpt>
      <trkpt lat="43.49797" lon="6.89808">
        <ele>307.1</ele>
        <time>2022-11-20T15:02:19Z</time>
      </trkpt>
      <trkpt lat="43.49806" lon="6.89806">
        <ele>307.9</ele>
        <time>2022-11-20T15:02:42Z</time>
      </trkpt>
      <trkpt lat="43.49815" lon="6.89799">
        <ele>309</ele>
        <time>2022-11-20T15:02:52Z</time>
      </trkpt>
      <trkpt lat="43.49824" lon="6.89796">
        <ele>309.8</ele>
        <time>2022-11-20T15:03:00Z</time>
      </trkpt>
      <trkpt lat="43.49832" lon="6.89789">
        <ele>310.9</ele>
        <time>2022-11-20T15:03:08Z</time>
      </trkpt>
      <trkpt lat="43.49839" lon="6.8978">
        <ele>312.2</ele>
        <time>2022-11-20T15:03:17Z</time>
      </trkpt>
      <trkpt lat="43.49848" lon="6.89773">
        <ele>313.5</ele>
        <time>2022-11-20T15:03:26Z</time>
      </trkpt>
      <trkpt lat="43.49857" lon="6.8977">
        <ele>314</ele>
        <time>2022-11-20T15:03:34Z</time>
      </trkpt>
      <trkpt lat="43.49867" lon="6.8977">
        <ele>315.1</ele>
        <time>2022-11-20T15:03:42Z</time>
      </trkpt>
      <trkpt lat="43.49876" lon="6.89772">
        <ele>316.1</ele>
        <time>2022-11-20T15:03:50Z</time>
      </trkpt>
      <trkpt lat="43.49885" lon="6.89776">
        <ele>317.1</ele>
        <time>2022-11-20T15:03:59Z</time>
      </trkpt>
      <trkpt lat="43.49893" lon="6.89781">
        <ele>318.6</ele>
        <time>2022-11-20T15:04:08Z</time>
      </trkpt>
      <trkpt lat="43.49901" lon="6.89788">
        <ele>320</ele>
        <time>2022-11-20T15:04:18Z</time>
      </trkpt>
      <trkpt lat="43.49909" lon="6.89794">
        <ele>321.7</ele>
        <time>2022-11-20T15:04:28Z</time>
      </trkpt>
      <trkpt lat="43.49918" lon="6.89799">
        <ele>322.2</ele>
        <time>2022-11-20T15:04:37Z</time>
      </trkpt>
      <trkpt lat="43.49926" lon="6.89806">
        <ele>323.6</ele>
        <time>2022-11-20T15:04:46Z</time>
      </trkpt>
      <trkpt lat="43.49935" lon="6.89813">
        <ele>324.6</ele>
        <time>2022-11-20T15:05:02Z</time>
      </trkpt>
      <trkpt lat="43.49944" lon="6.89819">
        <ele>325.1</ele>
        <time>2022-11-20T15:05:10Z</time>
      </trkpt>
      <trkpt lat="43.49953" lon="6.89823">
        <ele>325.7</ele>
        <time>2022-11-20T15:05:20Z</time>
      </trkpt>
      <trkpt lat="43.49961" lon="6.89831">
        <ele>325.6</ele>
        <time>2022-11-20T15:05:30Z</time>
      </trkpt>
      <trkpt lat="43.49968" lon="6.8984">
        <ele>324.9</ele>
        <time>2022-11-20T15:05:40Z</time>
      </trkpt>
      <trkpt lat="43.49974" lon="6.8985">
        <ele>323.2</ele>
        <time>2022-11-20T15:05:49Z</time>
      </trkpt>
      <trkpt lat="43.49981" lon="6.8986">
        <ele>322.3</ele>
        <time>2022-11-20T15:05:57Z</time>
      </trkpt>
      <trkpt lat="43.49986" lon="6.8987">
        <ele>322.2</ele>
        <time>2022-11-20T15:06:05Z</time>
      </trkpt>
      <trkpt lat="43.49992" lon="6.8988">
        <ele>323.4</ele>
        <time>2022-11-20T15:06:14Z</time>
      </trkpt>
      <trkpt lat="43.49996" lon="6.89892">
        <ele>324</ele>
        <time>2022-11-20T15:06:23Z</time>
      </trkpt>
      <trkpt lat="43.49998" lon="6.89905">
        <ele>324.5</ele>
        <time>2022-11-20T15:06:32Z</time>
      </trkpt>
      <trkpt lat="43.49998" lon="6.89918">
        <ele>325.1</ele>
        <time>2022-11-20T15:06:40Z</time>
      </trkpt>
      <trkpt lat="43.49997" lon="6.89931">
        <ele>325.7</ele>
        <time>2022-11-20T15:06:48Z</time>
      </trkpt>
      <trkpt lat="43.49997" lon="6.89944">
        <ele>325.6</ele>
        <time>2022-11-20T15:06:57Z</time>
      </trkpt>
      <trkpt lat="43.49998" lon="6.89958">
        <ele>324.7</ele>
        <time>2022-11-20T15:07:06Z</time>
      </trkpt>
      <trkpt lat="43.50001" lon="6.8997">
        <ele>323.7</ele>
        <time>2022-11-20T15:07:17Z</time>
      </trkpt>
      <trkpt lat="43.50005" lon="6.89982">
        <ele>321</ele>
        <time>2022-11-20T15:07:28Z</time>
      </trkpt>
      <trkpt lat="43.50009" lon="6.89994">
        <ele>319.1</ele>
        <time>2022-11-20T15:07:37Z</time>
      </trkpt>
      <trkpt lat="43.50011" lon="6.90007">
        <ele>317.6</ele>
        <time>2022-11-20T15:07:45Z</time>
      </trkpt>
      <trkpt lat="43.50013" lon="6.90021">
        <ele>315.6</ele>
        <time>2022-11-20T15:07:55Z</time>
      </trkpt>
      <trkpt lat="43.50013" lon="6.90034">
        <ele>314.1</ele>
        <time>2022-11-20T15:08:04Z</time>
      </trkpt>
      <trkpt lat="43.50012" lon="6.90047">
        <ele>312.3</ele>
        <time>2022-11-20T15:08:12Z</time>
      </trkpt>
      <trkpt lat="43.50011" lon="6.9006">
        <ele>311.1</ele>
        <time>2022-11-20T15:08:21Z</time>
      </trkpt>
      <trkpt lat="43.50009" lon="6.90072">
        <ele>310.3</ele>
        <time>2022-11-20T15:08:28Z</time>
      </trkpt>
      <trkpt lat="43.50006" lon="6.90085">
        <ele>309.7</ele>
        <time>2022-11-20T15:08:35Z</time>
      </trkpt>
      <trkpt lat="43.50005" lon="6.90099">
        <ele>309.7</ele>
        <time>2022-11-20T15:08:43Z</time>
      </trkpt>
      <trkpt lat="43.50003" lon="6.90111">
        <ele>310</ele>
        <time>2022-11-20T15:09:41Z</time>
      </trkpt>
      <trkpt lat="43.50001" lon="6.90123">
        <ele>309.4</ele>
        <time>2022-11-20T15:09:48Z</time>
      </trkpt>
      <trkpt lat="43.49996" lon="6.90135">
        <ele>308.5</ele>
        <time>2022-11-20T15:09:56Z</time>
      </trkpt>
      <trkpt lat="43.49991" lon="6.90146">
        <ele>307</ele>
        <time>2022-11-20T15:10:04Z</time>
      </trkpt>
      <trkpt lat="43.49985" lon="6.90157">
        <ele>304.9</ele>
        <time>2022-11-20T15:10:12Z</time>
      </trkpt>
      <trkpt lat="43.49981" lon="6.9017">
        <ele>302.9</ele>
        <time>2022-11-20T15:10:20Z</time>
      </trkpt>
      <trkpt lat="43.49977" lon="6.90182">
        <ele>301.2</ele>
        <time>2022-11-20T15:10:27Z</time>
      </trkpt>
      <trkpt lat="43.49977" lon="6.90195">
        <ele>300.8</ele>
        <time>2022-11-20T15:10:35Z</time>
      </trkpt>
      <trkpt lat="43.49978" lon="6.90208">
        <ele>301.2</ele>
        <time>2022-11-20T15:10:43Z</time>
      </trkpt>
      <trkpt lat="43.49974" lon="6.90219">
        <ele>301.7</ele>
        <time>2022-11-20T15:10:51Z</time>
      </trkpt>
      <trkpt lat="43.49974" lon="6.90232">
        <ele>301.2</ele>
        <time>2022-11-20T15:10:59Z</time>
      </trkpt>
      <trkpt lat="43.4997" lon="6.90244">
        <ele>301.3</ele>
        <time>2022-11-20T15:11:05Z</time>
      </trkpt>
      <trkpt lat="43.49973" lon="6.90258">
        <ele>301.7</ele>
        <time>2022-11-20T15:11:15Z</time>
      </trkpt>
      <trkpt lat="43.49974" lon="6.9027">
        <ele>301.6</ele>
        <time>2022-11-20T15:11:24Z</time>
      </trkpt>
      <trkpt lat="43.49975" lon="6.90283">
        <ele>300.5</ele>
        <time>2022-11-20T15:11:33Z</time>
      </trkpt>
      <trkpt lat="43.49975" lon="6.90295">
        <ele>297.9</ele>
        <time>2022-11-20T15:11:44Z</time>
      </trkpt>
      <trkpt lat="43.49982" lon="6.90305">
        <ele>295.9</ele>
        <time>2022-11-20T15:11:52Z</time>
      </trkpt>
      <trkpt lat="43.49981" lon="6.90317">
        <ele>293.8</ele>
        <time>2022-11-20T15:12:01Z</time>
      </trkpt>
      <trkpt lat="43.49985" lon="6.9033">
        <ele>291.3</ele>
        <time>2022-11-20T15:12:11Z</time>
      </trkpt>
      <trkpt lat="43.49991" lon="6.9034">
        <ele>289</ele>
        <time>2022-11-20T15:12:19Z</time>
      </trkpt>
      <trkpt lat="43.49992" lon="6.90353">
        <ele>287.2</ele>
        <time>2022-11-20T15:12:28Z</time>
      </trkpt>
      <trkpt lat="43.49996" lon="6.90365">
        <ele>284.5</ele>
        <time>2022-11-20T15:12:45Z</time>
      </trkpt>
      <trkpt lat="43.5" lon="6.90377">
        <ele>281.2</ele>
        <time>2022-11-20T15:13:26Z</time>
      </trkpt>
      <trkpt lat="43.50008" lon="6.90384">
        <ele>278.9</ele>
        <time>2022-11-20T15:13:38Z</time>
      </trkpt>
      <trkpt lat="43.50017" lon="6.9038">
        <ele>275.1</ele>
        <time>2022-11-20T15:13:53Z</time>
      </trkpt>
      <trkpt lat="43.50026" lon="6.90382">
        <ele>270.5</ele>
        <time>2022-11-20T15:14:11Z</time>
      </trkpt>
      <trkpt lat="43.50034" lon="6.90389">
        <ele>265.6</ele>
        <time>2022-11-20T15:14:31Z</time>
      </trkpt>
      <trkpt lat="43.50042" lon="6.90396">
        <ele>260.4</ele>
        <time>2022-11-20T15:15:01Z</time>
      </trkpt>
      <trkpt lat="43.5005" lon="6.90392">
        <ele>256.7</ele>
        <time>2022-11-20T15:15:21Z</time>
      </trkpt>
      <trkpt lat="43.50059" lon="6.90389">
        <ele>252.4</ele>
        <time>2022-11-20T15:15:46Z</time>
      </trkpt>
      <trkpt lat="43.50067" lon="6.90395">
        <ele>248.6</ele>
        <time>2022-11-20T15:16:04Z</time>
      </trkpt>
      <trkpt lat="43.50075" lon="6.90391">
        <ele>244.3</ele>
        <time>2022-11-20T15:16:23Z</time>
      </trkpt>
      <trkpt lat="43.50081" lon="6.90381">
        <ele>241</ele>
        <time>2022-11-20T15:16:41Z</time>
      </trkpt>
      <trkpt lat="43.50089" lon="6.90375">
        <ele>237.3</ele>
        <time>2022-11-20T15:17:05Z</time>
      </trkpt>
      <trkpt lat="43.50098" lon="6.90373">
        <ele>235</ele>
        <time>2022-11-20T15:17:23Z</time>
      </trkpt>
      <trkpt lat="43.50103" lon="6.90384">
        <ele>231.2</ele>
        <time>2022-11-20T15:17:43Z</time>
      </trkpt>
      <trkpt lat="43.50106" lon="6.90395">
        <ele>227.4</ele>
        <time>2022-11-20T15:18:02Z</time>
      </trkpt>
      <trkpt lat="43.50107" lon="6.90408">
        <ele>225</ele>
        <time>2022-11-20T15:18:13Z</time>
      </trkpt>
      <trkpt lat="43.50109" lon="6.9042">
        <ele>223.6</ele>
        <time>2022-11-20T15:18:28Z</time>
      </trkpt>
      <trkpt lat="43.50115" lon="6.9043">
        <ele>220.1</ele>
        <time>2022-11-20T15:18:53Z</time>
      </trkpt>
      <trkpt lat="43.50123" lon="6.90437">
        <ele>216.5</ele>
        <time>2022-11-20T15:19:20Z</time>
      </trkpt>
      <trkpt lat="43.50132" lon="6.90435">
        <ele>211.5</ele>
        <time>2022-11-20T15:19:53Z</time>
      </trkpt>
      <trkpt lat="43.50137" lon="6.90446">
        <ele>208.4</ele>
        <time>2022-11-20T15:20:14Z</time>
      </trkpt>
      <trkpt lat="43.50146" lon="6.90451">
        <ele>203.9</ele>
        <time>2022-11-20T15:20:35Z</time>
      </trkpt>
      <trkpt lat="43.50154" lon="6.90457">
        <ele>199.8</ele>
        <time>2022-11-20T15:20:56Z</time>
      </trkpt>
      <trkpt lat="43.50158" lon="6.90469">
        <ele>195.9</ele>
        <time>2022-11-20T15:21:12Z</time>
      </trkpt>
      <trkpt lat="43.50166" lon="6.90475">
        <ele>190.2</ele>
        <time>2022-11-20T15:21:46Z</time>
      </trkpt>
      <trkpt lat="43.50174" lon="6.90481">
        <ele>186.7</ele>
        <time>2022-11-20T15:22:16Z</time>
      </trkpt>
      <trkpt lat="43.50183" lon="6.90481">
        <ele>182.5</ele>
        <time>2022-11-20T15:22:38Z</time>
      </trkpt>
      <trkpt lat="43.50192" lon="6.90484">
        <ele>176.9</ele>
        <time>2022-11-20T15:23:04Z</time>
      </trkpt>
      <trkpt lat="43.50193" lon="6.90497">
        <ele>174.6</ele>
        <time>2022-11-20T15:23:18Z</time>
      </trkpt>
      <trkpt lat="43.50191" lon="6.9051">
        <ele>173.2</ele>
        <time>2022-11-20T15:23:34Z</time>
      </trkpt>
      <trkpt lat="43.5019" lon="6.90522">
        <ele>171.8</ele>
        <time>2022-11-20T15:23:49Z</time>
      </trkpt>
      <trkpt lat="43.50189" lon="6.90535">
        <ele>168.6</ele>
        <time>2022-11-20T15:24:00Z</time>
      </trkpt>
      <trkpt lat="43.50187" lon="6.90547">
        <ele>166.6</ele>
        <time>2022-11-20T15:24:11Z</time>
      </trkpt>
      <trkpt lat="43.50184" lon="6.90559">
        <ele>165.6</ele>
        <time>2022-11-20T15:24:19Z</time>
      </trkpt>
      <trkpt lat="43.50185" lon="6.90572">
        <ele>163.3</ele>
        <time>2022-11-20T15:24:29Z</time>
      </trkpt>
      <trkpt lat="43.50185" lon="6.90585">
        <ele>161.8</ele>
        <time>2022-11-20T15:24:37Z</time>
      </trkpt>
      <trkpt lat="43.50187" lon="6.90598">
        <ele>159.5</ele>
        <time>2022-11-20T15:24:47Z</time>
      </trkpt>
      <trkpt lat="43.50186" lon="6.90612">
        <ele>158.3</ele>
        <time>2022-11-20T15:24:56Z</time>
      </trkpt>
      <trkpt lat="43.50187" lon="6.90624">
        <ele>156.8</ele>
        <time>2022-11-20T15:25:05Z</time>
      </trkpt>
      <trkpt lat="43.50189" lon="6.90637">
        <ele>154.7</ele>
        <time>2022-11-20T15:25:15Z</time>
      </trkpt>
      <trkpt lat="43.50196" lon="6.90645">
        <ele>152.3</ele>
        <time>2022-11-20T15:25:23Z</time>
      </trkpt>
      <trkpt lat="43.50202" lon="6.90654">
        <ele>150.5</ele>
        <time>2022-11-20T15:25:32Z</time>
      </trkpt>
      <trkpt lat="43.5021" lon="6.90663">
        <ele>148.4</ele>
        <time>2022-11-20T15:25:43Z</time>
      </trkpt>
      <trkpt lat="43.50215" lon="6.90673">
        <ele>147.1</ele>
        <time>2022-11-20T15:25:54Z</time>
      </trkpt>
      <trkpt lat="43.5022" lon="6.90684">
        <ele>144.7</ele>
        <time>2022-11-20T15:26:10Z</time>
      </trkpt>
      <trkpt lat="43.50225" lon="6.90694">
        <ele>142.2</ele>
        <time>2022-11-20T15:26:23Z</time>
      </trkpt>
      <trkpt lat="43.50232" lon="6.90703">
        <ele>139.8</ele>
        <time>2022-11-20T15:26:35Z</time>
      </trkpt>
      <trkpt lat="43.50236" lon="6.90715">
        <ele>138.1</ele>
        <time>2022-11-20T15:26:46Z</time>
      </trkpt>
      <trkpt lat="43.50238" lon="6.90728">
        <ele>136.3</ele>
        <time>2022-11-20T15:26:58Z</time>
      </trkpt>
      <trkpt lat="43.50238" lon="6.90741">
        <ele>134</ele>
        <time>2022-11-20T15:27:11Z</time>
      </trkpt>
      <trkpt lat="43.50239" lon="6.90754">
        <ele>132</ele>
        <time>2022-11-20T15:27:21Z</time>
      </trkpt>
      <trkpt lat="43.5024" lon="6.90767">
        <ele>130.8</ele>
        <time>2022-11-20T15:27:47Z</time>
      </trkpt>
      <trkpt lat="43.50243" lon="6.90779">
        <ele>130.7</ele>
        <time>2022-11-20T15:27:58Z</time>
      </trkpt>
      <trkpt lat="43.50246" lon="6.90791">
        <ele>131.3</ele>
        <time>2022-11-20T15:28:08Z</time>
      </trkpt>
      <trkpt lat="43.50253" lon="6.908">
        <ele>131.9</ele>
        <time>2022-11-20T15:28:19Z</time>
      </trkpt>
      <trkpt lat="43.50258" lon="6.9081">
        <ele>131.7</ele>
        <time>2022-11-20T15:28:32Z</time>
      </trkpt>
      <trkpt lat="43.50261" lon="6.90822">
        <ele>130.3</ele>
        <time>2022-11-20T15:28:53Z</time>
      </trkpt>
      <trkpt lat="43.50262" lon="6.90835">
        <ele>128.1</ele>
        <time>2022-11-20T15:29:11Z</time>
      </trkpt>
      <trkpt lat="43.50263" lon="6.90848">
        <ele>126.2</ele>
        <time>2022-11-20T15:29:23Z</time>
      </trkpt>
      <trkpt lat="43.50267" lon="6.9086">
        <ele>124.4</ele>
        <time>2022-11-20T15:29:35Z</time>
      </trkpt>
      <trkpt lat="43.50262" lon="6.90871">
        <ele>122.7</ele>
        <time>2022-11-20T15:29:52Z</time>
      </trkpt>
      <trkpt lat="43.50254" lon="6.90877">
        <ele>119.3</ele>
        <time>2022-11-20T15:30:27Z</time>
      </trkpt>
      <trkpt lat="43.50247" lon="6.90885">
        <ele>115.3</ele>
        <time>2022-11-20T15:30:52Z</time>
      </trkpt>
      <trkpt lat="43.50242" lon="6.90896">
        <ele>112.3</ele>
        <time>2022-11-20T15:31:06Z</time>
      </trkpt>
      <trkpt lat="43.50242" lon="6.90908">
        <ele>110.2</ele>
        <time>2022-11-20T15:31:39Z</time>
      </trkpt>
      <trkpt lat="43.50236" lon="6.90917">
        <ele>105.3</ele>
        <time>2022-11-20T15:32:10Z</time>
      </trkpt>
      <trkpt lat="43.5023" lon="6.90927">
        <ele>101.9</ele>
        <time>2022-11-20T15:33:04Z</time>
      </trkpt>
      <trkpt lat="43.50227" lon="6.90938">
        <ele>98.7</ele>
        <time>2022-11-20T15:33:20Z</time>
      </trkpt>
      <trkpt lat="43.50223" lon="6.9095">
        <ele>96</ele>
        <time>2022-11-20T15:33:43Z</time>
      </trkpt>
      <trkpt lat="43.50226" lon="6.90962">
        <ele>95.1</ele>
        <time>2022-11-20T15:34:06Z</time>
      </trkpt>
      <trkpt lat="43.50233" lon="6.90969">
        <ele>94.4</ele>
        <time>2022-11-20T15:34:19Z</time>
      </trkpt>
      <trkpt lat="43.50241" lon="6.90975">
        <ele>94.1</ele>
        <time>2022-11-20T15:34:27Z</time>
      </trkpt>
      <trkpt lat="43.50248" lon="6.90983">
        <ele>94.2</ele>
        <time>2022-11-20T15:34:36Z</time>
      </trkpt>
      <trkpt lat="43.50256" lon="6.9099">
        <ele>93.7</ele>
        <time>2022-11-20T15:34:44Z</time>
      </trkpt>
      <trkpt lat="43.50263" lon="6.91">
        <ele>93.2</ele>
        <time>2022-11-20T15:34:52Z</time>
      </trkpt>
      <trkpt lat="43.50272" lon="6.91003">
        <ele>92.8</ele>
        <time>2022-11-20T15:34:59Z</time>
      </trkpt>
      <trkpt lat="43.5028" lon="6.9101">
        <ele>91.8</ele>
        <time>2022-11-20T15:35:26Z</time>
      </trkpt>
      <trkpt lat="43.50289" lon="6.91013">
        <ele>90.8</ele>
        <time>2022-11-20T15:35:40Z</time>
      </trkpt>
      <trkpt lat="43.50299" lon="6.91018">
        <ele>89.4</ele>
        <time>2022-11-20T15:35:54Z</time>
      </trkpt>
      <trkpt lat="43.50306" lon="6.91026">
        <ele>88.4</ele>
        <time>2022-11-20T15:36:03Z</time>
      </trkpt>
      <trkpt lat="43.50315" lon="6.91031">
        <ele>87.8</ele>
        <time>2022-11-20T15:36:15Z</time>
      </trkpt>
      <trkpt lat="43.50324" lon="6.91029">
        <ele>87.3</ele>
        <time>2022-11-20T15:36:34Z</time>
      </trkpt>
      <trkpt lat="43.50333" lon="6.91026">
        <ele>86.8</ele>
        <time>2022-11-20T15:36:49Z</time>
      </trkpt>
      <trkpt lat="43.50341" lon="6.9103">
        <ele>87.6</ele>
        <time>2022-11-20T15:37:00Z</time>
      </trkpt>
      <trkpt lat="43.50351" lon="6.91034">
        <ele>89.4</ele>
        <time>2022-11-20T15:37:10Z</time>
      </trkpt>
      <trkpt lat="43.50361" lon="6.91039">
        <ele>90.4</ele>
        <time>2022-11-20T15:37:17Z</time>
      </trkpt>
      <trkpt lat="43.50369" lon="6.91042">
        <ele>91.7</ele>
        <time>2022-11-20T15:37:25Z</time>
      </trkpt>
      <trkpt lat="43.50378" lon="6.91047">
        <ele>92.5</ele>
        <time>2022-11-20T15:37:34Z</time>
      </trkpt>
      <trkpt lat="43.50387" lon="6.91051">
        <ele>93.6</ele>
        <time>2022-11-20T15:37:41Z</time>
      </trkpt>
      <trkpt lat="43.50396" lon="6.91056">
        <ele>94.6</ele>
        <time>2022-11-20T15:37:48Z</time>
      </trkpt>
      <trkpt lat="43.50405" lon="6.91062">
        <ele>95.3</ele>
        <time>2022-11-20T15:37:56Z</time>
      </trkpt>
      <trkpt lat="43.50413" lon="6.91068">
        <ele>96.4</ele>
        <time>2022-11-20T15:38:07Z</time>
      </trkpt>
      <trkpt lat="43.50422" lon="6.91074">
        <ele>97</ele>
        <time>2022-11-20T15:38:14Z</time>
      </trkpt>
      <trkpt lat="43.50428" lon="6.91083">
        <ele>98.2</ele>
        <time>2022-11-20T15:38:25Z</time>
      </trkpt>
      <trkpt lat="43.50433" lon="6.91094">
        <ele>100.1</ele>
        <time>2022-11-20T15:38:38Z</time>
      </trkpt>
      <trkpt lat="43.50442" lon="6.91097">
        <ele>99.7</ele>
        <time>2022-11-20T15:39:05Z</time>
      </trkpt>
      <trkpt lat="43.50451" lon="6.91103">
        <ele>99.4</ele>
        <time>2022-11-20T15:39:13Z</time>
      </trkpt>
      <trkpt lat="43.50459" lon="6.91108">
        <ele>99.1</ele>
        <time>2022-11-20T15:39:22Z</time>
      </trkpt>
      <trkpt lat="43.50467" lon="6.91115">
        <ele>98.5</ele>
        <time>2022-11-20T15:39:32Z</time>
      </trkpt>
      <trkpt lat="43.50475" lon="6.91121">
        <ele>97.4</ele>
        <time>2022-11-20T15:39:41Z</time>
      </trkpt>
      <trkpt lat="43.50485" lon="6.91128">
        <ele>96.6</ele>
        <time>2022-11-20T15:39:49Z</time>
      </trkpt>
      <trkpt lat="43.50493" lon="6.91135">
        <ele>95.7</ele>
        <time>2022-11-20T15:39:57Z</time>
      </trkpt>
      <trkpt lat="43.505" lon="6.91143">
        <ele>95.2</ele>
        <time>2022-11-20T15:40:06Z</time>
      </trkpt>
      <trkpt lat="43.50509" lon="6.91148">
        <ele>93.6</ele>
        <time>2022-11-20T15:40:16Z</time>
      </trkpt>
      <trkpt lat="43.50515" lon="6.91139">
        <ele>92.8</ele>
        <time>2022-11-20T15:40:25Z</time>
      </trkpt>
      <trkpt lat="43.50521" lon="6.91128">
        <ele>91.8</ele>
        <time>2022-11-20T15:40:33Z</time>
      </trkpt>
      <trkpt lat="43.5053" lon="6.91122">
        <ele>90.6</ele>
        <time>2022-11-20T15:40:41Z</time>
      </trkpt>
      <trkpt lat="43.50539" lon="6.91118">
        <ele>89.7</ele>
        <time>2022-11-20T15:40:50Z</time>
      </trkpt>
      <trkpt lat="43.50549" lon="6.91118">
        <ele>88.8</ele>
        <time>2022-11-20T15:40:58Z</time>
      </trkpt>
      <trkpt lat="43.50558" lon="6.91118">
        <ele>88.2</ele>
        <time>2022-11-20T15:41:05Z</time>
      </trkpt>
      <trkpt lat="43.50567" lon="6.91117">
        <ele>87.6</ele>
        <time>2022-11-20T15:41:13Z</time>
      </trkpt>
      <trkpt lat="43.50577" lon="6.91115">
        <ele>86.3</ele>
        <time>2022-11-20T15:41:22Z</time>
      </trkpt>
      <trkpt lat="43.50586" lon="6.91114">
        <ele>85.4</ele>
        <time>2022-11-20T15:41:30Z</time>
      </trkpt>
      <trkpt lat="43.50596" lon="6.91112">
        <ele>84.5</ele>
        <time>2022-11-20T15:41:38Z</time>
      </trkpt>
      <trkpt lat="43.50605" lon="6.91111">
        <ele>83.3</ele>
        <time>2022-11-20T15:41:47Z</time>
      </trkpt>
      <trkpt lat="43.50614" lon="6.91109">
        <ele>81.8</ele>
        <time>2022-11-20T15:41:55Z</time>
      </trkpt>
      <trkpt lat="43.50624" lon="6.91108">
        <ele>82</ele>
        <time>2022-11-20T15:42:03Z</time>
      </trkpt>
      <trkpt lat="43.50634" lon="6.91108">
        <ele>81.2</ele>
        <time>2022-11-20T15:42:11Z</time>
      </trkpt>
      <trkpt lat="43.50643" lon="6.91109">
        <ele>80.7</ele>
        <time>2022-11-20T15:42:18Z</time>
      </trkpt>
      <trkpt lat="43.50653" lon="6.91111">
        <ele>80</ele>
        <time>2022-11-20T15:42:27Z</time>
      </trkpt>
      <trkpt lat="43.50663" lon="6.91112">
        <ele>79</ele>
        <time>2022-11-20T15:42:35Z</time>
      </trkpt>
      <trkpt lat="43.50673" lon="6.9111">
        <ele>78.1</ele>
        <time>2022-11-20T15:42:43Z</time>
      </trkpt>
      <trkpt lat="43.50683" lon="6.91109">
        <ele>77.6</ele>
        <time>2022-11-20T15:42:50Z</time>
      </trkpt>
      <trkpt lat="43.50692" lon="6.91109">
        <ele>77.2</ele>
        <time>2022-11-20T15:42:57Z</time>
      </trkpt>
      <trkpt lat="43.50701" lon="6.9111">
        <ele>77</ele>
        <time>2022-11-20T15:43:04Z</time>
      </trkpt>
      <trkpt lat="43.50711" lon="6.91109">
        <ele>76.4</ele>
        <time>2022-11-20T15:43:11Z</time>
      </trkpt>
      <trkpt lat="43.5072" lon="6.91107">
        <ele>75.2</ele>
        <time>2022-11-20T15:43:19Z</time>
      </trkpt>
      <trkpt lat="43.50729" lon="6.91104">
        <ele>73.8</ele>
        <time>2022-11-20T15:43:27Z</time>
      </trkpt>
      <trkpt lat="43.50739" lon="6.91098">
        <ele>73</ele>
        <time>2022-11-20T15:43:35Z</time>
      </trkpt>
      <trkpt lat="43.50748" lon="6.91093">
        <ele>72.2</ele>
        <time>2022-11-20T15:43:43Z</time>
      </trkpt>
      <trkpt lat="43.50757" lon="6.91092">
        <ele>71.5</ele>
        <time>2022-11-20T15:43:51Z</time>
      </trkpt>
      <trkpt lat="43.50766" lon="6.91089">
        <ele>71.2</ele>
        <time>2022-11-20T15:43:58Z</time>
      </trkpt>
      <trkpt lat="43.50777" lon="6.91086">
        <ele>70.8</ele>
        <time>2022-11-20T15:44:06Z</time>
      </trkpt>
      <trkpt lat="43.50785" lon="6.91083">
        <ele>70.3</ele>
        <time>2022-11-20T15:44:12Z</time>
      </trkpt>
      <trkpt lat="43.50796" lon="6.9108">
        <ele>69.8</ele>
        <time>2022-11-20T15:44:21Z</time>
      </trkpt>
      <trkpt lat="43.50805" lon="6.91076">
        <ele>69.5</ele>
        <time>2022-11-20T15:44:29Z</time>
      </trkpt>
      <trkpt lat="43.50814" lon="6.91073">
        <ele>69.3</ele>
        <time>2022-11-20T15:44:36Z</time>
      </trkpt>
      <trkpt lat="43.50824" lon="6.91072">
        <ele>68.6</ele>
        <time>2022-11-20T15:44:44Z</time>
      </trkpt>
      <trkpt lat="43.50833" lon="6.91071">
        <ele>68.1</ele>
        <time>2022-11-20T15:44:50Z</time>
      </trkpt>
      <trkpt lat="43.50842" lon="6.91072">
        <ele>67.3</ele>
        <time>2022-11-20T15:45:01Z</time>
      </trkpt>
      <trkpt lat="43.50852" lon="6.91072">
        <ele>67.2</ele>
        <time>2022-11-20T15:45:08Z</time>
      </trkpt>
      <trkpt lat="43.50861" lon="6.91069">
        <ele>67.1</ele>
        <time>2022-11-20T15:45:15Z</time>
      </trkpt>
      <trkpt lat="43.5087" lon="6.91065">
        <ele>67.2</ele>
        <time>2022-11-20T15:45:25Z</time>
      </trkpt>
      <trkpt lat="43.50879" lon="6.91065">
        <ele>66.5</ele>
        <time>2022-11-20T15:45:34Z</time>
      </trkpt>
      <trkpt lat="43.50888" lon="6.91068">
        <ele>66.7</ele>
        <time>2022-11-20T15:45:40Z</time>
      </trkpt>
      <trkpt lat="43.50898" lon="6.91066">
        <ele>67</ele>
        <time>2022-11-20T15:45:48Z</time>
      </trkpt>
      <trkpt lat="43.50908" lon="6.91069">
        <ele>67.8</ele>
        <time>2022-11-20T15:45:56Z</time>
      </trkpt>
      <trkpt lat="43.50917" lon="6.91068">
        <ele>68.1</ele>
        <time>2022-11-20T15:46:09Z</time>
      </trkpt>
      <trkpt lat="43.50927" lon="6.91068">
        <ele>68</ele>
        <time>2022-11-20T15:46:19Z</time>
      </trkpt>
      <trkpt lat="43.50937" lon="6.91069">
        <ele>67.8</ele>
        <time>2022-11-20T15:46:27Z</time>
      </trkpt>
      <trkpt lat="43.50946" lon="6.91071">
        <ele>66.5</ele>
        <time>2022-11-20T15:46:34Z</time>
      </trkpt>
      <trkpt lat="43.50955" lon="6.91072">
        <ele>65.7</ele>
        <time>2022-11-20T15:46:42Z</time>
      </trkpt>
      <trkpt lat="43.50965" lon="6.91073">
        <ele>65.2</ele>
        <time>2022-11-20T15:46:50Z</time>
      </trkpt>
      <trkpt lat="43.50974" lon="6.91068">
        <ele>64.7</ele>
        <time>2022-11-20T15:46:56Z</time>
      </trkpt>
      <trkpt lat="43.50983" lon="6.91065">
        <ele>63.5</ele>
        <time>2022-11-20T15:47:05Z</time>
      </trkpt>
      <trkpt lat="43.50992" lon="6.91066">
        <ele>62.3</ele>
        <time>2022-11-20T15:47:13Z</time>
      </trkpt>
      <trkpt lat="43.51002" lon="6.91067">
        <ele>61.2</ele>
        <time>2022-11-20T15:47:21Z</time>
      </trkpt>
      <trkpt lat="43.51009" lon="6.91058">
        <ele>60.6</ele>
        <time>2022-11-20T15:47:29Z</time>
      </trkpt>
      <trkpt lat="43.51014" lon="6.91046">
        <ele>60.6</ele>
        <time>2022-11-20T15:47:37Z</time>
      </trkpt>
      <trkpt lat="43.51017" lon="6.91034">
        <ele>61.1</ele>
        <time>2022-11-20T15:47:44Z</time>
      </trkpt>
      <trkpt lat="43.51021" lon="6.91023">
        <ele>62</ele>
        <time>2022-11-20T15:47:52Z</time>
      </trkpt>
      <trkpt lat="43.51027" lon="6.91011">
        <ele>62</ele>
        <time>2022-11-20T15:48:01Z</time>
      </trkpt>
      <trkpt lat="43.51034" lon="6.91003">
        <ele>61.6</ele>
        <time>2022-11-20T15:48:09Z</time>
      </trkpt>
      <trkpt lat="43.51042" lon="6.90996">
        <ele>61.4</ele>
        <time>2022-11-20T15:48:16Z</time>
      </trkpt>
      <trkpt lat="43.51051" lon="6.90989">
        <ele>60.9</ele>
        <time>2022-11-20T15:48:24Z</time>
      </trkpt>
      <trkpt lat="43.5106" lon="6.90983">
        <ele>60.5</ele>
        <time>2022-11-20T15:48:31Z</time>
      </trkpt>
      <trkpt lat="43.51069" lon="6.90979">
        <ele>59.8</ele>
        <time>2022-11-20T15:48:39Z</time>
      </trkpt>
      <trkpt lat="43.51078" lon="6.90977">
        <ele>58.9</ele>
        <time>2022-11-20T15:48:47Z</time>
      </trkpt>
      <trkpt lat="43.51087" lon="6.90977">
        <ele>58.2</ele>
        <time>2022-11-20T15:48:54Z</time>
      </trkpt>
      <trkpt lat="43.51095" lon="6.90971">
        <ele>57.6</ele>
        <time>2022-11-20T15:49:00Z</time>
      </trkpt>
      <trkpt lat="43.511" lon="6.9096">
        <ele>57.8</ele>
        <time>2022-11-20T15:49:07Z</time>
      </trkpt>
      <trkpt lat="43.51105" lon="6.90949">
        <ele>57.6</ele>
        <time>2022-11-20T15:49:14Z</time>
      </trkpt>
      <trkpt lat="43.51112" lon="6.9094">
        <ele>58.1</ele>
        <time>2022-11-20T15:49:22Z</time>
      </trkpt>
      <trkpt lat="43.51119" lon="6.90931">
        <ele>58.6</ele>
        <time>2022-11-20T15:49:30Z</time>
      </trkpt>
      <trkpt lat="43.51127" lon="6.90923">
        <ele>58.8</ele>
        <time>2022-11-20T15:49:38Z</time>
      </trkpt>
      <trkpt lat="43.51135" lon="6.90916">
        <ele>58.2</ele>
        <time>2022-11-20T15:49:45Z</time>
      </trkpt>
      <trkpt lat="43.51143" lon="6.90908">
        <ele>57.8</ele>
        <time>2022-11-20T15:49:53Z</time>
      </trkpt>
      <trkpt lat="43.51152" lon="6.90902">
        <ele>58</ele>
        <time>2022-11-20T15:50:01Z</time>
      </trkpt>
      <trkpt lat="43.51161" lon="6.90896">
        <ele>57.8</ele>
        <time>2022-11-20T15:50:09Z</time>
      </trkpt>
      <trkpt lat="43.5117" lon="6.9089">
        <ele>57.5</ele>
        <time>2022-11-20T15:50:16Z</time>
      </trkpt>
      <trkpt lat="43.51178" lon="6.90883">
        <ele>57.2</ele>
        <time>2022-11-20T15:50:23Z</time>
      </trkpt>
      <trkpt lat="43.51187" lon="6.90877">
        <ele>56.5</ele>
        <time>2022-11-20T15:50:31Z</time>
      </trkpt>
      <trkpt lat="43.51196" lon="6.9087">
        <ele>55.8</ele>
        <time>2022-11-20T15:50:39Z</time>
      </trkpt>
      <trkpt lat="43.51205" lon="6.90865">
        <ele>55.3</ele>
        <time>2022-11-20T15:50:47Z</time>
      </trkpt>
      <trkpt lat="43.51214" lon="6.90861">
        <ele>55.2</ele>
        <time>2022-11-20T15:50:54Z</time>
      </trkpt>
      <trkpt lat="43.51224" lon="6.90858">
        <ele>55.3</ele>
        <time>2022-11-20T15:51:01Z</time>
      </trkpt>
      <trkpt lat="43.51233" lon="6.9086">
        <ele>55</ele>
        <time>2022-11-20T15:51:08Z</time>
      </trkpt>
      <trkpt lat="43.51243" lon="6.90858">
        <ele>54.1</ele>
        <time>2022-11-20T15:51:16Z</time>
      </trkpt>
      <trkpt lat="43.5125" lon="6.90851">
        <ele>54.5</ele>
        <time>2022-11-20T15:51:24Z</time>
      </trkpt>
      <trkpt lat="43.51259" lon="6.90844">
        <ele>55.8</ele>
        <time>2022-11-20T15:51:31Z</time>
      </trkpt>
      <trkpt lat="43.51268" lon="6.90842">
        <ele>56.6</ele>
        <time>2022-11-20T15:51:40Z</time>
      </trkpt>
      <trkpt lat="43.51278" lon="6.90842">
        <ele>58</ele>
        <time>2022-11-20T15:51:50Z</time>
      </trkpt>
      <trkpt lat="43.51281" lon="6.9083">
        <ele>57.3</ele>
        <time>2022-11-20T15:52:08Z</time>
      </trkpt>
      <trkpt lat="43.51289" lon="6.90823">
        <ele>55.5</ele>
        <time>2022-11-20T15:52:22Z</time>
      </trkpt>
      <trkpt lat="43.51293" lon="6.90811">
        <ele>55.2</ele>
        <time>2022-11-20T15:52:47Z</time>
      </trkpt>
      <trkpt lat="43.51295" lon="6.90799">
        <ele>54.2</ele>
        <time>2022-11-20T15:53:02Z</time>
      </trkpt>
      <trkpt lat="43.51288" lon="6.9079">
        <ele>53.3</ele>
        <time>2022-11-20T15:53:16Z</time>
      </trkpt>
      <trkpt lat="43.51278" lon="6.90791">
        <ele>52.9</ele>
        <time>2022-11-20T15:53:26Z</time>
      </trkpt>
      <trkpt lat="43.51271" lon="6.90798">
        <ele>52.8</ele>
        <time>2022-11-20T15:53:35Z</time>
      </trkpt>
      <trkpt lat="43.5127" lon="6.90786">
        <ele>53.2</ele>
        <time>2022-11-20T15:53:53Z</time>
      </trkpt>
      <trkpt lat="43.51275" lon="6.90775">
        <ele>52.8</ele>
        <time>2022-11-20T15:54:01Z</time>
      </trkpt>
      <trkpt lat="43.51282" lon="6.90766">
        <ele>51.4</ele>
        <time>2022-11-20T15:54:09Z</time>
      </trkpt>
      <trkpt lat="43.51289" lon="6.90758">
        <ele>50.2</ele>
        <time>2022-11-20T15:54:17Z</time>
      </trkpt>
      <trkpt lat="43.51297" lon="6.9075">
        <ele>48.5</ele>
        <time>2022-11-20T15:54:43Z</time>
      </trkpt>
      <trkpt lat="43.51306" lon="6.90745">
        <ele>47.7</ele>
        <time>2022-11-20T15:54:54Z</time>
      </trkpt>
      <trkpt lat="43.51315" lon="6.90743">
        <ele>46.5</ele>
        <time>2022-11-20T15:55:08Z</time>
      </trkpt>
      <trkpt lat="43.51325" lon="6.90744">
        <ele>45</ele>
        <time>2022-11-20T15:55:48Z</time>
      </trkpt>
      <trkpt lat="43.51335" lon="6.90744">
        <ele>43.7</ele>
        <time>2022-11-20T15:55:59Z</time>
      </trkpt>
      <trkpt lat="43.51344" lon="6.90748">
        <ele>42.4</ele>
        <time>2022-11-20T15:56:56Z</time>
      </trkpt>
      <trkpt lat="43.51353" lon="6.90752">
        <ele>41.8</ele>
        <time>2022-11-20T15:57:06Z</time>
      </trkpt>
      <trkpt lat="43.51364" lon="6.90753">
        <ele>41.5</ele>
        <time>2022-11-20T15:57:14Z</time>
      </trkpt>
      <trkpt lat="43.51374" lon="6.90753">
        <ele>41.4</ele>
        <time>2022-11-20T15:57:24Z</time>
      </trkpt>
      <trkpt lat="43.51384" lon="6.90756">
        <ele>41</ele>
        <time>2022-11-20T15:57:32Z</time>
      </trkpt>
      <trkpt lat="43.51394" lon="6.90754">
        <ele>40.4</ele>
        <time>2022-11-20T15:57:40Z</time>
      </trkpt>
      <trkpt lat="43.51403" lon="6.90751">
        <ele>40.5</ele>
        <time>2022-11-20T15:57:48Z</time>
      </trkpt>
      <trkpt lat="43.51411" lon="6.90744">
        <ele>40.7</ele>
        <time>2022-11-20T15:57:56Z</time>
      </trkpt>
      <trkpt lat="43.5142" lon="6.90741">
        <ele>40.5</ele>
        <time>2022-11-20T15:58:04Z</time>
      </trkpt>
      <trkpt lat="43.51428" lon="6.90734">
        <ele>40.3</ele>
        <time>2022-11-20T15:58:11Z</time>
      </trkpt>
      <trkpt lat="43.51436" lon="6.90727">
        <ele>40.2</ele>
        <time>2022-11-20T15:58:18Z</time>
      </trkpt>
      <trkpt lat="43.51444" lon="6.90721">
        <ele>40.5</ele>
        <time>2022-11-20T15:58:25Z</time>
      </trkpt>
      <trkpt lat="43.51453" lon="6.90716">
        <ele>40.7</ele>
        <time>2022-11-20T15:58:32Z</time>
      </trkpt>
      <trkpt lat="43.51461" lon="6.9071">
        <ele>40.5</ele>
        <time>2022-11-20T15:58:39Z</time>
      </trkpt>
      <trkpt lat="43.5147" lon="6.90703">
        <ele>40.2</ele>
        <time>2022-11-20T15:58:47Z</time>
      </trkpt>
      <trkpt lat="43.51479" lon="6.90699">
        <ele>39.4</ele>
        <time>2022-11-20T15:58:55Z</time>
      </trkpt>
      <trkpt lat="43.51488" lon="6.90694">
        <ele>38.7</ele>
        <time>2022-11-20T15:59:02Z</time>
      </trkpt>
      <trkpt lat="43.51498" lon="6.90692">
        <ele>38.2</ele>
        <time>2022-11-20T15:59:10Z</time>
      </trkpt>
      <trkpt lat="43.51508" lon="6.90689">
        <ele>37.7</ele>
        <time>2022-11-20T15:59:17Z</time>
      </trkpt>
      <trkpt lat="43.51517" lon="6.90689">
        <ele>37.7</ele>
        <time>2022-11-20T15:59:26Z</time>
      </trkpt>
      <trkpt lat="43.51527" lon="6.90689">
        <ele>37.1</ele>
        <time>2022-11-20T15:59:35Z</time>
      </trkpt>
      <trkpt lat="43.51536" lon="6.90689">
        <ele>36.6</ele>
        <time>2022-11-20T15:59:42Z</time>
      </trkpt>
      <trkpt lat="43.51546" lon="6.90692">
        <ele>36.5</ele>
        <time>2022-11-20T15:59:49Z</time>
      </trkpt>
      <trkpt lat="43.51555" lon="6.90699">
        <ele>36.2</ele>
        <time>2022-11-20T15:59:56Z</time>
      </trkpt>
      <trkpt lat="43.51563" lon="6.90704">
        <ele>36.2</ele>
        <time>2022-11-20T16:00:03Z</time>
      </trkpt>
      <trkpt lat="43.51571" lon="6.90712">
        <ele>36.3</ele>
        <time>2022-11-20T16:00:10Z</time>
      </trkpt>
      <trkpt lat="43.51578" lon="6.90719">
        <ele>36.3</ele>
        <time>2022-11-20T16:00:17Z</time>
      </trkpt>
      <trkpt lat="43.51587" lon="6.90727">
        <ele>36.1</ele>
        <time>2022-11-20T16:00:24Z</time>
      </trkpt>
      <trkpt lat="43.51596" lon="6.90732">
        <ele>35.7</ele>
        <time>2022-11-20T16:00:31Z</time>
      </trkpt>
      <trkpt lat="43.51605" lon="6.90737">
        <ele>35.5</ele>
        <time>2022-11-20T16:00:37Z</time>
      </trkpt>
      <trkpt lat="43.51614" lon="6.90739">
        <ele>35.4</ele>
        <time>2022-11-20T16:00:44Z</time>
      </trkpt>
      <trkpt lat="43.51623" lon="6.90744">
        <ele>35.2</ele>
        <time>2022-11-20T16:00:52Z</time>
      </trkpt>
      <trkpt lat="43.51632" lon="6.90751">
        <ele>35.3</ele>
        <time>2022-11-20T16:00:59Z</time>
      </trkpt>
      <trkpt lat="43.51641" lon="6.90757">
        <ele>35.1</ele>
        <time>2022-11-20T16:01:06Z</time>
      </trkpt>
      <trkpt lat="43.51649" lon="6.90763">
        <ele>34.9</ele>
        <time>2022-11-20T16:01:12Z</time>
      </trkpt>
      <trkpt lat="43.51658" lon="6.90768">
        <ele>34.9</ele>
        <time>2022-11-20T16:01:19Z</time>
      </trkpt>
      <trkpt lat="43.51667" lon="6.90775">
        <ele>34.5</ele>
        <time>2022-11-20T16:01:26Z</time>
      </trkpt>
      <trkpt lat="43.51674" lon="6.90782">
        <ele>34.2</ele>
        <time>2022-11-20T16:01:32Z</time>
      </trkpt>
      <trkpt lat="43.51682" lon="6.90787">
        <ele>33.8</ele>
        <time>2022-11-20T16:01:39Z</time>
      </trkpt>
      <trkpt lat="43.5169" lon="6.90795">
        <ele>33.6</ele>
        <time>2022-11-20T16:01:46Z</time>
      </trkpt>
      <trkpt lat="43.51698" lon="6.90804">
        <ele>32.8</ele>
        <time>2022-11-20T16:01:54Z</time>
      </trkpt>
      <trkpt lat="43.51705" lon="6.90815">
        <ele>32.2</ele>
        <time>2022-11-20T16:02:01Z</time>
      </trkpt>
      <trkpt lat="43.51712" lon="6.90822">
        <ele>31.4</ele>
        <time>2022-11-20T16:02:09Z</time>
      </trkpt>
      <trkpt lat="43.51721" lon="6.90824">
        <ele>30.4</ele>
        <time>2022-11-20T16:02:18Z</time>
      </trkpt>
      <trkpt lat="43.51728" lon="6.90815">
        <ele>29.4</ele>
        <time>2022-11-20T16:02:27Z</time>
      </trkpt>
      <trkpt lat="43.51736" lon="6.90808">
        <ele>28.6</ele>
        <time>2022-11-20T16:02:34Z</time>
      </trkpt>
      <trkpt lat="43.51746" lon="6.90801">
        <ele>28.1</ele>
        <time>2022-11-20T16:02:40Z</time>
      </trkpt>
      <trkpt lat="43.51755" lon="6.90799">
        <ele>27.7</ele>
        <time>2022-11-20T16:02:44Z</time>
      </trkpt>
      <trkpt lat="43.51764" lon="6.90801">
        <ele>27.4</ele>
        <time>2022-11-20T16:02:48Z</time>
      </trkpt>
      <trkpt lat="43.51774" lon="6.90804">
        <ele>27.1</ele>
        <time>2022-11-20T16:02:52Z</time>
      </trkpt>
      <trkpt lat="43.51782" lon="6.90797">
        <ele>25.8</ele>
        <time>2022-11-20T16:03:12Z</time>
      </trkpt>
      <trkpt lat="43.51791" lon="6.90795">
        <ele>25.5</ele>
        <time>2022-11-20T16:03:21Z</time>
      </trkpt>
      <trkpt lat="43.51801" lon="6.90796">
        <ele>25</ele>
        <time>2022-11-20T16:03:29Z</time>
      </trkpt>
      <trkpt lat="43.5181" lon="6.90799">
        <ele>24.8</ele>
        <time>2022-11-20T16:03:36Z</time>
      </trkpt>
      <trkpt lat="43.5182" lon="6.908">
        <ele>24.6</ele>
        <time>2022-11-20T16:03:44Z</time>
      </trkpt>
      <trkpt lat="43.51829" lon="6.90802">
        <ele>24.4</ele>
        <time>2022-11-20T16:03:52Z</time>
      </trkpt>
      <trkpt lat="43.51837" lon="6.90808">
        <ele>24.3</ele>
        <time>2022-11-20T16:04:00Z</time>
      </trkpt>
      <trkpt lat="43.51846" lon="6.90814">
        <ele>24.1</ele>
        <time>2022-11-20T16:04:08Z</time>
      </trkpt>
      <trkpt lat="43.51854" lon="6.90821">
        <ele>23.7</ele>
        <time>2022-11-20T16:04:15Z</time>
      </trkpt>
      <trkpt lat="43.51862" lon="6.90829">
        <ele>23.4</ele>
        <time>2022-11-20T16:04:22Z</time>
      </trkpt>
      <trkpt lat="43.51869" lon="6.90836">
        <ele>23.4</ele>
        <time>2022-11-20T16:04:29Z</time>
      </trkpt>
      <trkpt lat="43.51876" lon="6.90844">
        <ele>23.3</ele>
        <time>2022-11-20T16:04:36Z</time>
      </trkpt>
      <trkpt lat="43.51885" lon="6.9085">
        <ele>23.1</ele>
        <time>2022-11-20T16:04:43Z</time>
      </trkpt>
      <trkpt lat="43.51893" lon="6.90854">
        <ele>22.9</ele>
        <time>2022-11-20T16:04:50Z</time>
      </trkpt>
      <trkpt lat="43.51902" lon="6.90857">
        <ele>22.7</ele>
        <time>2022-11-20T16:04:57Z</time>
      </trkpt>
      <trkpt lat="43.51911" lon="6.90863">
        <ele>22.7</ele>
        <time>2022-11-20T16:05:05Z</time>
      </trkpt>
      <trkpt lat="43.51919" lon="6.90871">
        <ele>22.4</ele>
        <time>2022-11-20T16:05:13Z</time>
      </trkpt>
      <trkpt lat="43.51925" lon="6.9088">
        <ele>21.7</ele>
        <time>2022-11-20T16:05:21Z</time>
      </trkpt>
      <trkpt lat="43.51933" lon="6.90889">
        <ele>21.4</ele>
        <time>2022-11-20T16:05:29Z</time>
      </trkpt>
      <trkpt lat="43.51939" lon="6.90899">
        <ele>21.1</ele>
        <time>2022-11-20T16:05:36Z</time>
      </trkpt>
      <trkpt lat="43.51946" lon="6.90909">
        <ele>20.8</ele>
        <time>2022-11-20T16:05:43Z</time>
      </trkpt>
      <trkpt lat="43.51954" lon="6.90917">
        <ele>20.9</ele>
        <time>2022-11-20T16:05:51Z</time>
      </trkpt>
      <trkpt lat="43.51961" lon="6.90924">
        <ele>20.8</ele>
        <time>2022-11-20T16:05:59Z</time>
      </trkpt>
      <trkpt lat="43.51969" lon="6.90932">
        <ele>20.5</ele>
        <time>2022-11-20T16:06:07Z</time>
      </trkpt>
      <trkpt lat="43.51979" lon="6.90936">
        <ele>20.7</ele>
        <time>2022-11-20T16:06:15Z</time>
      </trkpt>
      <trkpt lat="43.51989" lon="6.90937">
        <ele>20.5</ele>
        <time>2022-11-20T16:06:22Z</time>
      </trkpt>
      <trkpt lat="43.51999" lon="6.90938">
        <ele>20.4</ele>
        <time>2022-11-20T16:06:29Z</time>
      </trkpt>
      <trkpt lat="43.52008" lon="6.9094">
        <ele>20</ele>
        <time>2022-11-20T16:06:36Z</time>
      </trkpt>
      <trkpt lat="43.52018" lon="6.90941">
        <ele>20.1</ele>
        <time>2022-11-20T16:06:43Z</time>
      </trkpt>
      <trkpt lat="43.52028" lon="6.90941">
        <ele>19.6</ele>
        <time>2022-11-20T16:06:50Z</time>
      </trkpt>
      <trkpt lat="43.52038" lon="6.90942">
        <ele>19.3</ele>
        <time>2022-11-20T16:06:58Z</time>
      </trkpt>
      <trkpt lat="43.52048" lon="6.90942">
        <ele>19.6</ele>
        <time>2022-11-20T16:07:05Z</time>
      </trkpt>
      <trkpt lat="43.52058" lon="6.9094">
        <ele>19.7</ele>
        <time>2022-11-20T16:07:12Z</time>
      </trkpt>
      <trkpt lat="43.52067" lon="6.90939">
        <ele>19.8</ele>
        <time>2022-11-20T16:07:19Z</time>
      </trkpt>
      <trkpt lat="43.52076" lon="6.90936">
        <ele>19.8</ele>
        <time>2022-11-20T16:07:26Z</time>
      </trkpt>
      <trkpt lat="43.52085" lon="6.90932">
        <ele>19.7</ele>
        <time>2022-11-20T16:07:34Z</time>
      </trkpt>
      <trkpt lat="43.52096" lon="6.90932">
        <ele>20.1</ele>
        <time>2022-11-20T16:07:41Z</time>
      </trkpt>
      <trkpt lat="43.52105" lon="6.9093">
        <ele>20.3</ele>
        <time>2022-11-20T16:07:49Z</time>
      </trkpt>
      <trkpt lat="43.52115" lon="6.90928">
        <ele>20.4</ele>
        <time>2022-11-20T16:07:56Z</time>
      </trkpt>
      <trkpt lat="43.52125" lon="6.90927">
        <ele>20.2</ele>
        <time>2022-11-20T16:08:03Z</time>
      </trkpt>
      <trkpt lat="43.52135" lon="6.90926">
        <ele>19.7</ele>
        <time>2022-11-20T16:08:10Z</time>
      </trkpt>
      <trkpt lat="43.52145" lon="6.90927">
        <ele>19.7</ele>
        <time>2022-11-20T16:08:17Z</time>
      </trkpt>
      <trkpt lat="43.52155" lon="6.9093">
        <ele>19.8</ele>
        <time>2022-11-20T16:08:25Z</time>
      </trkpt>
      <trkpt lat="43.52165" lon="6.90934">
        <ele>19.5</ele>
        <time>2022-11-20T16:08:33Z</time>
      </trkpt>
      <trkpt lat="43.52174" lon="6.90938">
        <ele>19.6</ele>
        <time>2022-11-20T16:08:41Z</time>
      </trkpt>
      <trkpt lat="43.52183" lon="6.90942">
        <ele>19.5</ele>
        <time>2022-11-20T16:08:48Z</time>
      </trkpt>
      <trkpt lat="43.52191" lon="6.90946">
        <ele>19.6</ele>
        <time>2022-11-20T16:08:57Z</time>
      </trkpt>
      <trkpt lat="43.52201" lon="6.90946">
        <ele>19.7</ele>
        <time>2022-11-20T16:09:04Z</time>
      </trkpt>
      <trkpt lat="43.52211" lon="6.90945">
        <ele>19.4</ele>
        <time>2022-11-20T16:09:11Z</time>
      </trkpt>
      <trkpt lat="43.5222" lon="6.90945">
        <ele>19.2</ele>
        <time>2022-11-20T16:09:19Z</time>
      </trkpt>
      <trkpt lat="43.5223" lon="6.90947">
        <ele>19.2</ele>
        <time>2022-11-20T16:09:26Z</time>
      </trkpt>
      <trkpt lat="43.52239" lon="6.90949">
        <ele>18.9</ele>
        <time>2022-11-20T16:09:34Z</time>
      </trkpt>
      <trkpt lat="43.52249" lon="6.90947">
        <ele>18.8</ele>
        <time>2022-11-20T16:09:41Z</time>
      </trkpt>
      <trkpt lat="43.52259" lon="6.90945">
        <ele>18.8</ele>
        <time>2022-11-20T16:09:47Z</time>
      </trkpt>
      <trkpt lat="43.52268" lon="6.90943">
        <ele>18.7</ele>
        <time>2022-11-20T16:09:53Z</time>
      </trkpt>
      <trkpt lat="43.52277" lon="6.90945">
        <ele>18.8</ele>
        <time>2022-11-20T16:10:02Z</time>
      </trkpt>
      <trkpt lat="43.52286" lon="6.90948">
        <ele>18.6</ele>
        <time>2022-11-20T16:10:08Z</time>
      </trkpt>
      <trkpt lat="43.52296" lon="6.90952">
        <ele>18.5</ele>
        <time>2022-11-20T16:10:15Z</time>
      </trkpt>
      <trkpt lat="43.52304" lon="6.90958">
        <ele>18.3</ele>
        <time>2022-11-20T16:10:22Z</time>
      </trkpt>
      <trkpt lat="43.52313" lon="6.90965">
        <ele>18.4</ele>
        <time>2022-11-20T16:10:29Z</time>
      </trkpt>
      <trkpt lat="43.52321" lon="6.90973">
        <ele>18.1</ele>
        <time>2022-11-20T16:10:37Z</time>
      </trkpt>
      <trkpt lat="43.5233" lon="6.90981">
        <ele>18.3</ele>
        <time>2022-11-20T16:10:45Z</time>
      </trkpt>
      <trkpt lat="43.52338" lon="6.90988">
        <ele>18.3</ele>
        <time>2022-11-20T16:10:52Z</time>
      </trkpt>
      <trkpt lat="43.52345" lon="6.90997">
        <ele>18.4</ele>
        <time>2022-11-20T16:11:00Z</time>
      </trkpt>
      <trkpt lat="43.52351" lon="6.91007">
        <ele>18.1</ele>
        <time>2022-11-20T16:11:07Z</time>
      </trkpt>
      <trkpt lat="43.52359" lon="6.91017">
        <ele>17.9</ele>
        <time>2022-11-20T16:11:14Z</time>
      </trkpt>
      <trkpt lat="43.52366" lon="6.91024">
        <ele>18.1</ele>
        <time>2022-11-20T16:11:21Z</time>
      </trkpt>
      <trkpt lat="43.52373" lon="6.91032">
        <ele>18.4</ele>
        <time>2022-11-20T16:11:28Z</time>
      </trkpt>
      <trkpt lat="43.52381" lon="6.91037">
        <ele>18.3</ele>
        <time>2022-11-20T16:11:35Z</time>
      </trkpt>
      <trkpt lat="43.5239" lon="6.91039">
        <ele>18.5</ele>
        <time>2022-11-20T16:11:42Z</time>
      </trkpt>
      <trkpt lat="43.52401" lon="6.9104">
        <ele>18.5</ele>
        <time>2022-11-20T16:11:50Z</time>
      </trkpt>
      <trkpt lat="43.5241" lon="6.91042">
        <ele>18.5</ele>
        <time>2022-11-20T16:11:57Z</time>
      </trkpt>
      <trkpt lat="43.52418" lon="6.91048">
        <ele>18.7</ele>
        <time>2022-11-20T16:12:04Z</time>
      </trkpt>
      <trkpt lat="43.52425" lon="6.91059">
        <ele>18.6</ele>
        <time>2022-11-20T16:12:13Z</time>
      </trkpt>
      <trkpt lat="43.52432" lon="6.91067">
        <ele>18.4</ele>
        <time>2022-11-20T16:12:21Z</time>
      </trkpt>
      <trkpt lat="43.52438" lon="6.91078">
        <ele>18.9</ele>
        <time>2022-11-20T16:12:29Z</time>
      </trkpt>
      <trkpt lat="43.52444" lon="6.91088">
        <ele>19.2</ele>
        <time>2022-11-20T16:12:38Z</time>
      </trkpt>
      <trkpt lat="43.52447" lon="6.911">
        <ele>19.1</ele>
        <time>2022-11-20T16:12:46Z</time>
      </trkpt>
      <trkpt lat="43.52453" lon="6.91111">
        <ele>19.2</ele>
        <time>2022-11-20T16:12:55Z</time>
      </trkpt>
      <trkpt lat="43.52459" lon="6.9112">
        <ele>18.7</ele>
        <time>2022-11-20T16:13:06Z</time>
      </trkpt>
      <trkpt lat="43.52464" lon="6.91132">
        <ele>19.1</ele>
        <time>2022-11-20T16:13:12Z</time>
      </trkpt>
      <trkpt lat="43.52465" lon="6.91144">
        <ele>19.3</ele>
        <time>2022-11-20T16:13:34Z</time>
      </trkpt>
      <trkpt lat="43.5247" lon="6.91155">
        <ele>19.3</ele>
        <time>2022-11-20T16:13:50Z</time>
      </trkpt>
      <trkpt lat="43.52474" lon="6.91168">
        <ele>19.5</ele>
        <time>2022-11-20T16:13:58Z</time>
      </trkpt>
      <trkpt lat="43.52478" lon="6.9118">
        <ele>19.9</ele>
        <time>2022-11-20T16:14:05Z</time>
      </trkpt>
      <trkpt lat="43.52482" lon="6.91191">
        <ele>20.3</ele>
        <time>2022-11-20T16:14:12Z</time>
      </trkpt>
      <trkpt lat="43.52483" lon="6.91204">
        <ele>20.6</ele>
        <time>2022-11-20T16:14:19Z</time>
      </trkpt>
      <trkpt lat="43.52484" lon="6.91217">
        <ele>20.8</ele>
        <time>2022-11-20T16:14:26Z</time>
      </trkpt>
      <trkpt lat="43.52487" lon="6.91229">
        <ele>21.1</ele>
        <time>2022-11-20T16:14:35Z</time>
      </trkpt>
      <trkpt lat="43.52488" lon="6.91234">
        <ele>21</ele>
        <time>2022-11-20T16:14:45Z</time>
      </trkpt>
    </trkseg>
  </trk>
</gpx>